[[{"header":{"parameterUnit":"m.s-1","parameterCategory":1,"la1":31.0,"la2":29.5877,"lo1":-88.7671,"lo2":-86.6584,"dy":0.0162,"dx":0.0185,"nx":115,"ny":88,"refTime":"2024-08-14T06:00:00:Z","depth":0,"parameterNumber":2,"parameterNumberName":"U-component_of_WINDS"},"data":[0.0,0.0,0.0,0.0,0.0,0.0,0.0,0.0,0.0,0.0,0.0,0.0,0.0,0.0,0.0,0.0,0.0,0.0,0.0,0.0,0.0,0.0,0.0,0.0,0.0,0.0,0.0,0.0,0.0,0.0,0.0,0.0,0.0,0.0,0.0,0.0,0.0,0.0,0.0,0.0,0.0,0.0,0.0,0.0,0.0,0.0,0.0,0.0,0.0,0.0,0.0,0.0,0.0,0.0,0.0,0.0,0.0,0.0,0.0,0.0,0.0,0.0,0.0,0.0,0.0,0.0,0.0,0.0,0.0,0.0,0.0,0.0,0.0,0.0,0.0,0.0,0.0,0.0,0.0,0.0,0.0,0.0,0.0,0.0,0.0,0.0,0.0,0.0,0.0,0.0,0.0,0.0,0.0,0.0,0.0,0.0,0.0,0.0,0.0,0.0,0.0,0.0,0.0,0.0,0.0,0.0,0.0,0.0,0.0,0.0,0.0,0.0,0.0,0.0,0.0,0.0,0.0,0.0,0.0,0.0,0.0,0.0,0.0,0.0,0.0,0.0,0.0,0.0,0.0,0.0,0.0,0.0,0.0,0.0,0.0,0.0,0.0,0.0,0.0,0.0,0.0,0.0,0.0,0.0,0.0,0.0,0.0,0.0,0.0,0.0,0.0,0.0,0.0,0.0,0.0,0.0,0.0,0.0,0.0,0.0,0.0,0.0,0.0,0.0,0.0,0.0,0.0,0.0,0.0,0.0,0.0,0.0,0.0,0.0,0.0,0.0,0.0,0.0,0.0,0.0,0.0,0.0,0.0,0.0,0.0,0.0,0.0,0.0,0.0,0.0,0.0,0.0,0.0,0.0,0.0,0.0,0.0,0.0,0.0,0.0,0.0,0.0,0.0,0.0,0.0,0.0,0.0,0.0,0.0,0.0,0.0,0.0,0.0,0.0,0.0,0.0,0.0,0.0,0.0,0.0,0.0,0.0,0.0,0.0,0.0,0.0,0.0,0.0,0.0,0.0,0.0,0.0,0.0,0.0,0.0,0.0,0.0,0.0,0.0,0.0,0.0,0.0,0.0,0.0,0.0,0.0,0.0,0.0,0.0,0.0,0.0,0.0,0.0,0.0,0.0,0.0,0.0,0.0,0.0,0.0,0.0,0.0,0.0,0.0,0.0,0.0,0.0,0.0,0.0,0.0,0.0,0.0,0.0,0.0,0.0,0.0,0.0,0.0,0.0,0.0,0.0,0.0,0.0,0.0,0.0,0.0,0.0,0.0,0.0,0.0,0.0,0.0,0.0,0.0,0.0,0.0,0.0,0.0,0.0,0.0,0.0,0.0,0.0,0.0,0.0,0.0,0.0,0.0,0.0,0.0,0.0,0.0,0.0,0.0,0.0,0.0,0.0,0.0,0.0,0.0,0.0,0.0,0.0,0.0,0.0,0.0,0.0,0.0,0.0,0.0,0.0,0.0,0.0,0.0,0.0,0.0,0.0,0.0,0.0,0.0,0.0,0.0,0.0,0.0,0.0,0.0,0.0,0.0,0.0,0.0,0.0,0.0,0.0,0.0,0.0,0.0,0.0,0.0,0.0,0.0,0.0,0.0,0.0,0.0,0.0,0.0,0.0,0.0,0.0,0.0,0.0,0.0,0.0,0.0,0.0,0.0,0.0,0.0,0.0,0.0,0.0,0.0,0.0,0.0,0.0,0.0,0.0,0.0,0.0,0.0,0.0,0.0,0.0,0.0,0.0,0.0,0.0,0.0,0.0,0.0,0.0,0.0,0.0,0.0,0.0,0.0,0.0,0.0,0.0,0.0,0.0,0.0,0.0,0.0,0.0,0.0,0.0,0.0,0.0,0.0,0.0,0.0,0.0,0.0,0.0,0.0,0.0,0.0,0.0,0.0,0.0,0.0,0.0,0.0,0.0,0.0,0.0,0.0,0.0,0.0,0.0,0.0,0.0,0.0,0.0,0.0,0.0,0.0,0.0,0.0,0.0,0.0,0.0,0.0,0.0,0.0,0.0,0.0,0.0,0.0,0.0,0.0,0.0,0.0,0.0,0.0,0.0,0.0,0.0,0.0,0.0,0.0,0.0,0.0,0.0,0.0,0.0,0.0,0.0,0.0,0.0,0.0,0.0,0.0,0.0,0.0,0.0,0.0,0.0,0.0,0.0,0.0,0.0,0.0,0.0,0.0,0.0,0.0,0.0,0.0,0.0,0.0,0.0,0.0,0.0,0.0,0.0,0.0,0.0,0.0,0.0,0.0,0.0,0.0,0.0,0.0,0.0,0.0,0.0,0.0,0.0,0.0,0.0,0.0,0.0,0.0,0.0,0.0,0.0,0.0,0.0,0.0,0.0,0.0,0.0,0.0,0.0,0.0,0.0,0.0,0.0,0.0,0.0,0.0,0.0,0.0,0.0,0.0,0.0,0.0,0.0,0.0,0.0,0.0,0.0,0.0,0.0,0.0,0.0,0.0,0.0,0.0,0.0,0.0,0.0,0.0,0.0,0.0,0.0,0.0,0.0,0.0,0.0,0.0,0.0,0.0,0.0,0.0,0.0,0.0,0.0,0.0,0.0,0.0,0.0,0.0,0.0,0.0,0.0,0.0,0.0,0.0,0.0,0.0,0.0,0.0,0.0,0.0,0.0,0.0,0.0,0.0,0.0,0.0,0.0,0.0,0.0,0.0,0.0,0.0,0.0,0.0,0.0,0.0,0.0,0.0,0.0,0.0,0.0,0.0,0.0,0.0,0.0,0.0,0.0,0.0,0.0,0.0,0.0,0.0,0.0,0.0,0.0,0.0,0.0,0.0,0.0,0.0,0.0,0.0,0.0,0.0,0.0,0.0,0.0,0.0,0.0,0.0,0.0,0.0,0.0,0.0,0.0,0.0,0.0,0.0,0.0,0.0,0.0,0.0,0.0,0.0,0.0,0.0,0.0,0.0,0.0,0.0,0.0,0.0,0.0,0.0,0.0,0.0,0.0,0.0,0.0,0.0,0.0,0.0,0.0,0.0,0.0,0.0,0.0,0.0,0.0,0.0,0.0,0.0,0.0,0.0,0.0,0.0,0.0,0.0,0.0,0.0,0.0,0.0,0.0,0.0,0.0,0.0,0.0,0.0,0.0,0.0,0.0,0.0,0.0,0.0,0.0,0.0,0.0,0.0,0.0,0.0,0.0,0.0,0.0,0.0,0.0,0.0,0.0,0.0,0.0,0.0,0.0,0.0,0.0,0.0,0.0,0.0,0.0,0.0,0.0,0.0,0.0,0.0,0.0,0.0,0.0,0.0,0.0,0.0,0.0,0.0,0.0,0.0,0.0,0.0,0.0,0.0,0.0,0.0,0.0,0.0,0.0,0.0,0.0,0.0,0.0,0.0,0.0,0.0,0.0,0.0,0.0,0.0,0.0,0.0,0.0,0.0,0.0,0.0,0.0,0.0,0.0,0.0,0.0,0.0,0.0,0.0,0.0,0.0,0.0,0.0,0.0,0.0,0.0,0.0,0.0,0.0,0.0,0.0,0.0,0.0,0.0,0.0,0.0,0.0,0.0,0.0,0.0,0.0,0.0,0.0,0.0,0.0,0.0,0.0,0.0,0.0,0.0,0.0,0.0,0.0,0.0,0.0,0.0,0.0,0.0,0.0,0.0,0.0,0.0,0.0,0.0,0.0,0.0,0.0,0.0,0.0,0.0,0.0,0.0,0.0,0.0,0.0,0.0,0.0,0.0,0.0,0.0,0.0,0.0,0.0,0.0,0.0,0.0,0.0,0.0,0.0,0.0,0.0,0.0,0.0,0.0,0.0,0.0,0.0,0.0,0.0,0.0,0.0,0.0,0.0,0.0,0.0,0.0,0.0,0.0,0.0,0.0,0.0,0.0,0.0,0.0,0.0,0.0,0.0,0.0,0.0,0.0,0.0,0.0,0.0,0.0,0.0,0.0,0.0,0.0,0.0,0.0,0.0,0.0,0.0,0.0,0.0,0.0,0.0,0.0,0.0,0.0,0.0,0.0,0.0,0.0,0.0,0.0,0.0,0.0,0.0,0.0,0.0,0.0,0.0,0.0,0.0,0.0,0.0,0.0,0.0,0.0,0.0,0.0,0.0,0.0,0.0,0.0,0.0,0.0,0.0,0.0,0.0,0.0,0.0,0.0,0.0,0.0,0.0,0.0,0.0,0.0,0.0,0.0,0.0,0.0,0.0,0.0,0.0,0.0,0.0,0.0,0.0,0.0,0.0,0.0,0.0,0.0,0.0,0.0,0.0,0.0,0.0,-3.0898,0.0,0.0,0.0,0.0,0.0,0.0,0.0,0.0,0.0,0.0,0.0,0.0,0.0,0.0,0.0,0.0,0.0,0.0,0.0,0.0,0.0,0.0,0.0,0.0,0.0,0.0,0.0,0.0,0.0,0.0,0.0,0.0,0.0,0.0,0.0,0.0,0.0,0.0,0.0,0.0,0.0,0.0,0.0,0.0,0.0,0.0,0.0,0.0,0.0,0.0,0.0,0.0,0.0,0.0,0.0,0.0,0.0,0.0,0.0,0.0,0.0,0.0,0.0,0.0,0.0,0.0,0.0,0.0,0.0,0.0,0.0,0.0,0.0,0.0,0.0,0.0,0.0,0.0,0.0,0.0,0.0,0.0,0.0,0.0,0.0,0.0,0.0,0.0,0.0,0.0,0.0,0.0,0.0,0.0,0.0,0.0,0.0,0.0,0.0,0.0,0.0,0.0,0.0,0.0,0.0,0.0,0.0,0.0,0.0,0.0,-3.1387,-3.0918,-3.1367,-3.1387,-3.0898,0.0,0.0,0.0,0.0,0.0,0.0,0.0,0.0,0.0,0.0,0.0,0.0,0.0,0.0,0.0,0.0,0.0,0.0,0.0,0.0,0.0,0.0,0.0,0.0,0.0,0.0,0.0,0.0,0.0,0.0,0.0,0.0,0.0,0.0,0.0,0.0,0.0,0.0,0.0,0.0,0.0,0.0,0.0,0.0,0.0,0.0,0.0,0.0,0.0,0.0,0.0,0.0,0.0,0.0,0.0,0.0,0.0,0.0,0.0,0.0,0.0,0.0,0.0,0.0,0.0,0.0,0.0,0.0,0.0,0.0,0.0,0.0,0.0,0.0,0.0,0.0,0.0,0.0,0.0,0.0,0.0,0.0,0.0,0.0,0.0,0.0,0.0,0.0,0.0,0.0,0.0,0.0,0.0,0.0,0.0,0.0,0.0,0.0,0.0,0.0,0.0,0.0,0.0,0.0,0.0,0.0,0.0,0.0,0.0,0.0,0.0,0.0,-3.2422,-3.2461,-3.1816,0.0,0.0,0.0,0.0,0.0,0.0,0.0,0.0,0.0,0.0,0.0,0.0,0.0,0.0,0.0,0.0,0.0,0.0,0.0,0.0,0.0,0.0,0.0,0.0,0.0,0.0,0.0,0.0,0.0,0.0,0.0,0.0,0.0,0.0,0.0,0.0,0.0,0.0,0.0,0.0,0.0,0.0,0.0,0.0,0.0,0.0,0.0,0.0,0.0,0.0,0.0,0.0,0.0,0.0,0.0,0.0,0.0,0.0,0.0,0.0,0.0,0.0,0.0,0.0,0.0,0.0,0.0,0.0,0.0,0.0,0.0,0.0,0.0,0.0,0.0,0.0,0.0,0.0,0.0,0.0,0.0,0.0,0.0,0.0,0.0,0.0,0.0,0.0,0.0,0.0,0.0,0.0,0.0,0.0,0.0,0.0,0.0,0.0,0.0,0.0,0.0,0.0,0.0,0.0,0.0,0.0,0.0,0.0,0.0,0.0,-3.207,-3.4277,-3.4414,0.0,-3.4375,0.0,0.0,0.0,0.0,0.0,0.0,0.0,0.0,0.0,0.0,0.0,0.0,0.0,0.0,0.0,0.0,0.0,0.0,0.0,0.0,0.0,0.0,0.0,0.0,0.0,0.0,0.0,0.0,0.0,0.0,0.0,0.0,0.0,0.0,0.0,0.0,0.0,0.0,0.0,0.0,0.0,0.0,0.0,0.0,0.0,0.0,0.0,0.0,0.0,0.0,0.0,0.0,0.0,0.0,0.0,0.0,0.0,0.0,0.0,0.0,0.0,0.0,0.0,0.0,0.0,0.0,0.0,0.0,0.0,0.0,0.0,0.0,0.0,0.0,0.0,0.0,0.0,0.0,0.0,0.0,0.0,0.0,0.0,0.0,0.0,0.0,0.0,0.0,0.0,0.0,0.0,0.0,0.0,0.0,0.0,0.0,0.0,0.0,0.0,0.0,0.0,0.0,0.0,0.0,0.0,0.0,0.0,0.0,0.0,0.0,0.0,-3.4687,-3.4707,-3.4453,0.0,0.0,0.0,0.0,0.0,0.0,0.0,0.0,0.0,0.0,0.0,0.0,0.0,0.0,0.0,0.0,0.0,0.0,0.0,0.0,0.0,0.0,0.0,0.0,0.0,0.0,0.0,0.0,0.0,0.0,0.0,0.0,0.0,0.0,0.0,0.0,0.0,0.0,0.0,0.0,0.0,0.0,0.0,0.0,0.0,0.0,0.0,0.0,0.0,0.0,0.0,0.0,0.0,0.0,0.0,0.0,0.0,0.0,0.0,0.0,0.0,0.0,0.0,0.0,0.0,0.0,0.0,0.0,0.0,0.0,0.0,0.0,0.0,0.0,0.0,0.0,0.0,0.0,0.0,0.0,0.0,0.0,0.0,0.0,0.0,0.0,0.0,0.0,0.0,0.0,0.0,0.0,0.0,0.0,0.0,0.0,0.0,0.0,0.0,0.0,0.0,0.0,0.0,0.0,0.0,0.0,0.0,0.0,0.0,0.0,-3.4062,0.0,-3.5742,-3.5527,-3.4668,-3.3125,0.0,0.0,0.0,0.0,0.0,0.0,0.0,0.0,0.0,0.0,0.0,0.0,0.0,0.0,0.0,0.0,0.0,0.0,0.0,0.0,0.0,0.0,0.0,0.0,0.0,0.0,0.0,0.0,0.0,0.0,0.0,0.0,0.0,0.0,0.0,0.0,0.0,0.0,0.0,0.0,0.0,0.0,0.0,0.0,0.0,0.0,0.0,0.0,0.0,0.0,0.0,0.0,0.0,0.0,0.0,0.0,0.0,0.0,0.0,0.0,0.0,0.0,0.0,0.0,0.0,0.0,0.0,0.0,0.0,0.0,0.0,0.0,0.0,0.0,0.0,0.0,0.0,0.0,0.0,0.0,0.0,0.0,0.0,0.0,0.0,0.0,0.0,0.0,0.0,0.0,0.0,0.0,0.0,0.0,0.0,0.0,0.0,0.0,0.0,0.0,0.0,0.0,0.0,0.0,0.0,0.0,0.0,0.0,0.0,-3.4668,-3.5117,-3.8281,-3.7617,-3.5625,0.0,0.0,0.0,0.0,0.0,0.0,0.0,0.0,0.0,0.0,0.0,0.0,0.0,0.0,0.0,0.0,0.0,0.0,0.0,0.0,0.0,0.0,0.0,0.0,0.0,0.0,0.0,0.0,0.0,0.0,0.0,0.0,0.0,0.0,0.0,0.0,0.0,0.0,0.0,0.0,0.0,0.0,0.0,0.0,0.0,0.0,0.0,0.0,0.0,0.0,0.0,0.0,0.0,0.0,0.0,0.0,0.0,0.0,0.0,0.0,0.0,0.0,0.0,0.0,0.0,0.0,0.0,0.0,0.0,0.0,0.0,0.0,0.0,0.0,0.0,0.0,0.0,0.0,0.0,0.0,0.0,0.0,0.0,0.0,0.0,0.0,0.0,0.0,0.0,0.0,0.0,0.0,0.0,0.0,0.0,0.0,0.0,0.0,0.0,0.0,0.0,0.0,0.0,0.0,0.0,0.0,0.0,0.0,0.0,-3.0723,-3.2988,-3.6426,-4.0684,-3.7539,-3.4805,0.0,0.0,0.0,0.0,0.0,0.0,0.0,0.0,0.0,0.0,0.0,0.0,0.0,0.0,0.0,0.0,0.0,0.0,0.0,0.0,0.0,0.0,0.0,0.0,0.0,0.0,0.0,0.0,0.0,0.0,0.0,0.0,0.0,0.0,0.0,0.0,0.0,0.0,0.0,0.0,0.0,0.0,0.0,0.0,0.0,0.0,0.0,0.0,0.0,0.0,0.0,0.0,0.0,0.0,0.0,0.0,0.0,0.0,0.0,0.0,0.0,0.0,0.0,0.0,0.0,0.0,0.0,0.0,0.0,0.0,0.0,0.0,0.0,0.0,0.0,0.0,0.0,0.0,0.0,0.0,0.0,0.0,0.0,0.0,0.0,0.0,0.0,0.0,0.0,0.0,0.0,0.0,0.0,0.0,0.0,0.0,0.0,0.0,0.0,0.0,0.0,0.0,0.0,0.0,0.0,0.0,0.0,0.0,0.0,-2.9541,0.0,-3.7746,0.0,-3.7068,-3.3905,0.0,0.0,0.0,0.0,0.0,0.0,0.0,0.0,0.0,0.0,0.0,0.0,0.0,0.0,0.0,0.0,0.0,0.0,0.0,0.0,0.0,0.0,0.0,0.0,0.0,0.0,0.0,0.0,0.0,0.0,0.0,0.0,0.0,0.0,0.0,0.0,0.0,0.0,0.0,0.0,0.0,0.0,0.0,0.0,0.0,0.0,0.0,0.0,0.0,0.0,0.0,0.0,0.0,0.0,0.0,0.0,0.0,0.0,0.0,0.0,0.0,0.0,0.0,0.0,0.0,0.0,0.0,0.0,0.0,0.0,0.0,0.0,0.0,0.0,0.0,0.0,0.0,0.0,0.0,0.0,0.0,0.0,0.0,0.0,0.0,0.0,0.0,0.0,0.0,0.0,0.0,0.0,0.0,0.0,0.0,0.0,0.0,0.0,0.0,0.0,0.0,0.0,0.0,0.0,0.0,0.0,0.0,0.0,-2.8604,-3.4301,-3.772,-3.8758,-3.7336,-3.6341,-3.3112,0.0,0.0,0.0,0.0,0.0,0.0,0.0,0.0,0.0,0.0,0.0,0.0,0.0,0.0,0.0,0.0,0.0,0.0,0.0,0.0,0.0,0.0,0.0,0.0,0.0,0.0,0.0,0.0,0.0,0.0,0.0,0.0,0.0,0.0,0.0,0.0,0.0,0.0,0.0,0.0,0.0,0.0,0.0,0.0,0.0,0.0,0.0,0.0,0.0,0.0,0.0,0.0,0.0,0.0,0.0,0.0,0.0,0.0,0.0,0.0,0.0,0.0,0.0,0.0,0.0,0.0,0.0,0.0,0.0,0.0,0.0,0.0,0.0,0.0,0.0,0.0,0.0,0.0,0.0,0.0,0.0,0.0,0.0,0.0,0.0,0.0,0.0,0.0,0.0,0.0,0.0,0.0,0.0,0.0,0.0,0.0,0.0,0.0,0.0,0.0,0.0,0.0,0.0,0.0,0.0,0.0,0.0,0.0,0.0,-3.3657,-3.5872,-3.7906,-3.9511,-3.5541,-3.2963,0.0,0.0,0.0,0.0,0.0,0.0,0.0,0.0,0.0,0.0,0.0,0.0,0.0,0.0,0.0,0.0,0.0,0.0,0.0,0.0,0.0,0.0,0.0,0.0,0.0,0.0,0.0,0.0,0.0,0.0,0.0,0.0,0.0,0.0,0.0,0.0,0.0,0.0,0.0,0.0,0.0,0.0,0.0,0.0,0.0,0.0,0.0,0.0,0.0,0.0,0.0,0.0,0.0,0.0,0.0,0.0,0.0,0.0,0.0,0.0,0.0,0.0,0.0,0.0,0.0,0.0,0.0,0.0,0.0,0.0,0.0,0.0,0.0,0.0,0.0,0.0,0.0,0.0,0.0,0.0,0.0,0.0,0.0,0.0,0.0,0.0,0.0,0.0,0.0,0.0,0.0,0.0,0.0,0.0,0.0,0.0,0.0,0.0,0.0,0.0,0.0,0.0,0.0,0.0,0.0,0.0,0.0,0.0,0.0,-3.5146,-3.7085,-3.8831,-4.0369,-3.6508,-3.4167,-3.3597,0.0,0.0,0.0,0.0,0.0,0.0,0.0,0.0,0.0,0.0,0.0,0.0,0.0,0.0,0.0,0.0,0.0,0.0,0.0,0.0,0.0,0.0,0.0,0.0,0.0,0.0,0.0,0.0,0.0,0.0,0.0,0.0,0.0,0.0,0.0,0.0,0.0,0.0,0.0,0.0,0.0,0.0,0.0,0.0,0.0,0.0,0.0,0.0,0.0,0.0,0.0,0.0,0.0,0.0,0.0,0.0,0.0,0.0,0.0,0.0,0.0,0.0,0.0,0.0,0.0,0.0,0.0,0.0,0.0,0.0,0.0,0.0,0.0,0.0,0.0,0.0,0.0,0.0,0.0,0.0,0.0,0.0,0.0,0.0,0.0,0.0,0.0,0.0,0.0,0.0,0.0,0.0,0.0,0.0,0.0,0.0,0.0,0.0,0.0,0.0,0.0,0.0,0.0,0.0,0.0,0.0,0.0,0.0,-3.8174,-4.079,-4.1362,-3.9791,-3.8719,-3.6343,0.0,0.0,0.0,0.0,0.0,0.0,0.0,0.0,0.0,0.0,0.0,0.0,0.0,0.0,0.0,0.0,0.0,0.0,0.0,0.0,0.0,0.0,0.0,0.0,0.0,0.0,0.0,0.0,0.0,0.0,0.0,0.0,0.0,0.0,0.0,0.0,0.0,0.0,0.0,0.0,0.0,0.0,0.0,0.0,0.0,0.0,0.0,0.0,0.0,0.0,0.0,0.0,0.0,0.0,0.0,0.0,0.0,0.0,0.0,0.0,0.0,0.0,0.0,0.0,0.0,0.0,0.0,0.0,0.0,0.0,0.0,0.0,0.0,0.0,0.0,0.0,0.0,0.0,0.0,0.0,0.0,0.0,0.0,0.0,0.0,0.0,0.0,0.0,0.0,0.0,0.0,0.0,0.0,0.0,0.0,0.0,0.0,0.0,0.0,0.0,0.0,0.0,0.0,0.0,0.0,0.0,0.0,0.0,0.0,-3.8237,-4.1925,-4.3099,-4.1388,-3.8757,-3.6252,0.0,0.0,0.0,0.0,0.0,0.0,0.0,0.0,0.0,0.0,0.0,0.0,0.0,0.0,0.0,0.0,0.0,0.0,0.0,0.0,0.0,0.0,0.0,0.0,0.0,0.0,0.0,0.0,0.0,0.0,0.0,0.0,0.0,0.0,0.0,0.0,0.0,0.0,0.0,0.0,0.0,0.0,0.0,0.0,0.0,0.0,0.0,0.0,0.0,0.0,0.0,0.0,0.0,0.0,0.0,0.0,0.0,0.0,0.0,0.0,0.0,0.0,0.0,0.0,0.0,0.0,0.0,0.0,0.0,0.0,0.0,0.0,0.0,0.0,0.0,0.0,0.0,0.0,0.0,0.0,0.0,0.0,0.0,0.0,0.0,0.0,0.0,0.0,0.0,0.0,0.0,0.0,0.0,0.0,0.0,0.0,0.0,0.0,0.0,0.0,0.0,0.0,0.0,0.0,0.0,0.0,0.0,0.0,-3.7212,-3.9282,-4.2757,-4.3769,-4.2048,-4.0142,-3.7647,0.0,0.0,0.0,0.0,0.0,0.0,0.0,0.0,0.0,0.0,0.0,0.0,0.0,0.0,0.0,0.0,0.0,0.0,0.0,0.0,0.0,0.0,0.0,0.0,0.0,0.0,0.0,0.0,0.0,0.0,0.0,0.0,0.0,0.0,0.0,0.0,0.0,0.0,0.0,0.0,0.0,0.0,0.0,0.0,0.0,0.0,0.0,0.0,0.0,0.0,0.0,0.0,0.0,0.0,0.0,0.0,0.0,0.0,0.0,0.0,0.0,0.0,0.0,0.0,0.0,0.0,0.0,0.0,0.0,0.0,0.0,0.0,0.0,0.0,0.0,0.0,0.0,0.0,0.0,0.0,0.0,0.0,0.0,0.0,0.0,0.0,0.0,0.0,0.0,0.0,0.0,0.0,0.0,0.0,0.0,0.0,0.0,0.0,0.0,0.0,0.0,0.0,0.0,0.0,0.0,0.0,0.0,0.0,-3.8193,-4.0642,-4.315,-4.3672,-4.2086,-4.1912,-3.9516,0.0,0.0,0.0,0.0,0.0,0.0,0.0,0.0,0.0,0.0,0.0,0.0,0.0,0.0,0.0,0.0,0.0,0.0,0.0,0.0,0.0,0.0,0.0,0.0,0.0,0.0,0.0,0.0,0.0,0.0,0.0,0.0,0.0,0.0,0.0,0.0,0.0,0.0,0.0,0.0,0.0,0.0,0.0,0.0,0.0,0.0,0.0,0.0,0.0,0.0,0.0,0.0,0.0,0.0,0.0,0.0,0.0,0.0,0.0,0.0,0.0,0.0,0.0,0.0,0.0,0.0,0.0,0.0,0.0,0.0,0.0,0.0,0.0,0.0,0.0,0.0,0.0,0.0,0.0,0.0,0.0,0.0,0.0,0.0,0.0,0.0,0.0,0.0,0.0,0.0,0.0,0.0,0.0,0.0,0.0,0.0,0.0,0.0,0.0,0.0,0.0,0.0,0.0,0.0,0.0,0.0,0.0,0.0,-3.8504,-3.9771,-4.226,-4.3073,-4.2028,-4.139,-3.8655,0.0,0.0,0.0,0.0,0.0,0.0,0.0,0.0,0.0,0.0,0.0,0.0,0.0,0.0,0.0,0.0,0.0,0.0,0.0,0.0,0.0,0.0,0.0,0.0,0.0,0.0,0.0,0.0,0.0,0.0,0.0,0.0,0.0,0.0,0.0,0.0,0.0,0.0,0.0,0.0,0.0,0.0,0.0,0.0,0.0,0.0,0.0,0.0,-3.4862,0.0,0.0,0.0,0.0,0.0,0.0,0.0,0.0,0.0,0.0,0.0,0.0,0.0,0.0,0.0,0.0,0.0,0.0,0.0,0.0,0.0,0.0,0.0,0.0,0.0,0.0,0.0,0.0,0.0,0.0,0.0,0.0,0.0,0.0,0.0,0.0,0.0,0.0,0.0,0.0,0.0,0.0,0.0,0.0,0.0,0.0,0.0,0.0,0.0,0.0,0.0,0.0,0.0,0.0,0.0,0.0,0.0,0.0,0.0,-3.8762,-4.0056,-4.1789,-4.2473,-4.199,-4.081,-3.8166,0.0,0.0,0.0,0.0,0.0,0.0,0.0,0.0,0.0,0.0,0.0,0.0,0.0,0.0,0.0,0.0,0.0,0.0,0.0,0.0,0.0,0.0,0.0,0.0,0.0,0.0,0.0,0.0,0.0,0.0,0.0,0.0,0.0,0.0,0.0,0.0,0.0,0.0,0.0,0.0,0.0,0.0,0.0,0.0,0.0,0.0,0.0,0.0,0.0,0.0,0.0,0.0,0.0,0.0,0.0,0.0,0.0,0.0,0.0,0.0,0.0,0.0,0.0,0.0,0.0,0.0,0.0,0.0,0.0,0.0,0.0,0.0,0.0,0.0,0.0,0.0,0.0,0.0,0.0,0.0,0.0,0.0,0.0,0.0,0.0,0.0,0.0,0.0,0.0,0.0,0.0,0.0,0.0,0.0,0.0,0.0,0.0,0.0,0.0,0.0,0.0,0.0,0.0,0.0,0.0,0.0,0.0,-3.5875,-3.8672,-4.061,-4.1408,-4.1789,-4.177,-4.0301,-3.787,-3.4549,0.0,0.0,0.0,0.0,0.0,0.0,0.0,0.0,0.0,0.0,0.0,0.0,0.0,0.0,0.0,0.0,0.0,0.0,0.0,0.0,0.0,0.0,0.0,0.0,0.0,0.0,0.0,0.0,0.0,0.0,0.0,0.0,0.0,0.0,0.0,0.0,0.0,0.0,-2.8004,-3.0529,0.0,0.0,0.0,0.0,0.0,0.0,0.0,0.0,-3.409,0.0,0.0,0.0,0.0,0.0,0.0,0.0,0.0,0.0,0.0,0.0,0.0,0.0,0.0,0.0,0.0,0.0,0.0,0.0,0.0,0.0,0.0,0.0,0.0,0.0,0.0,0.0,0.0,0.0,0.0,0.0,0.0,0.0,0.0,0.0,0.0,0.0,0.0,0.0,0.0,0.0,0.0,0.0,0.0,0.0,0.0,0.0,0.0,0.0,0.0,0.0,0.0,0.0,0.0,0.0,0.0,-3.4815,-3.5573,-3.7462,-4.0524,-4.0756,-4.0847,-4.09,-3.9934,-3.7821,-3.4568,0.0,0.0,0.0,0.0,0.0,0.0,0.0,0.0,0.0,0.0,0.0,0.0,0.0,0.0,0.0,0.0,0.0,0.0,0.0,0.0,0.0,0.0,0.0,0.0,0.0,0.0,0.0,0.0,0.0,0.0,0.0,0.0,0.0,0.0,0.0,0.0,0.0,0.0,0.0,-3.2951,-3.4726,0.0,0.0,0.0,0.0,0.0,0.0,0.0,0.0,-3.3506,0.0,0.0,0.0,0.0,0.0,0.0,0.0,0.0,0.0,0.0,0.0,0.0,0.0,0.0,0.0,0.0,0.0,0.0,0.0,0.0,0.0,0.0,0.0,0.0,0.0,0.0,0.0,0.0,0.0,0.0,0.0,0.0,0.0,0.0,0.0,0.0,0.0,0.0,0.0,0.0,0.0,0.0,0.0,0.0,0.0,0.0,0.0,0.0,0.0,0.0,0.0,0.0,0.0,0.0,0.0,-3.3455,-3.5226,-3.7345,-3.9807,-3.9525,-3.9327,-3.9303,-3.7681,-3.5377,0.0,0.0,0.0,0.0,0.0,0.0,0.0,0.0,0.0,0.0,0.0,0.0,0.0,0.0,0.0,0.0,0.0,0.0,0.0,0.0,0.0,0.0,0.0,0.0,0.0,0.0,0.0,0.0,0.0,0.0,0.0,0.0,0.0,0.0,0.0,0.0,0.0,0.0,0.0,0.0,-3.3767,-3.5332,-3.5984,0.0,0.0,0.0,0.0,0.0,0.0,-3.4579,-3.4317,0.0,0.0,0.0,0.0,0.0,0.0,0.0,0.0,0.0,0.0,0.0,0.0,0.0,0.0,0.0,0.0,0.0,0.0,0.0,0.0,0.0,0.0,0.0,0.0,0.0,0.0,0.0,0.0,0.0,0.0,0.0,0.0,0.0,0.0,0.0,0.0,0.0,0.0,0.0,0.0,0.0,0.0,0.0,0.0,0.0,0.0,0.0,0.0,0.0,0.0,0.0,0.0,0.0,0.0,0.0,-3.1756,-3.468,-3.7118,-3.8917,-3.825,-3.7808,-3.7784,-3.5701,-3.3277,0.0,0.0,0.0,0.0,0.0,0.0,0.0,0.0,0.0,0.0,0.0,0.0,0.0,0.0,0.0,0.0,0.0,0.0,0.0,0.0,0.0,0.0,0.0,0.0,0.0,0.0,0.0,0.0,0.0,0.0,0.0,0.0,0.0,0.0,0.0,0.0,0.0,0.0,0.0,0.0,0.0,-3.601,-3.6484,-3.6768,0.0,0.0,0.0,0.0,-3.5171,-3.5555,0.0,0.0,0.0,0.0,0.0,0.0,0.0,0.0,0.0,0.0,0.0,0.0,0.0,0.0,0.0,0.0,0.0,0.0,0.0,0.0,0.0,0.0,0.0,0.0,0.0,0.0,0.0,0.0,0.0,0.0,0.0,0.0,0.0,0.0,0.0,0.0,0.0,0.0,0.0,0.0,0.0,0.0,0.0,0.0,0.0,0.0,0.0,0.0,0.0,0.0,0.0,0.0,0.0,0.0,0.0,0.0,-3.166,-3.3545,-3.5687,-3.7976,-3.7315,-3.6901,-3.6941,-3.592,-3.3832,0.0,0.0,0.0,0.0,0.0,0.0,0.0,0.0,0.0,0.0,0.0,0.0,0.0,0.0,0.0,0.0,0.0,0.0,0.0,0.0,0.0,0.0,0.0,0.0,0.0,0.0,0.0,0.0,0.0,0.0,0.0,0.0,0.0,0.0,0.0,0.0,0.0,0.0,0.0,0.0,0.0,-3.7822,-3.659,-3.7132,-3.7709,0.0,0.0,-3.6052,-3.6692,-3.6297,0.0,0.0,0.0,0.0,0.0,0.0,0.0,0.0,0.0,0.0,0.0,0.0,0.0,0.0,0.0,0.0,0.0,0.0,0.0,0.0,0.0,0.0,0.0,0.0,0.0,0.0,0.0,0.0,0.0,0.0,0.0,0.0,0.0,0.0,0.0,0.0,0.0,0.0,0.0,0.0,0.0,0.0,0.0,0.0,0.0,0.0,0.0,0.0,0.0,0.0,0.0,0.0,0.0,0.0,0.0,-2.9107,-3.0262,-3.2359,-3.4244,-3.5738,-3.4988,-3.4571,-3.4591,-3.3301,-3.1478,0.0,0.0,0.0,0.0,0.0,0.0,0.0,0.0,0.0,0.0,0.0,0.0,0.0,0.0,0.0,0.0,0.0,0.0,0.0,0.0,0.0,0.0,0.0,0.0,0.0,0.0,0.0,0.0,0.0,0.0,0.0,0.0,0.0,0.0,0.0,0.0,0.0,0.0,0.0,0.0,0.0,0.0,-3.7765,-3.8626,0.0,0.0,0.0,-3.7747,-3.7191,0.0,0.0,0.0,0.0,0.0,0.0,0.0,0.0,0.0,0.0,0.0,0.0,0.0,0.0,0.0,0.0,0.0,0.0,0.0,0.0,0.0,0.0,0.0,0.0,0.0,0.0,0.0,0.0,0.0,0.0,0.0,0.0,0.0,0.0,0.0,0.0,0.0,0.0,0.0,0.0,0.0,0.0,0.0,0.0,0.0,0.0,0.0,0.0,0.0,0.0,0.0,0.0,0.0,0.0,0.0,0.0,0.0,-2.9052,-3.1488,-3.3079,-3.3681,-3.2907,-3.2479,-3.25,-3.106,0.0,0.0,0.0,0.0,0.0,0.0,0.0,0.0,0.0,0.0,0.0,0.0,0.0,0.0,0.0,0.0,0.0,0.0,0.0,0.0,0.0,0.0,0.0,0.0,0.0,0.0,0.0,-2.3146,0.0,0.0,0.0,0.0,0.0,0.0,0.0,0.0,0.0,0.0,0.0,0.0,0.0,0.0,-3.7232,-3.8375,-3.9509,-4.01,0.0,0.0,-3.8796,-3.7583,-3.7234,-3.6264,0.0,0.0,0.0,0.0,0.0,0.0,0.0,0.0,0.0,0.0,0.0,0.0,0.0,0.0,0.0,0.0,0.0,0.0,0.0,0.0,0.0,0.0,0.0,0.0,0.0,0.0,0.0,0.0,0.0,0.0,0.0,0.0,0.0,0.0,0.0,0.0,0.0,0.0,0.0,0.0,0.0,0.0,0.0,0.0,0.0,0.0,0.0,0.0,0.0,0.0,0.0,0.0,0.0,0.0,0.0,-2.8814,-3.1165,-3.2446,-3.2484,-3.167,-3.1305,-3.1487,-3.0491,-2.9296,0.0,0.0,0.0,0.0,0.0,0.0,0.0,0.0,0.0,0.0,0.0,0.0,0.0,0.0,0.0,0.0,0.0,0.0,0.0,0.0,0.0,0.0,0.0,0.0,0.0,0.0,0.0,0.0,0.0,0.0,0.0,0.0,0.0,0.0,0.0,0.0,0.0,0.0,0.0,0.0,0.0,-3.8273,-3.76,-3.9003,-4.0139,0.0,0.0,-3.8193,-3.8223,-3.7579,-3.6223,-3.3728,0.0,0.0,0.0,0.0,0.0,0.0,0.0,0.0,0.0,0.0,0.0,0.0,0.0,0.0,0.0,0.0,0.0,0.0,0.0,0.0,0.0,0.0,0.0,0.0,0.0,0.0,0.0,0.0,0.0,0.0,0.0,0.0,0.0,0.0,0.0,0.0,0.0,0.0,0.0,0.0,0.0,0.0,0.0,0.0,0.0,0.0,0.0,0.0,0.0,0.0,0.0,0.0,0.0,-2.7885,-2.7922,-2.9853,-3.0877,-3.0839,-3.0528,-3.04,-3.0472,-3.0094,-2.9167,0.0,0.0,0.0,0.0,0.0,0.0,0.0,0.0,0.0,0.0,0.0,0.0,0.0,0.0,0.0,0.0,0.0,0.0,0.0,0.0,0.0,0.0,0.0,0.0,0.0,0.0,0.0,0.0,-2.5155,-2.5174,-2.5022,0.0,0.0,0.0,0.0,0.0,0.0,0.0,0.0,0.0,0.0,-3.8148,-3.8831,-3.9173,0.0,0.0,-3.9358,-3.8604,-3.8233,-3.7011,-3.5631,-3.4264,-3.3195,0.0,0.0,0.0,0.0,0.0,0.0,0.0,0.0,0.0,0.0,0.0,0.0,0.0,0.0,0.0,0.0,0.0,0.0,0.0,0.0,0.0,0.0,0.0,0.0,0.0,0.0,0.0,0.0,0.0,0.0,0.0,0.0,0.0,0.0,0.0,0.0,0.0,0.0,0.0,0.0,0.0,0.0,0.0,0.0,0.0,0.0,0.0,0.0,0.0,0.0,0.0,0.0,-2.7245,-2.7245,-2.8885,-2.9734,-2.9753,-2.9753,-2.976,-2.9811,-2.9523,-2.886,0.0,0.0,0.0,0.0,0.0,0.0,0.0,0.0,0.0,0.0,0.0,0.0,0.0,0.0,0.0,0.0,0.0,0.0,0.0,0.0,0.0,0.0,0.0,0.0,0.0,0.0,0.0,0.0,-2.5648,-2.571,-2.5319,0.0,0.0,0.0,0.0,0.0,0.0,0.0,0.0,0.0,0.0,-3.8216,-3.938,-3.9143,-3.8966,-3.9309,-3.8742,-3.8131,-3.7718,-3.6607,-3.5482,-3.4589,0.0,0.0,0.0,0.0,0.0,0.0,0.0,0.0,0.0,0.0,0.0,0.0,0.0,0.0,0.0,0.0,0.0,0.0,0.0,0.0,0.0,0.0,0.0,0.0,0.0,0.0,0.0,0.0,0.0,0.0,0.0,0.0,0.0,0.0,0.0,0.0,0.0,0.0,0.0,0.0,0.0,0.0,0.0,0.0,0.0,0.0,0.0,0.0,0.0,0.0,0.0,0.0,0.0,-2.6907,-2.6944,-2.8572,-2.9409,-2.9409,-2.9399,-2.9463,-2.9579,-2.867,-2.8269,-2.8528,0.0,0.0,0.0,0.0,0.0,0.0,0.0,0.0,0.0,0.0,0.0,0.0,0.0,0.0,0.0,0.0,0.0,0.0,0.0,0.0,0.0,0.0,0.0,0.0,0.0,0.0,-2.6145,-2.5477,-2.5263,0.0,0.0,0.0,0.0,0.0,0.0,0.0,0.0,0.0,0.0,-3.8121,-3.8671,-3.8727,-3.8719,-3.8448,-3.7832,-3.7069,-3.6549,-3.6704,-3.6569,-3.6,0.0,0.0,0.0,0.0,0.0,0.0,0.0,0.0,0.0,0.0,0.0,0.0,0.0,0.0,0.0,0.0,0.0,0.0,0.0,0.0,0.0,0.0,0.0,0.0,0.0,0.0,0.0,-2.6591,-2.6108,0.0,0.0,0.0,0.0,0.0,0.0,0.0,0.0,0.0,0.0,0.0,-2.7596,-2.8574,0.0,0.0,0.0,0.0,0.0,0.0,0.0,0.0,0.0,0.0,0.0,0.0,-2.6888,-2.6962,-2.8542,-2.9388,-2.9388,-2.9388,-2.9419,-2.9443,-2.914,-2.8742,-2.8269,0.0,0.0,0.0,0.0,0.0,0.0,0.0,0.0,0.0,0.0,0.0,0.0,0.0,0.0,0.0,0.0,0.0,0.0,0.0,0.0,0.0,0.0,0.0,0.0,0.0,-2.6057,0.0,0.0,0.0,0.0,0.0,0.0,0.0,0.0,0.0,0.0,0.0,-3.6505,-3.7062,-3.8034,-3.8709,-3.8709,-3.8197,-3.8141,0.0,0.0,0.0,0.0,0.0,0.0,0.0,0.0,0.0,0.0,0.0,0.0,0.0,0.0,-3.4526,-3.2295,-3.1246,-3.0869,-3.1413,0.0,0.0,0.0,0.0,0.0,0.0,0.0,0.0,0.0,0.0,0.0,0.0,0.0,0.0,0.0,0.0,-2.7406,0.0,0.0,0.0,0.0,0.0,0.0,0.0,0.0,-2.906,-2.9331,-2.8488,-2.9465,-2.952,0.0,-2.8625,-2.7727,0.0,0.0,0.0,0.0,0.0,0.0,0.0,0.0,-2.696,-2.7321,-2.8639,-2.9326,-2.9326,-2.9365,-2.9355,-2.9326,-2.9365,-2.8967,-2.8114,-2.7594,-2.6944,0.0,0.0,0.0,0.0,0.0,0.0,0.0,0.0,0.0,0.0,0.0,0.0,0.0,0.0,0.0,0.0,0.0,0.0,0.0,0.0,0.0,0.0,0.0,-2.625,0.0,0.0,0.0,0.0,0.0,0.0,0.0,0.0,0.0,-3.3796,-3.5807,-3.7417,-3.7826,-3.8516,-3.8896,-3.8717,0.0,0.0,0.0,0.0,0.0,0.0,0.0,-3.7271,-3.7653,-3.7077,-3.6856,-3.7837,-3.8067,-3.8131,-3.8125,0.0,0.0,-3.4027,-3.2992,-3.2597,-3.3121,-3.3701,-3.4101,-3.4101,-3.4548,-3.4703,0.0,0.0,0.0,0.0,0.0,0.0,0.0,0.0,-2.8136,-2.8576,0.0,-2.8437,0.0,0.0,0.0,0.0,0.0,0.0,0.0,0.0,-3.0264,-3.045,-2.9486,-2.949,-2.9019,-2.829,-2.9273,-2.8944,-2.7489,-2.698,0.0,0.0,0.0,0.0,0.0,0.0,-2.7155,-2.7975,-2.8783,-2.9207,-2.9218,-2.9262,-2.9262,-2.92,-2.9262,-2.8944,-2.8197,-2.8142,-2.7751,-2.6953,-2.6182,0.0,0.0,0.0,0.0,0.0,0.0,0.0,0.0,0.0,0.0,0.0,0.0,0.0,0.0,0.0,0.0,0.0,0.0,0.0,0.0,-2.6742,0.0,0.0,0.0,0.0,0.0,0.0,0.0,0.0,0.0,0.0,-3.5462,-3.6806,-3.8202,-3.9233,0.0,0.0,0.0,0.0,-3.8395,-3.7627,-3.7504,-3.7514,-3.7533,-3.8178,-3.8457,-3.7804,0.0,0.0,-3.8,-3.7879,-3.7947,-3.801,-3.7376,-3.6774,-3.6783,-3.6037,-3.5568,-3.5587,-3.56,-3.5767,-3.5771,-3.5646,-3.5471,-3.2535,0.0,0.0,0.0,0.0,-3.062,-3.1036,-3.1574,-3.1506,-3.1268,-3.0935,-3.0098,0.0,0.0,0.0,0.0,0.0,0.0,-2.9471,-2.9919,-3.1009,-3.1019,-3.0204,-3.077,-3.0609,-2.9837,-2.9554,-2.9205,-2.8725,-2.806,-2.6939,-2.5469,0.0,0.0,0.0,0.0,-2.7754,-2.8012,-2.8772,-2.9207,-2.9207,-2.9229,-2.9229,-2.9207,-2.9211,-2.9129,-2.8881,-2.8798,-2.8375,-2.7572,-2.7105,0.0,0.0,0.0,0.0,0.0,0.0,0.0,0.0,0.0,0.0,0.0,0.0,0.0,0.0,0.0,0.0,0.0,0.0,0.0,-2.6468,-2.657,-2.6965,0.0,0.0,0.0,0.0,0.0,0.0,0.0,0.0,0.0,-3.6342,-3.7564,-3.8287,0.0,0.0,-3.8231,-3.8084,-3.8201,-3.8481,-3.8839,0.0,0.0,0.0,-3.8906,-3.8833,-3.9187,-3.9536,-3.9691,-3.948,-3.9513,-3.9408,-3.8881,-3.8093,-3.7355,-3.6877,-3.6217,-3.5725,-3.5711,-3.5722,-3.5732,-3.5732,-3.5732,-3.5654,-3.4669,-3.3156,-3.2853,-3.2504,-3.2221,-3.2513,-3.2723,-3.2871,-3.281,-3.26,-3.2296,-3.1463,-3.0453,-2.9335,-2.8536,0.0,0.0,0.0,-3.0386,-3.0712,-3.1537,-3.1455,-3.064,-3.0744,-3.0425,-2.9647,-2.8992,-2.8678,-2.866,-2.8279,-2.7384,-2.6068,0.0,0.0,-2.6106,-2.7061,-2.7729,-2.805,-2.853,-2.8779,-2.8767,-2.8767,-2.8791,-2.8832,-2.8815,-2.8815,-2.885,-2.8767,-2.8512,-2.8027,-2.7477,-2.6634,0.0,0.0,0.0,0.0,0.0,0.0,0.0,0.0,0.0,0.0,0.0,-2.4935,-2.4353,0.0,0.0,0.0,-2.6123,-2.7145,-2.7604,-2.8184,0.0,0.0,0.0,0.0,0.0,0.0,0.0,-3.5725,-3.6194,-3.6588,-3.7176,-3.7863,-3.8198,-3.7909,-3.8015,-3.8155,-3.8261,0.0,-3.8707,-3.9225,-3.9544,-3.9728,-3.9747,-3.944,-3.9361,-3.9805,-3.9967,-3.9887,-3.9593,-3.9624,-3.9508,-3.9026,-3.8059,-3.7231,-3.7202,-3.6317,-3.5584,-3.5673,-3.5704,-3.5704,-3.5704,-3.5704,-3.5704,-3.5745,-3.5222,-3.449,-3.3688,-3.2992,-3.359,-3.3411,-3.2744,-3.2648,-3.2858,-3.3219,-3.248,-3.1928,-3.1446,-3.0775,0.0,0.0,-3.1244,-3.1442,-3.1198,-3.1934,-3.1708,-3.0697,-2.9886,-2.9127,-2.8385,-2.7906,-2.7672,-2.7704,-2.7926,-2.7664,-2.6948,-2.693,-2.6921,-2.689,-2.6956,-2.7362,-2.808,-2.8116,-2.8102,-2.8102,-2.8102,-2.8152,-2.8267,-2.8219,-2.8206,-2.8285,-2.8272,-2.8272,-2.8254,-2.7538,-2.6754,-2.596,0.0,0.0,0.0,0.0,0.0,0.0,0.0,0.0,0.0,0.0,0.0,0.0,0.0,0.0,0.0,-2.8337,0.0,-2.9687,-3.0903,0.0,0.0,0.0,-3.2353,-3.3265,-3.4606,-3.5804,-3.6678,0.0,0.0,0.0,0.0,-3.8054,-3.8476,-3.8538,-3.8643,-3.8882,-3.8887,-3.8966,-3.8966,-3.9248,-3.9464,-3.9471,-3.9632,-3.981,-3.987,-3.99,-3.9627,-3.8947,-3.8757,-3.8781,-3.8585,-3.7413,-3.6599,-3.7433,-3.6239,-3.5348,-3.5602,-3.5668,-3.5679,-3.5704,-3.5704,-3.5704,-3.5942,-3.5233,-3.5119,-3.4633,-3.3822,-3.3403,-3.3114,-3.2936,-3.2862,-3.2877,-3.2927,-3.2112,-3.1341,-3.0686,-3.0863,-3.0926,-3.0979,-3.1516,-3.1705,-3.1651,-3.1824,-3.1477,-3.0679,-2.9868,-2.911,-2.8385,-2.7706,-2.739,-2.739,-2.7467,-2.7394,-2.7204,-2.7187,-2.7096,-2.693,-2.75,-2.7924,-2.8102,-2.8102,-2.8102,-2.8102,-2.8102,-2.8112,-2.8139,-2.8143,-2.8143,-2.8139,-2.8065,-2.7992,-2.7978,-2.7624,-2.7055,-2.6318,-2.5491,0.0,0.0,0.0,0.0,0.0,0.0,0.0,0.0,0.0,-2.6043,-2.4783,0.0,-2.6898,0.0,-2.9283,-3.077,-3.1954,-3.1849,0.0,0.0,-3.39,-3.4328,-3.6274,-3.6309,-3.6488,-3.7292,-3.7524,-3.7649,-3.7739,-3.7757,-3.7828,-3.8019,-3.8053,-3.8086,-3.8216,-3.8473,-3.8628,-3.8703,-3.8929,-3.9122,-3.9112,-3.9377,-3.9621,-3.9848,-3.987,-3.9616,-3.8831,-3.8709,-3.8331,-3.7147,-3.6558,-3.6159,-3.5866,-3.5376,-3.5242,-3.5348,-3.5463,-3.5584,-3.5673,-3.5704,-3.5704,-3.4996,-3.4639,-3.4058,-3.3723,-3.3616,-3.3491,-3.3241,-3.2919,-3.2872,-3.2779,-3.2599,-3.1944,-3.1457,-3.1037,-3.1272,-3.1429,-3.1429,-3.1684,-3.18,-3.18,-3.18,-3.1576,-3.1145,-3.0403,-2.9627,-2.8885,-2.8127,-2.7627,-2.7282,-2.6937,-2.6782,-2.6764,-2.6764,-2.669,-2.6578,-2.7323,-2.7742,-2.7742,-2.7742,-2.776,-2.7742,-2.7742,-2.776,-2.776,-2.7742,-2.7742,-2.7742,-2.7689,-2.7469,-2.7105,-2.6941,-2.6539,-2.5808,-2.5363,-2.4941,0.0,0.0,0.0,0.0,0.0,0.0,0.0,0.0,0.0,0.0,0.0,-2.8548,0.0,-3.1492,0.0,-3.3847,-3.4185,-3.4864,-3.6131,-3.5917,-3.6167,-3.7488,-3.7202,-3.7113,-3.7559,-3.7595,-3.7613,-3.7631,-3.7649,-3.7685,-3.7757,-3.7775,-3.781,-3.7951,-3.8121,-3.8254,-3.8267,-3.8499,-3.8619,-3.8414,-3.8221,-3.8209,-3.8454,-3.8519,-3.826,-3.7565,-3.7397,-3.7085,-3.6216,-3.5725,-3.55,-3.539,-3.5088,-3.4936,-3.5094,-3.5192,-3.534,-3.5553,-3.5608,-3.562,-3.3554,-3.3699,-3.2352,-3.2179,-3.2805,-3.3441,-3.3306,-3.2684,-3.2666,-3.252,-3.2214,-3.1912,-3.18,-3.18,-3.18,-3.18,-3.18,-3.18,-3.18,-3.18,-3.18,-3.18,-3.1765,-3.0938,-3.0179,-2.9472,-2.8644,-2.7937,-2.7299,-2.6592,-2.6197,-2.6111,-2.6197,-2.6212,-2.6128,-2.6902,-2.7315,-2.7315,-2.7315,-2.7315,-2.7315,-2.7315,-2.7315,-2.7315,-2.7315,-2.7315,-2.7315,-2.7315,-2.6971,-2.6316,-2.6264,-2.5956,-2.5333,-2.5195,-2.5201,0.0,-2.5316,0.0,0.0,0.0,0.0,0.0,0.0,0.0,0.0,-2.9718,-3.057,-3.201,-3.4187,-3.549,-3.5525,-3.6774,-3.7595,-3.7595,-3.7595,-3.7595,-3.7595,-3.7595,-3.7595,-3.7595,-3.7595,-3.7595,-3.7595,-3.7595,-3.7595,-3.7613,-3.7613,-3.7685,-3.7828,-3.7881,-3.7898,-3.7881,-3.7994,-3.788,-3.7429,-3.6842,-3.653,-3.6732,-3.6883,-3.6509,-3.5976,-3.5848,-3.5754,-3.5589,-3.5093,-3.4867,-3.5533,-3.5055,-3.4697,-3.4841,-3.486,-3.5015,-3.535,-3.549,-3.554,-3.2703,-3.2196,-3.1921,-3.1886,-3.2025,-3.2155,-3.2123,-3.1984,-3.1984,-3.1965,-3.1893,-3.1837,-3.18,-3.18,-3.18,-3.18,-3.18,-3.18,-3.18,-3.18,-3.18,-3.18,-3.1714,-3.0368,-2.9661,-2.942,-2.8144,-2.7437,-2.7315,-2.7144,-2.673,-2.6128,-2.6747,-2.6747,0.0,0.0,0.0,0.0,-2.7315,-2.7315,-2.7315,-2.7315,-2.7315,-2.7315,-2.7315,0.0,-2.7315,-2.7315,-2.723,-2.7092,-2.7075,0.0,0.0,0.0,0.0,0.0,0.0,0.0,0.0,0.0,0.0,0.0,-2.947,-2.929,-2.9011,-3.1389,-3.3414,-3.4473,-3.6114,-3.7148,-3.7166,-3.7416,-3.7595,-3.7595,-3.7595,-3.7595,-3.7595,-3.7595,-3.7595,-3.7595,-3.7595,-3.7595,-3.7595,-3.7595,-3.7595,-3.7595,-3.7595,-3.7631,-3.7631,-3.7667,-3.7757,-3.7845,-3.7338,-3.6836,-3.6379,-3.6109,-3.5991,-3.6384,-3.6478,-3.6196,-3.564,-3.552,-3.5336,-3.4952,-3.4706,-3.461,-3.4808,-3.4706,-3.4537,-3.4639,-3.463,-3.4783,-3.5243,-3.5404,-3.5496,-3.2145,0.0,-3.18,-3.18,0.0,-3.18,-3.18,-3.18,-3.18,-3.18,-3.18,-3.18,-3.18,-3.18,-3.18,-3.18,-3.18,-3.18,-3.18,-3.1783,-3.1403,-3.1213,-3.1125,-3.0023,-2.93,-2.8887,-2.8179,-2.7644,-2.7282,-2.6902,-2.6506,-2.6094,-2.6506,-2.6506,-2.6128,-2.6885,-2.7315,-2.7315,-2.7315,-2.7315,-2.7315,-2.7315,-2.7315,-2.7315,0.0,0.0,0.0,0.0,0.0,0.0,0.0,0.0,0.0,0.0,0.0,-2.6678,-2.704,-2.7261,-2.7393,-2.8759,-2.9849,-3.0316,-3.0698,-3.0958,-3.1093,-3.3037,-3.4747,-3.5968,-3.6855,-3.7353,-3.7447,-3.7372,-3.7373,-3.7558,-3.7503,-3.7484,-3.7594,-3.7595,-3.7595,-3.7595,-3.7595,-3.7595,-3.7595,-3.7595,-3.7595,-3.7577,-3.7238,-3.7006,-3.7024,-3.7024,-3.697,-3.6593,-3.593,-3.5352,-3.5065,-3.4674,-3.4567,-3.4746,-3.4818,-3.477,-3.461,-3.4544,-3.448,-3.4284,-3.4257,-3.4269,-3.4337,-3.4098,-3.3822,-3.384,-3.3599,-3.3412,-3.3683,-3.417,-3.4569,-3.18,-3.18,-3.18,-3.18,-3.18,-3.18,-3.18,-3.18,0.0,0.0,0.0,-3.18,-3.18,-3.18,-3.18,-3.18,-3.18,-3.1781,-3.1781,-3.1748,-3.1006,-3.059,-3.0468,-2.9661,-2.8939,-2.8287,-2.8232,-2.7885,-2.7249,-2.6594,-2.6232,-2.6111,-2.6199,-2.6239,-2.6258,-2.686,-2.7202,-2.7218,-2.7266,-2.7315,-2.7315,-2.7315,-2.7315,-2.7315,-2.7315,-2.7315,-2.7315,-2.7315,-2.6973,-2.6256,-2.6222,-2.6224,-2.616,-2.616,-2.6503,-2.7292,-2.8013,-2.8493,-2.8647,-2.9917,-3.0742,-3.0797,-3.1309,-3.2199,-3.3544,-3.4264,-3.5301,-3.6884,-3.6989,-3.7046,-3.7126,-3.6989,-3.7009,-3.728,-3.7164,-3.7108,-3.728,-3.7337,-3.7281,-3.7337,-3.7299,-3.7355,-3.73,-3.73,-3.7304,-3.7182,-3.6683,-3.6168,-3.6042,-3.6078,-3.5917,-3.5221,-3.4667,-3.415,-3.3846,-3.3468,-3.2997,-3.327,-3.3265,-3.3235,-3.3444,-3.3516,-3.3615,-3.3865,-3.375,-3.3707,-3.3821,-3.327,-3.2816,-3.2903,-3.2451,-3.1923,-3.1904,-3.2456,-3.311,-3.18,-3.18,-3.18,-3.18,-3.18,-3.18,-3.18,-3.18,-3.18,-3.18,-3.18,-3.18,-3.18,-3.18,-3.18,-3.18,-3.18,-3.1671,-3.169,0.0,-3.0862,-3.0464,-3.0416,-2.9111,-2.8339,-2.8117,-2.77,-2.7353,-2.7135,-2.7014,-2.6669,-2.6218,-2.6625,-2.6771,-2.6639,-2.6741,-2.6808,-2.6874,-2.717,-2.7315,-2.7315,-2.7315,-2.7315,-2.7315,-2.7299,-2.7315,-2.7315,-2.7299,-2.7101,-2.6721,-2.6704,-2.6589,-2.6387,-2.6353,-2.6689,-2.7445,-2.8169,-2.8841,-2.9479,-3.032,-3.0912,-3.1162,-3.1052,-3.1893,-3.4055,-3.4375,-3.5149,-3.6757,-3.693,-3.6853,-3.6577,-3.6495,-3.6374,-3.6211,-3.6126,-3.6105,-3.619,-3.6291,-3.6354,-3.6374,-3.6357,-3.6422,-3.6391,-3.6408,-3.6289,-3.6038,-3.5692,-3.5434,-3.4763,-3.4972,-3.5008,-3.4454,-3.4187,-3.3812,-3.3311,-3.3025,-3.286,-3.2948,-3.2874,-3.2845,-3.3039,-3.3066,-3.3172,-3.3532,-3.3022,-3.2737,-3.2845,-3.2269,-3.1892,-3.1938,-3.1779,-3.1492,-3.094,-3.1019,-3.1395,-3.18,-3.1781,-3.1727,-3.1727,-3.18,-3.1727,-3.169,-3.169,-3.1651,-3.1707,-3.18,-3.18,-3.1763,-3.169,-3.169,-3.1653,-3.1632,-3.1559,-3.1353,-3.0999,-3.0154,-2.9535,-2.9075,-2.8083,-2.7553,-2.7436,-2.7244,-2.7122,-2.7023,-2.6825,-2.6572,-2.6284,-2.6337,-2.6315,-2.6211,-2.6211,-2.6229,-2.6264,-2.6775,-2.7104,-2.7282,-2.7121,-2.7039,-2.7039,-2.6891,-2.6825,-2.6808,-2.6792,-2.6742,-2.659,-2.6573,-2.6539,-2.6401,-2.6786,-2.7136,-2.7504,-2.8576,-2.9345,-2.968,-3.0403,-3.0865,-3.1004,-3.0868,-3.1608,-3.3485,-3.3646,-3.4301,-3.584,-3.6049,-3.6011,-3.5895,-3.5803,-3.5776,-3.589,-3.5781,-3.5742,-3.5868,-3.595,-3.5994,-3.5994,-3.5998,-3.5887,-3.5479,-3.5444,-3.5215,-3.4733,-3.4341,-3.3835,-3.3229,-3.3404,-3.363,-3.3476,-3.3437,-3.3328,-3.2953,-3.2507,-3.2293,-3.2257,-3.1867,-3.1681,-3.1733,-3.1766,-3.1869,-3.2067,-3.1815,-3.1697,-3.184,-3.1237,-3.0882,-3.0895,-3.0572,-3.0206,-2.9967,-2.9965,-3.0331,-3.1709,-3.1726,-3.1615,-3.1634,-3.1726,-3.1615,-3.1578,-3.1578,-3.1519,-3.1593,-3.1707,-3.1744,-3.1671,-3.1596,-3.156,-3.1473,-3.1259,-3.1111,-3.0702,-2.9972,-2.9045,-2.8295,-2.7703,-2.7029,-2.6674,-2.6606,-2.6674,-2.6708,-2.6657,-2.6383,-2.6227,-2.6191,-2.5908,-2.5744,-2.5672,-2.5654,-2.5691,-2.5711,-2.6079,-2.6488,-2.7006,-2.6775,-2.6657,-2.6708,-2.6487,-2.6366,-2.6401,-2.6366,-2.6314,-2.6314,-2.6314,-2.6362,-2.6492,-2.7022,-2.7435,-2.7852,-2.8865,-2.9563,-2.9746,-3.0264,-3.0621,-3.0683,-3.0771,-3.142,-3.2684,-3.2984,-3.3628,-3.4927,-3.5247,-3.526,-3.5289,-3.5207,-3.5207,-3.5448,-3.5317,-3.5226,-3.5448,-3.5515,-3.5537,-3.5554,-3.5577,-3.5289,-3.4684,-3.4486,-3.4156,-3.3397,-3.2769,-3.2352,-3.2142,-3.2109,-3.2266,-3.2504,-3.2753,-3.2918,-3.2846,-3.2242,-3.1829,-3.1689,-3.1064,-3.0743,-3.0633,-3.0564,-3.0588,-3.0865,-3.0692,-3.0663,-3.0755,-3.0206,-2.9813,-2.9879,-2.9559,-2.9181,-2.9365,-2.945,-2.9626,-3.1519,-3.1519,-3.1517,-3.15,-3.15,-3.1517,-3.1481,-3.1498,-3.1481,-3.1498,-3.1462,-3.1517,-3.1498,-3.15,-3.15,-3.1105,-3.0506,-2.9991,-2.9434,-2.8749,-2.7457,-2.6869,-2.6852,-2.6178,-2.5758,-2.5705,-2.5872,-2.5943,-2.5868,-2.5793,-2.5703,-2.5612,-2.5666,-2.5535,-2.5272,-2.5253,-2.531,-2.5408,-2.4887,-2.5142,-2.6125,-2.6158,-2.6262,-2.6435,-2.6228,-2.621,-2.6314,-2.6244,-2.6103,-2.6063,-2.6045,-2.6231,-2.6626,-2.675,-2.7351,-2.8554,-2.8814,-2.9155,-2.9811,-2.9935,-3.0124,-3.0338,-3.0697,-3.1338,-3.2422,-3.2887,-3.3652,-3.4808,-3.5178,-3.5038,-3.4818,-3.4763,-3.4626,-3.444,-3.4341,-3.4234,-3.4341,-3.4382,-3.444,-3.4431,-3.4601,-3.4347,-3.37,-3.3419,-3.3044,-3.2165,-3.1765,-3.1545,-3.1543,-3.155,-3.1607,-3.1808,-3.2282,-3.2749,-3.2692,-3.2222,-3.1602,-3.1513,-3.0975,-3.0407,-3.0229,-3.0282,-3.0472,-3.0084,-2.9941,-2.9667,-2.9607,-2.9217,-2.8806,-2.9053,-2.8961,-2.888,-2.9089,-2.9262,-2.9481,-3.1481,-3.1498,-3.1406,-3.1387,-3.1351,-3.1117,-3.0962,-3.0962,-3.0922,-3.076,-3.0497,-3.0493,-3.0821,-3.1317,-3.068,-3.0193,-2.9811,-2.8933,-2.8142,-2.7451,-2.6838,-2.6383,-2.6035,-2.5756,-2.554,-2.5521,-2.558,-2.5598,-2.5556,-2.5349,-2.5079,-2.4819,-2.4855,-2.4815,-2.4675,-2.4675,-2.4699,-2.4724,-2.4084,-2.4037,-2.4577,-2.4924,-2.5317,-2.573,-2.5556,-2.5478,-2.5551,-2.5495,-2.5495,-2.5584,-2.5584,-2.5924,-2.6668,-2.7073,-2.7737,-2.873,-2.9216,-2.9572,-2.988,-2.9896,-2.9946,-3.0044,-3.0573,-3.128,-3.2134,-3.2772,-3.3527,-3.4333,-3.4554,-3.448,-3.4358,-3.4349,-3.4275,-3.4126,-3.4101,-3.4101,-3.4101,-3.4151,-3.4176,-3.4159,-3.3868,-3.3413,-3.2631,-3.1834,-3.123,-3.081,-3.0647,-3.0703,-3.0968,-3.1069,-3.1206,-3.1369,-3.1443,-3.1497,-3.1696,-3.1195,-3.069,-3.0276,-2.9658,-2.9159,-2.918,-2.9141,-2.9123,-2.9194,-2.8948,-2.878,-2.8788,-2.8649,-2.838,-2.8525,-2.8737,-2.8821,-2.891,-2.9078,-2.9197,-3.1018,-3.1018,-3.0925,-3.0885,-3.0865,-3.0522,-3.0377,-3.0377,-3.033,-3.0102,-2.9793,-2.9793,-3.0072,-3.0456,-2.9719,-2.9261,-2.8876,-2.7822,-2.6893,-2.6188,-2.6026,-2.5675,-2.5211,-2.516,-2.516,-2.516,-2.5141,-2.516,-2.5157,-2.4883,-2.4594,-2.4343,-2.4281,-2.4281,-2.4281,-2.4281,-2.4281,-2.4256,-2.364,-2.3458,-2.3806,-2.416,-2.4585,-2.4946,-2.4918,-2.5021,-2.527,-2.521,-2.5381,-2.5751,-2.5771,-2.617,-2.7001,-2.7577,-2.8241,-2.9016,-2.9589,-2.9896,-2.9896,-2.9896,-2.9896,-2.9945,-3.0522,-3.1212,-3.1947,-3.2676,-3.3372,-3.4012,-3.4101,-3.4126,-3.4101,-3.4101,-3.4101,-3.4101,-3.4101,-3.4101,-3.4101,-3.4101,-3.4101,-3.4036,-3.3575,-3.2708,-3.1785,-3.0755,-3.0043,-3.006,-3.0011,-3.0081,-3.0468,-3.058,-3.0636,-3.0718,-3.0273,-3.0284,-3.0664,-3.0052,-2.9462,-2.912,-2.8558,-2.8081,-2.8039,-2.8071,-2.8071,-2.8425,-2.8163,-2.8088,-2.8181,-2.812,-2.8109,-2.8251,-2.8417,-2.857,-2.8551,-2.8761,-2.8892,-2.9859,-2.9881,-2.9859,-2.9924,-2.9897,-2.9859,-2.9853,-2.9837,-2.9815,-2.9793,-2.9744,-2.9728,-2.9459,-2.8949,-2.8793,-2.8415,-2.7684,-2.6593,-2.5722,-2.5045,-2.4687,-2.4395,-2.438,-2.4364,-2.4385,-2.4451,-2.4451,-2.4431,-2.439,-2.4364,-2.4323,-2.4281,-2.4281,-2.4281,-2.4281,-2.4281,-2.4281,-2.422,-2.3702,-2.3609,-2.4184,-2.4302,-2.4282,-2.4188,-2.4437,-2.5122,-2.5784,-2.5749,-2.6046,-2.6867,-2.6841,-2.7172,-2.7854,-2.8172,-2.8811,-2.9674,-2.9848,-2.9896,-2.9896,-2.9896,-2.9896,-2.9977,-3.0522,-3.1195,-3.1826,-3.2643,-3.334,-3.4003,-3.4068,-3.4101,-3.4101,-3.4101,-3.4101,-3.4101,-3.4101,-3.4101,-3.4101,-3.4101,-3.4101,-3.4003,-3.3437,-3.2433,-3.1131,-3.0344,-2.9961,-2.9918,-2.9918,-2.9946,-3.0011,-3.0038,-2.9863,-2.9435,-2.9264,-2.9407,-2.9971,-2.9282,-2.8559,-2.8268,-2.7888,-2.7441,-2.7595,-2.773,-2.773,-2.7745,-2.7774,-2.7774,-2.7728,-2.7745,-2.7774,-2.7872,-2.8,-2.8079,-2.8179,-2.8355,-2.8478,-2.9793,-2.975,-2.9461,-2.9522,-2.975,-2.9483,-2.9348,-2.9364,-2.9348,-2.9182,-2.892,-2.8897,-2.8559,-2.7884,-2.7444,-2.702,-2.6516,-2.543,-2.4766,-2.4513,-2.4364,-2.4281,-2.4281,-2.4281,-2.4281,-2.4281,-2.4281,-2.4281,-2.4281,-2.4281,-2.4281,-2.4281,-2.4281,-2.4281,-2.4281,-2.4281,-2.4281,-2.4266,-2.4056,-2.4071,-2.4364,-2.4733,-2.4894,-2.4834,-2.5428,-2.5902,-2.6252,-2.6187,-2.6355,-2.6786,-2.6808,-2.7193,-2.7939,-2.8557,-2.9064,-2.955,-2.9643,-2.9726,-2.9858,-2.9896,-2.9896,-2.9945,-3.0522,-3.0985,-3.1422,-3.2368,-3.3194,-3.3469,-3.389,-3.4084,-3.4101,-3.4101,-3.4101,-3.4101,-3.4101,-3.4101,-3.4101,-3.4101,-3.4101,-3.3939,-3.3129,-3.1834,-3.0707,-3.0042,-2.9896,-2.9896,-2.9896,-2.9896,-2.9896,-2.994,-2.9654,-2.8983,-2.8489,-2.8139,-2.7871,-2.7996,-2.7707,-2.7485,-2.7202,-2.7116,-2.7177,-2.735,-2.7398,-2.7413,-2.7441,-2.7565,-2.7535,-2.7627,-2.7642,-2.7686,-2.7771,-2.7771,-2.7815,-2.802,-2.8129,-2.9341,-2.9296,-2.8997,-2.9044,-2.9296,-2.9013,-2.8873,-2.8873,-2.8873,-2.8677,-2.8405,-2.8181,-2.7703,-2.7011,-2.6349,-2.5815,-2.5404,-2.4627,-2.4281,-2.4281,-2.4281,-2.4281,-2.4281,-2.4281,-2.4281,-2.4281,-2.4281,-2.4281,-2.4281,-2.4281,-2.4281,-2.4281,-2.4281,-2.4281,-2.4312,-2.4481,-2.4604,-2.462,-2.4841,-2.4979,-2.5056,-2.5641,-2.5995,-2.6087,-2.6672,-2.6941,-2.6734,-2.6741,-2.691,-2.7178,-2.7232,-2.7548,-2.8198,-2.8676,-2.9098,-2.9328,-2.9357,-2.9441,-2.9614,-2.971,-2.977,-2.9808,-3.0257,-3.0629,-3.092,-3.181,-3.2514,-3.3032,-3.3453,-3.3825,-3.4052,-3.4101,-3.4101,-3.4101,-3.4101,-3.4101,-3.4101,-3.4101,-3.3858,-3.3307,-3.2352,-3.1186,-3.0204,-2.9961,-2.9896,-2.9896,-2.9896,-2.9896,-2.9896,-2.9653,-2.9281,-2.8568,-2.7822,-2.7158,-2.6792,-2.6737,-2.6842,-2.6689,-2.6708,-2.6657,-2.674,-2.6921,-2.7035,-2.7067,-2.7147,-2.7272,-2.7398,-2.7509,-2.7554,-2.7569,-2.7554,-2.7539,-2.7597,-2.7701,-2.78,-2.8444,-2.8468,-2.8411,-2.8468,-2.8541,-2.8493,-2.8436,-2.8468,-2.8444,-2.8444,-2.8334,-2.775,-2.7119,-2.6327,-2.5749,-2.4995,-2.4513,-2.4333,-2.4281,-2.4281,-2.4281,-2.4281,-2.4281,-2.4281,-2.4281,-2.4281,-2.4281,-2.4281,-2.4281,-2.4281,-2.4281,-2.4281,-2.4358,-2.4441,-2.4327,-2.4973,-2.5296,-2.5441,-2.5949,-2.6318,-2.6472,-2.6965,-2.7303,-2.7396,-2.7934,-2.7965,-2.745,-2.7411,-2.7657,-2.822,-2.8297,-2.847,-2.8583,-2.8708,-2.8803,-2.9052,-2.9098,-2.9098,-2.916,-2.9357,-2.9509,-2.9547,-2.9758,-3.0148,-3.0587,-3.0893,-3.1546,-3.2611,-3.3064,-3.3347,-3.3905,-3.405,-3.4075,-3.4101,-3.4101,-3.4101,-3.4101,-3.4068,-3.355,-3.2336,-3.1422,-3.0684,-3.0123,-2.9896,-2.9896,-2.9896,-2.9896,-2.9896,-2.9832,-2.9394,-2.86,-2.7899,-2.73,-2.6701,-2.6118,-2.5651,-2.5821,-2.5937,-2.6063,-2.6119,-2.6279,-2.6453,-2.6539,-2.6556,-2.6674,-2.6807,-2.6954,-2.7085,-2.7247,-2.7279,-2.728,-2.7343,-2.7436,-2.7511,-2.7526,-2.8411,-2.8411,-2.8411,-2.8411,-2.8411,-2.8411,-2.8411,-2.8411,-2.8411,-2.8411,-2.8288,-2.7688,-2.6995,-2.628,-2.5604,-2.4927,-2.4327,-2.4281,-2.4281,-2.4281,-2.4281,-2.4281,-2.4281,-2.4281,-2.4281,-2.4281,-2.4281,-2.4281,-2.4281,-2.4297,-2.4281,-2.4358,-2.4773,-2.4973,-2.5019,-2.5635,-2.6004,-2.6134,-2.6734,-2.7072,-2.7134,-2.775,-2.8073,-2.8119,-2.8304,-2.8264,-2.8104,-2.8088,-2.8181,-2.8396,-2.8411,-2.8444,-2.8477,-2.8501,-2.8597,-2.8795,-2.8818,-2.8912,-2.9075,-2.9167,-2.9213,-2.9236,-2.9321,-2.9423,-2.9694,-3.0131,-3.0792,-3.1772,-3.2391,-3.3033,-3.3457,-3.372,-3.3873,-3.4092,-3.4101,-3.4059,-3.3962,-3.3663,-3.2773,-3.1568,-3.1034,-3.0619,-3.0107,-2.9896,-2.9896,-2.9896,-2.9896,-2.9896,-2.9783,-2.9264,-2.853,-2.7818,-2.7122,-2.6442,-2.5904,-2.5597,-2.5675,-2.5768,-2.5805,-2.5807,-2.5954,-2.6046,-2.61,-2.6155,-2.6261,-2.6401,-2.6539,-2.6708,-2.6891,-2.7055,-2.712,-2.7185,-2.7283,-2.7346,-2.7392,-2.8411,-2.8411,-2.8411,-2.8411,-2.8411,-2.8411,-2.8411,-2.8411,-2.8411,-2.8411,-2.8242,-2.7411,-2.678,-2.6211,-2.5342,-2.4712,-2.4271,-2.4297,-2.4261,-2.4213,-2.4297,-2.4297,-2.4255,-2.4198,-2.4177,-2.4193,-2.4193,-2.4193,-2.4193,-2.4422,-2.456,-2.4667,-2.5227,-2.5571,-2.5654,-2.6108,-2.6428,-2.6558,-2.7003,-2.7288,-2.734,-2.7713,-2.791,-2.7925,-2.8088,-2.8103,-2.7949,-2.8063,-2.8162,-2.8177,-2.8177,-2.8241,-2.8372,-2.8411,-2.8444,-2.8525,-2.8462,-2.8486,-2.8787,-2.8748,-2.8803,-2.8912,-2.9029,-2.9114,-2.9193,-2.9595,-3.0069,-3.0829,-3.1593,-3.2342,-3.2849,-3.3124,-3.3377,-3.3507,-3.3781,-3.3811,-3.3587,-3.3048,-3.2199,-3.1158,-3.0616,-3.0305,-3.0042,-2.9896,-2.9896,-2.9896,-2.9896,-2.9896,-2.9767,-2.9281,-2.853,-2.7798,-2.7138,-2.6458,-2.5775,-2.5597,-2.5597,-2.5635,-2.5654,-2.5672,-2.5731,-2.5805,-2.5844,-2.5917,-2.601,-2.6154,-2.6313,-2.6487,-2.6674,-2.6808,-2.6875,-2.7006,-2.7071,-2.725,-2.7313,-2.8411,-2.8411,-2.8411,-2.8411,-2.8411,-2.8411,-2.8411,-2.8411,-2.8372,-2.8341,-2.8018,-2.6965,-2.6342,-2.5988,-2.4885,-2.4275,-2.4208,-2.4234,-2.4172,-2.4109,-2.4172,-2.4234,-2.4172,-2.4067,-2.4046,-2.4024,-2.4024,-2.4055,-2.4243,-2.47,-2.5036,-2.515,-2.5735,-2.6062,-2.6153,-2.6393,-2.6602,-2.6716,-2.691,-2.7008,-2.7063,-2.7093,-2.7122,-2.7148,-2.7534,-2.7585,-2.7342,-2.7509,-2.7715,-2.7765,-2.7765,-2.789,-2.8226,-2.8323,-2.825,-2.825,-2.794,-2.7974,-2.8171,-2.814,-2.8174,-2.8455,-2.8661,-2.8982,-2.8834,-2.8841,-2.9177,-2.9913,-3.0591,-3.13,-3.1904,-3.2266,-3.2416,-3.252,-3.2898,-3.3,-3.2604,-3.2039,-3.1174,-3.0456,-3.0032,-2.9748,-2.9598,-2.9598,-2.9659,-2.9704,-2.9681,-2.9659,-2.9619,-2.9091,-2.8446,-2.7736,-2.6961,-2.6265,-2.5532,-2.5371,-2.5371,-2.5371,-2.5445,-2.5502,-2.5559,-2.5635,-2.5675,-2.5731,-2.5768,-2.5899,-2.6045,-2.619,-2.6296,-2.6349,-2.6504,-2.6674,-2.6841,-2.699,-2.7105,-2.8411,-2.8411,-2.8411,-2.8411,-2.8411,-2.8411,-2.8411,-2.8387,-2.8284,-2.7968,-2.7408,-2.6527,-2.5848,-2.5292,-2.4515,-2.4067,-2.4067,-2.4067,-2.4067,-2.4024,-2.403,-2.4067,-2.4046,-2.4003,-2.3982,-2.3961,-2.3943,-2.4262,-2.4717,-2.4887,-2.522,-2.575,-2.627,-2.6453,-2.6247,-2.6618,-2.6802,-2.6663,-2.6495,-2.6532,-2.673,-2.6771,-2.6823,-2.6849,-2.7097,-2.7214,-2.7071,-2.693,-2.7008,-2.7251,-2.7306,-2.7316,-2.7484,-2.7494,-2.7519,-2.7494,-2.7393,-2.7316,-2.7418,-2.7403,-2.7454,-2.7504,-2.7705,-2.763,-2.7615,-2.764,-2.7986,-2.8604,-2.9107,-2.97,-3.0498,-3.089,-3.1051,-3.1107,-3.1347,-3.1338,-3.0773,-3.0068,-2.9413,-2.8737,-2.8556,-2.855,-2.8567,-2.8567,-2.8638,-2.8858,-2.8951,-2.8997,-2.9032,-2.8751,-2.8062,-2.7317,-2.656,-2.5934,-2.5409,-2.5218,-2.5139,-2.5139,-2.5197,-2.5294,-2.5426,-2.5578,-2.5597,-2.5635,-2.5562,-2.564,-2.5696,-2.5791,-2.5864,-2.5903,-2.6156,-2.6367,-2.6453,-2.6573,-2.6725,-2.8411,-2.8411,-2.8323,-2.8299,-2.8299,-2.825,-2.8241,-2.8165,-2.7841,-2.7695,-2.7235,-2.6092,-2.5538,-2.5325,-2.4444,-2.3961,-2.3925,-2.3982,-2.394,-2.3782,-2.361,-2.3668,-2.3797,-2.3711,-2.356,-2.3546,-2.357,-2.3767,-2.417,-2.4664,-2.5164,-2.5541,-2.6193,-2.6294,-2.6089,-2.6225,-2.6334,-2.6174,-2.5905,-2.581,-2.5973,-2.6,-2.5987,-2.6081,-2.6402,-2.6733,-2.6759,-2.6472,-2.6431,-2.6759,-2.6878,-2.6916,-2.7097,-2.7097,-2.7097,-2.7097,-2.6967,-2.6916,-2.7045,-2.6967,-2.6941,-2.7071,-2.7097,-2.7097,-2.7148,-2.7097,-2.7358,-2.7713,-2.8129,-2.8693,-2.9178,-2.9507,-2.9542,-2.9358,-2.9264,-2.9243,-2.9282,-2.9138,-2.8556,-2.8026,-2.7839,-2.7889,-2.7889,-2.7889,-2.7972,-2.8183,-2.8304,-2.84,-2.8473,-2.8078,-2.758,-2.6763,-2.614,-2.5544,-2.4952,-2.4681,-2.4695,-2.4695,-2.4811,-2.4966,-2.5143,-2.5333,-2.5371,-2.5371,-2.5352,-2.5352,-2.5375,-2.5394,-2.5413,-2.5532,-2.5813,-2.5959,-2.5997,-2.6138,-2.6297,-2.8387,-2.8372,-2.8259,-2.8186,-2.8162,-2.8069,-2.7968,-2.7777,-2.7428,-2.7291,-2.707,-2.5781,-2.5319,-2.5659,-2.4327,-2.3839,-2.3674,-2.3717,-2.361,-2.3334,-2.3091,-2.3068,-2.3392,-2.3207,-2.307,-2.3065,-2.3041,-2.3293,-2.3787,-2.4561,-2.4864,-2.5164,-2.5606,-2.5724,-2.5638,-2.5521,-2.5425,-2.5398,-2.5147,-2.4991,-2.5062,-2.509,-2.5132,-2.5175,-2.566,-2.6095,-2.6217,-2.6084,-2.6056,-2.6431,-2.6431,-2.659,-2.689,-2.6941,-2.6941,-2.6864,-2.6602,-2.659,-2.6811,-2.659,-2.6563,-2.6811,-2.689,-2.6993,-2.689,-2.6852,-2.6881,-2.6954,-2.7592,-2.7849,-2.8073,-2.8246,-2.8196,-2.7883,-2.7258,-2.7363,-2.8015,-2.8497,-2.8256,-2.7493,-2.7525,-2.765,-2.7675,-2.77,-2.7675,-2.75,-2.76,-2.769,-2.7709,-2.7504,-2.6851,-2.6062,-2.5553,-2.5152,-2.4587,-2.409,-2.4137,-2.422,-2.4354,-2.4492,-2.471,-2.4886,-2.4985,-2.5045,-2.5143,-2.5103,-2.5005,-2.5005,-2.5045,-2.5103,-2.5326,-2.5384,-2.5422,-2.5647,-2.5832,-2.8323,-2.8235,-2.821,-2.8137,-2.8054,-2.8005,-2.7701,-2.7261,-2.7512,-2.6796,-2.5779,-2.5431,-2.4912,-2.4184,-2.3834,-2.348,-2.3135,-2.3113,-2.2875,-2.2429,-2.2374,-2.2328,-2.2594,-2.2748,-2.2965,-2.3058,-2.3466,-2.3923,-2.4425,-2.4556,-2.4898,-2.4982,-2.527,-2.534,-2.4668,-2.4914,-2.495,-2.4751,-2.4463,-2.4434,-2.4593,-2.4609,-2.4622,-2.4666,-2.5034,-2.5397,-2.5647,-2.5633,-2.573,-2.5948,-2.6042,-2.6069,-2.619,-2.6231,-2.6258,-2.6231,-2.615,-2.6096,-2.615,-2.615,-2.6084,-2.6204,-2.6285,-2.615,-2.6177,-2.6204,-2.6204,-2.6192,-2.6319,-2.6741,-2.707,-2.7159,-2.7145,-2.6919,-2.6526,-2.6242,-2.6458,-2.6592,-2.6574,-2.6435,-2.6377,-2.6351,-2.6377,-2.6484,-2.6575,-2.6759,-2.689,-2.6967,-2.6935,-2.688,-2.6303,-2.5558,-2.5035,-2.4612,-2.4059,-2.3634,-2.3651,-2.3779,-2.3915,-2.4015,-2.4204,-2.4467,-2.4589,-2.4791,-2.5005,-2.4906,-2.4726,-2.4826,-2.4922,-2.4906,-2.4871,-2.4954,-2.5072,-2.5246,-2.5346,-2.8152,-2.8103,-2.8039,-2.7965,-2.7905,-2.784,-2.7604,-2.7254,-2.6897,-2.6436,-2.5584,-2.4911,-2.4118,-2.374,-2.3188,-2.2725,-2.2581,-2.2535,-2.2397,-2.2081,-2.1935,-2.1931,-2.222,-2.2494,-2.2731,-2.2798,-2.3279,-2.3797,-2.4082,-2.4368,-2.4353,-2.4218,-2.4721,-2.4486,-2.39,-2.4313,-2.4436,-2.4347,-2.4187,-2.4187,-2.429,-2.4305,-2.4379,-2.4494,-2.4694,-2.492,-2.5229,-2.5272,-2.5355,-2.5453,-2.5481,-2.5619,-2.5866,-2.5893,-2.5893,-2.5893,-2.5893,-2.5893,-2.5921,-2.5893,-2.5921,-2.5893,-2.5893,-2.5893,-2.5893,-2.5893,-2.5893,-2.5893,-2.5949,-2.6089,-2.6343,-2.6385,-2.6385,-2.6329,-2.6104,-2.5907,-2.5893,-2.5893,-2.5893,-2.5893,-2.5975,-2.5975,-2.5921,-2.5893,-2.5975,-2.6351,-2.6351,-2.6404,-2.6377,-2.628,-2.5902,-2.5272,-2.4634,-2.4081,-2.3499,-2.3202,-2.3194,-2.3334,-2.3508,-2.3566,-2.3674,-2.3952,-2.4204,-2.441,-2.463,-2.4625,-2.4523,-2.4645,-2.4686,-2.4605,-2.4569,-2.463,-2.471,-2.4835,-2.4914,-2.7781,-2.7815,-2.764,-2.7509,-2.7484,-2.7357,-2.7176,-2.6948,-2.6148,-2.5824,-2.579,-2.3964,-2.3713,-2.3403,-2.2766,-2.2245,-2.1978,-2.1846,-2.1742,-2.1694,-2.1586,-2.172,-2.2091,-2.2418,-2.2658,-2.2533,-2.3161,-2.3467,-2.3625,-2.3707,-2.3749,-2.3411,-2.3696,-2.3758,-2.3489,-2.3785,-2.4171,-2.4141,-2.4112,-2.4112,-2.4141,-2.4141,-2.4232,-2.4363,-2.445,-2.4622,-2.4863,-2.492,-2.4935,-2.4977,-2.5005,-2.5231,-2.5494,-2.5825,-2.5711,-2.5683,-2.5724,-2.5822,-2.5738,-2.5822,-2.5893,-2.5893,-2.5893,-2.5893,-2.5893,-2.5893,-2.5893,-2.5893,-2.5907,-2.5907,-2.5907,-2.5978,-2.5964,-2.5936,-2.5921,-2.5893,-2.5893,-2.5893,-2.5893,-2.5893,-2.5893,-2.5893,-2.5893,-2.5893,-2.5893,-2.5893,-2.5893,-2.5893,-2.5893,-2.5738,-2.5449,-2.4935,-2.4301,-2.3568,-2.2965,-2.2789,-2.2775,-2.2867,-2.3061,-2.3127,-2.315,-2.337,-2.3638,-2.3973,-2.412,-2.4177,-2.4276,-2.4364,-2.4364,-2.4281,-2.4323,-2.4446,-2.4467,-2.4467,-2.4549,-2.673,-2.703,-2.652,-2.6254,-2.6162,-2.6108,-2.5891,-2.5469,-2.5701,-2.493,-2.3875,-2.4236,-2.3548,-2.2804,-2.2838,-2.2342,-2.1561,-2.1264,-2.1084,-2.1166,-2.1296,-2.1653,-2.1996,-2.264,-2.2993,-2.3229,-2.3589,-2.3877,-2.3744,-2.3561,-2.343,-2.3261,-2.3365,-2.3326,-2.3446,-2.3757,-2.4125,-2.4125,-2.4125,-2.4125,-2.4125,-2.4112,-2.4112,-2.4216,-2.4216,-2.4361,-2.4536,-2.4609,-2.4694,-2.4977,-2.4977,-2.4762,-2.4655,-2.5094,-2.5105,-2.4819,-2.5292,-2.5545,-2.5319,-2.564,-2.5837,-2.5893,-2.5893,-2.5893,-2.5893,-2.5893,-2.5893,-2.5866,-2.5866,-2.5893,-2.5893,-2.5811,-2.5866,-2.5893,-2.5839,-2.5839,-2.5839,-2.5839,-2.5811,-2.5757,-2.5811,-2.5893,-2.5893,-2.5893,-2.5893,-2.5893,-2.5893,-2.5893,-2.5893,-2.5653,-2.5258,-2.4664,-2.3949,-2.3184,-2.2447,-2.2376,-2.2356,-2.2426,-2.254,-2.2655,-2.2723,-2.2777,-2.3024,-2.3334,-2.3674,-2.3861,-2.3967,-2.4078,-2.4177,-2.4177,-2.4219,-2.4281,-2.4343,-2.4385,-2.4364,-2.612,-2.6295,-2.6013,-2.585,-2.581,-2.5783,-2.5656,-2.5377,-2.5356,-2.4888,-2.4146,-2.3755,-2.3148,-2.2336,-2.1833,-2.1495,-2.1139,-2.0848,-2.0831,-2.1132,-2.1394,-2.1904,-2.2269,-2.3014,-2.3339,-2.3655,-2.3981,-2.4125,-2.4099,-2.3835,-2.3483,-2.3313,-2.3456,-2.3509,-2.3406,-2.3783,-2.4044,-2.4083,-2.4083,-2.4083,-2.4083,-2.4083,-2.4096,-2.4096,-2.4096,-2.4171,-2.4232,-2.4276,-2.4347,-2.4439,-2.4228,-2.3846,-2.3796,-2.4014,-2.4314,-2.395,-2.4527,-2.5009,-2.4922,-2.5353,-2.5715,-2.5893,-2.5893,-2.5893,-2.5893,-2.5893,-2.5811,-2.5716,-2.5661,-2.5605,-2.5453,-2.5453,-2.5425,-2.5425,-2.5425,-2.5411,-2.5439,-2.5453,-2.5425,-2.5467,-2.5647,-2.5757,-2.5893,-2.5893,-2.5893,-2.5893,-2.5893,-2.5866,-2.5839,-2.5573,-2.521,-2.4761,-2.408,-2.3182,-2.2426,-2.2161,-2.2067,-2.2077,-2.21,-2.2217,-2.2263,-2.2319,-2.2449,-2.2655,-2.2994,-2.3348,-2.3631,-2.3739,-2.3888,-2.4073,-2.4135,-2.4177,-2.4261,-2.4281,-2.4261,-2.5522,-2.5632,-2.5495,-2.5467,-2.5467,-2.5467,-2.5439,-2.537,-2.4978,-2.4699,-2.4441,-2.3305,-2.252,-2.2048,-2.1445,-2.0961,-2.1014,-2.1105,-2.1354,-2.1642,-2.1877,-2.2399,-2.2947,-2.3378,-2.3626,-2.3968,-2.4086,-2.4125,-2.4044,-2.3848,-2.3652,-2.3561,-2.3835,-2.3751,-2.343,-2.3683,-2.3897,-2.3806,-2.3806,-2.3806,-2.3806,-2.3806,-2.3878,-2.3966,-2.3979,-2.3966,-2.4112,-2.4141,-2.4054,-2.392,-2.3592,-2.3141,-2.2904,-2.321,-2.3336,-2.3272,-2.3811,-2.4313,-2.4572,-2.5039,-2.5467,-2.5591,-2.5702,-2.5702,-2.5702,-2.5591,-2.5605,-2.5453,-2.5397,-2.53,-2.5118,-2.4948,-2.4948,-2.4977,-2.4878,-2.4765,-2.4907,-2.4907,-2.4751,-2.4921,-2.5286,-2.5411,-2.5439,-2.5743,-2.5688,-2.5605,-2.5605,-2.5605,-2.5578,-2.5564,-2.5245,-2.4939,-2.4326,-2.3325,-2.2578,-2.2027,-2.1896,-2.1831,-2.1855,-2.1902,-2.1888,-2.1864,-2.1983,-2.21,-2.2296,-2.2626,-2.3001,-2.337,-2.3523,-2.3696,-2.3909,-2.3973,-2.3888,-2.4009,-2.4094,-2.4607,-2.5048,-2.4534,-2.4303,-2.4332,-2.4361,-2.4332,-2.4361,-2.4303,-2.3885,-2.3629,-2.3175,-2.2505,-2.1786,-2.1564,-2.1694,-2.1982,-2.2061,-2.21,-2.2323,-2.2648,-2.2921,-2.3274,-2.3783,-2.3729,-2.3865,-2.3923,-2.4125,-2.3859,-2.3453,-2.3597,-2.3751,-2.3443,-2.3311,-2.3276,-2.3403,-2.3228,-2.2889,-2.2816,-2.2847,-2.2877,-2.2889,-2.3125,-2.3348,-2.348,-2.3599,-2.3865,-2.3894,-2.3819,-2.3497,-2.3403,-2.306,-2.2681,-2.2566,-2.259,-2.2996,-2.3795,-2.4666,-2.4299,-2.4638,-2.4948,-2.5048,-2.5104,-2.509,-2.5048,-2.5048,-2.502,-2.509,-2.5005,-2.485,-2.4666,-2.4536,-2.4609,-2.4423,-2.4121,-2.4308,-2.4494,-2.4092,-2.3975,-2.4005,-2.4224,-2.4567,-2.4723,-2.5146,-2.5453,-2.5355,-2.5272,-2.523,-2.5202,-2.5132,-2.49,-2.4491,-2.4159,-2.3236,-2.2534,-2.2014,-2.1732,-2.163,-2.1616,-2.1616,-2.1616,-2.1578,-2.1506,-2.165,-2.1803,-2.1969,-2.2282,-2.2626,-2.3024,-2.3238,-2.3312,-2.3355,-2.3392,-2.3566,-2.3739,-2.4258,-2.4476,-2.4187,-2.4125,-2.4125,-2.4125,-2.4125,-2.4125,-2.4112,-2.3981,-2.3574,-2.296,-2.2256,-2.1721,-2.1812,-2.2152,-2.2375,-2.2439,-2.2583,-2.2791,-2.3076,-2.3321,-2.3476,-2.3432,-2.3339,-2.3203,-2.2889,-2.2555,-2.2729,-2.3187,-2.3482,-2.3526,-2.3166,-2.2879,-2.2889,-2.2932,-2.2829,-2.2683,-2.2634,-2.2634,-2.2634,-2.2622,-2.2695,-2.2932,-2.2962,-2.3083,-2.3233,-2.3263,-2.3173,-2.29,-2.2708,-2.2409,-2.2155,-2.211,-2.2101,-2.2169,-2.2987,-2.3502,-2.3535,-2.4015,-2.42,-2.4279,-2.4366,-2.4465,-2.4279,-2.4179,-2.4092,-2.3917,-2.3917,-2.3888,-2.3741,-2.3463,-2.3505,-2.3403,-2.3284,-2.3403,-2.3551,-2.3301,-2.3062,-2.3135,-2.3195,-2.3475,-2.3741,-2.3975,-2.4279,-2.4366,-2.4295,-2.4266,-2.4352,-2.4481,-2.4161,-2.3764,-2.346,-2.3048,-2.2446,-2.1877,-2.1583,-2.1464,-2.1423,-2.1423,-2.1399,-2.1375,-2.1277,-2.1253,-2.1385,-2.153,-2.166,-2.1992,-2.2449,-2.2549,-2.264,-2.2709,-2.2799,-2.2889,-2.3054,-2.4125,-2.4125,-2.4125,-2.4125,-2.4125,-2.4125,-2.4125,-2.4125,-2.4125,-2.4112,-2.3864,-2.3078,-2.236,-2.21,-2.2413,-2.2701,-2.2817,-2.2776,-2.2955,-2.3186,-2.3186,-2.3218,-2.3141,-2.2864,-2.247,-2.2359,-2.2051,-2.1834,-2.1959,-2.2255,-2.264,-2.2927,-2.2537,-2.2262,-2.2212,-2.2224,-2.2206,-2.2156,-2.2156,-2.2144,-2.2175,-2.2175,-2.2267,-2.2378,-2.2439,-2.247,-2.2604,-2.2665,-2.2652,-2.2348,-2.2152,-2.1952,-2.1891,-2.1891,-2.1998,-2.2075,-2.2577,-2.2637,-2.2837,-2.3141,-2.3365,-2.3463,-2.3522,-2.3653,-2.3403,-2.3272,-2.3242,-2.3105,-2.3088,-2.2937,-2.2665,-2.2592,-2.2652,-2.2622,-2.2439,-2.247,-2.247,-2.2378,-2.2378,-2.2439,-2.2421,-2.2237,-2.2482,-2.2713,-2.2985,-2.3242,-2.3289,-2.3318,-2.3479,-2.3669,-2.3518,-2.3132,-2.2806,-2.2545,-2.2206,-2.1733,-2.1452,-2.1255,-2.1215,-2.1184,-2.1126,-2.1086,-2.1021,-2.1021,-2.1023,-2.1082,-2.1204,-2.1544,-2.1855,-2.1888,-2.1945,-2.2095,-2.2212,-2.2324,-2.2614,-2.4125,-2.4125,-2.4083,-2.4096,-2.4125,-2.4125,-2.4125,-2.4125,-2.4125,-2.4057,-2.3942,-2.3472,-2.3104,-2.3039,-2.305,-2.3319,-2.3696,-2.3803,-2.3478,-2.3213,-2.3002,-2.2712,-2.2482,-2.207,-2.1667,-2.1604,-2.1259,-2.129,-2.1428,-2.1037,-2.1428,-2.1616,-2.1585,-2.1365,-2.127,-2.1365,-2.1408,-2.1356,-2.1388,-2.14,-2.14,-2.1431,-2.1577,-2.1889,-2.197,-2.2156,-2.2573,-2.2482,-2.2298,-2.1959,-2.1832,-2.1784,-2.1749,-2.1761,-2.1884,-2.2073,-2.1986,-2.201,-2.2152,-2.2445,-2.2658,-2.2683,-2.2683,-2.2713,-2.2604,-2.2622,-2.2622,-2.2543,-2.2463,-2.2512,-2.2359,-2.2279,-2.2144,-2.2082,-2.197,-2.197,-2.1908,-2.1702,-2.1702,-2.1796,-2.1765,-2.1671,-2.1639,-2.1939,-2.2175,-2.2439,-2.2592,-2.2622,-2.2622,-2.2774,-2.2774,-2.2568,-2.2208,-2.1969,-2.1799,-2.1459,-2.1059,-2.0925,-2.0913,-2.0862,-2.0795,-2.0768,-2.0718,-2.0653,-2.0628,-2.0664,-2.0789,-2.1169,-2.137,-2.1222,-2.1331,-2.1727,-2.201,-2.2193,-2.2585,-2.4125,-2.4096,-2.3789,-2.3848,-2.4125,-2.4125,-2.4125,-2.4125,-2.4112,-2.3861,-2.3532,-2.3639,-2.3535,-2.3337,-2.3511,-2.3443,-2.3237,-2.313,-2.2829,-2.2433,-2.2082,-2.197,-2.169,-2.1227,-2.0782,-2.0634,-2.0344,-2.0053,-1.9966,-1.9998,-1.9901,-2.0128,-2.0537,-2.057,-2.0516,-2.0549,-2.0581,-2.0656,-2.0732,-2.0839,-2.086,-2.1094,-2.1285,-2.1443,-2.1474,-2.1526,-2.1702,-2.1733,-2.1608,-2.1557,-2.1482,-2.1494,-2.1526,-2.1494,-2.162,-2.1796,-2.1577,-2.1557,-2.1588,-2.1908,-2.2156,-2.2094,-2.1939,-2.1753,-2.1858,-2.1765,-2.1721,-2.1733,-2.1796,-2.1858,-2.1714,-2.1588,-2.1526,-2.1577,-2.1608,-2.1588,-2.1494,-2.1316,-2.1316,-2.1526,-2.1443,-2.1348,-2.1296,-2.1296,-2.1474,-2.1671,-2.1796,-2.1939,-2.197,-2.2032,-2.2125,-2.2157,-2.185,-2.1764,-2.1654,-2.1194,-2.0695,-2.0671,-2.0658,-2.0675,-2.07,-2.0427,-2.0374,-2.0303,-2.0293,-2.0345,-2.0526,-2.0849,-2.1056,-2.121,-2.1404,-2.1664,-2.1873,-2.2107,-2.2524,-2.3645,-2.3616,-2.3318,-2.3539,-2.4054,-2.3936,-2.3835,-2.3721,-2.3691,-2.3352,-2.2752,-2.3145,-2.312,-2.29,-2.2976,-2.2877,-2.2451,-2.2267,-2.1928,-2.1585,-2.1282,-2.1123,-2.0805,-2.0387,-1.9901,-1.9671,-1.9419,-1.9198,-1.9297,-1.9131,-1.9231,-1.9396,-1.9528,-1.9748,-1.9846,-1.9911,-1.9966,-2.0139,-2.0302,-2.0442,-2.0495,-2.0656,-2.0828,-2.0903,-2.0967,-2.1031,-2.1146,-2.1242,-2.1316,-2.1265,-2.1265,-2.1233,-2.1233,-2.1201,-2.1201,-2.1201,-2.1201,-2.1201,-2.1316,-2.1463,-2.1702,-2.1651,-2.1474,-2.1285,-2.1201,-2.1201,-2.1348,-2.1285,-2.1265,-2.1201,-2.1201,-2.1265,-2.1285,-2.138,-2.138,-2.1348,-2.1348,-2.1233,-2.1233,-2.1296,-2.1201,-2.1201,-2.1201,-2.1201,-2.1265,-2.1411,-2.1474,-2.1557,-2.1526,-2.1588,-2.1683,-2.1694,-2.1578,-2.1588,-2.1584,-2.1045,-2.0616,-2.0757,-2.0738,-2.0718,-2.0659,-2.0425,-2.0382,-2.0541,-2.0481,-2.0182,-2.038,-2.084,-2.1175,-2.1442,-2.1692,-2.2009,-2.2062,-2.2287,-2.2538,-2.2695,-2.2634,-2.2634,-2.3143,-2.3865,-2.3611,-2.3185,-2.2864,-2.2804,-2.2445,-2.1851,-2.1885,-2.1854,-2.1794,-2.1997,-2.1772,-2.1534,-2.1439,-2.1187,-2.0837,-2.042,-2.0193,-1.9966,-1.9616,-1.9353,-1.9164,-1.9098,-1.9098,-1.9098,-1.9098,-1.9098,-1.9098,-1.9231,-1.9264,-1.9208,-1.9473,-1.9758,-2.0042,-2.0074,-2.0107,-2.0139,-2.0193,-2.0302,-2.0366,-2.0539,-2.0635,-2.07,-2.086,-2.0967,-2.0955,-2.0999,-2.0999,-2.0999,-2.1031,-2.1063,-2.1063,-2.1094,-2.1126,-2.119,-2.1221,-2.1253,-2.1316,-2.1233,-2.1233,-2.1201,-2.1201,-2.1201,-2.1201,-2.1201,-2.1201,-2.1201,-2.1201,-2.1201,-2.1201,-2.1201,-2.1201,-2.1201,-2.1201,-2.1201,-2.1201,-2.1201,-2.1201,-2.1201,-2.1201,-2.1201,-2.1233,-2.1233,-2.1201,-2.119,-2.1253,-2.138,-2.1408,-2.1385,-2.1393,-2.1346,-2.0865,-2.0591,-2.0734,-2.0849,-2.0884,-2.081,-2.0658,-2.0701,-2.0795,-2.054,-2.0173,-2.0487,-2.0909,-2.1343,-2.1807,-2.2188,-2.246,-2.2451,-2.2584,-2.2952,-2.2634,-2.2561,-2.2032,-2.2187,-2.2707,-2.2616,-2.2329,-2.2039,-2.1978,-2.1822,-2.1635,-2.1616,-2.1616,-2.1585,-2.1376,-2.1123,-2.0698,-2.0516,-2.0355,-1.9813,-1.9584,-1.9485,-1.9353,-1.9287,-1.9098,-1.9098,-1.9098,-1.9098,-1.9098,-1.9098,-1.9098,-1.9098,-1.9075,-1.9098,-1.9142,-1.9241,-1.9363,-1.9462,-1.9594,-1.9769,-1.9791,-1.9944,-2.0063,-2.0063,-2.0204,-2.0269,-2.0269,-2.0474,-2.056,-2.056,-2.0603,-2.056,-2.056,-2.056,-2.0528,-2.0495,-2.0495,-2.0603,-2.0732,-2.0828,-2.0935,-2.1074,-2.1201,-2.1201,-2.1201,-2.1201,-2.1201,-2.1201,-2.1201,-2.1201,-2.1201,-2.1201,-2.1201,-2.1201,-2.1201,-2.1201,-2.1201,-2.1201,-2.1201,-2.1201,-2.1201,-2.1201,-2.1201,-2.1201,-2.1201,-2.1169,-2.1126,-2.1169,-2.119,-2.1201,-2.1296,-2.1265,-2.125,-2.1242,-2.1098,-2.0891,-2.0822,-2.097,-2.1067,-2.1094,-2.0995,-2.0866,-2.0724,-2.0706,-2.0423,-2.0176,-2.0612,-2.1081,-2.1697,-2.2206,-2.2401,-2.2694,-2.2818,-2.315,-2.3655,-2.1361,-2.1209,-2.0742,-2.0607,-2.0858,-2.1409,-2.1479,-2.1098,-2.0708,-2.0581,-2.0664,-2.0698,-2.0698,-2.0666,-2.0613,-2.0452,-1.989,-1.9802,-1.9682,-1.9098,-1.9131,-1.9164,-1.9131,-1.9098,-1.9098,-1.9098,-1.9098,-1.9098,-1.9098,-1.9098,-1.9098,-1.9065,-1.8908,-1.8774,-1.8841,-1.8931,-1.9131,-1.9231,-1.9363,-1.944,-1.9495,-1.9584,-1.9715,-1.9748,-1.9813,-1.9922,-1.9944,-2.0009,-2.0096,-2.0096,-2.0096,-2.0096,-2.0096,-2.0096,-2.0096,-2.0096,-2.0128,-2.0237,-2.0399,-2.0431,-2.056,-2.072,-2.1031,-2.1201,-2.1201,-2.1201,-2.1201,-2.1201,-2.1169,-2.1192,-2.1192,-2.1192,-2.1195,-2.1195,-2.1195,-2.1195,-2.1172,-2.1172,-2.1138,-2.1138,-2.1138,-2.1138,-2.1169,-2.1201,-2.1201,-2.1126,-2.1051,-2.1094,-2.1094,-2.1094,-2.1106,-2.1106,-2.1138,-2.1138,-2.1169,-2.1144,-2.1121,-2.119,-2.1169,-2.1094,-2.1172,-2.1012,-2.0823,-2.0664,-2.0638,-2.0641,-2.0784,-2.1191,-2.1528,-2.1908,-2.2262,-2.2602,-2.3078,-2.3378,-2.3704,-1.9051,-1.8811,-1.8822,-1.8661,-1.8606,-1.999,-2.0454,-2.0105,-1.8988,-1.8729,-1.9104,-1.9162,-1.925,-1.9191,-1.9145,-1.9199,-1.9264,-1.9198,-1.9164,-1.9142,-1.9098,-1.9098,-1.9098,-1.9098,-1.9031,-1.9042,-1.8975,-1.8831,-1.8998,-1.8764,-1.8798,-1.8798,-1.8438,-1.8303,-1.8405,-1.8563,-1.8764,-1.8731,-1.8764,-1.8798,-1.8821,-1.8931,-1.9031,-1.9098,-1.9297,-1.9473,-1.9594,-1.9758,-1.9911,-1.9977,-1.9998,-1.9998,-2.0031,-2.0063,-2.0063,-2.0063,-1.9998,-2.0009,-2.0074,-2.0074,-2.0172,-2.0366,-2.0752,-2.1031,-2.1074,-2.0967,-2.0935,-2.0935,-2.0935,-2.1044,-2.1143,-2.1156,-2.117,-2.117,-2.1158,-2.1136,-2.1145,-2.1099,-2.1053,-2.1031,-2.0999,-2.0967,-2.0935,-2.0967,-2.0796,-2.0839,-2.0732,-2.0752,-2.0796,-2.086,-2.086,-2.0892,-2.0924,-2.1031,-2.1063,-2.0935,-2.0903,-2.0796,-2.0903,-2.0892,-2.0996,-2.1017,-2.0733,-2.0656,-2.0939,-2.1005,-2.0776,-2.0787,-2.1026,-2.1388,-2.1628,-2.2094,-2.2414,-2.2738,-2.301,-1.8871,-1.878,-1.8486,-1.8323,-1.821,-1.8146,-1.8425,-1.8764,-1.8176,-1.803,-1.8081,-1.8123,-1.834,-1.859,-1.8621,-1.8828,-1.8984,-1.9098,-1.9098,-1.9098,-1.8998,-1.9065,-1.9065,-1.8965,-1.8831,-1.864,-1.8472,-1.8361,-1.7988,-1.7954,-1.7954,-1.7784,-1.7784,-1.7691,-1.7725,-1.7828,-1.7852,-1.7954,-1.7944,-1.8046,-1.8012,-1.8056,-1.8226,-1.8506,-1.864,-1.8841,-1.9108,-1.9264,-1.9363,-1.9395,-1.9407,-1.9396,-1.9396,-1.9396,-1.9396,-1.9386,-1.9396,-1.9462,-1.9671,-1.9736,-1.9758,-1.9879,-2.0193,-2.0323,-2.0399,-2.0421,-2.0464,-2.0649,-2.0694,-2.0772,-2.0885,-2.093,-2.0952,-2.0963,-2.0897,-2.083,-2.0797,-2.0694,-2.0638,-2.0592,-2.0592,-2.0463,-2.0474,-2.0334,-2.0193,-2.0302,-2.0334,-2.0258,-2.0387,-2.0463,-2.0592,-2.0624,-2.0624,-2.0656,-2.0528,-2.0431,-2.0399,-2.0366,-2.0528,-2.056,-2.0516,-2.0484,-2.0452,-2.0495,-2.0624,-2.0528,-2.0355,-2.0463,-2.0656,-2.0495,-2.0666,-2.1239,-2.1741,-2.2009,-2.2255,-1.7946,-1.7817,-1.7599,-1.7575,-1.7588,-1.7033,-1.7202,-1.7719,-1.7544,-1.7513,-1.7699,-1.773,-1.7885,-1.8123,-1.8319,-1.8579,-1.8797,-1.9025,-1.8998,-1.8731,-1.8774,-1.8539,-1.8529,-1.8418,-1.8192,-1.7988,-1.7886,-1.7794,-1.7373,-1.7373,-1.7442,-1.7451,-1.7279,-1.7097,-1.7063,-1.6899,-1.676,-1.6934,-1.7132,-1.7304,-1.7373,-1.7339,-1.7657,-1.7862,-1.792,-1.8158,-1.8405,-1.8496,-1.8542,-1.8706,-1.8815,-1.897,-1.8887,-1.8804,-1.8879,-1.8893,-1.8879,-1.9073,-1.9274,-1.9131,-1.9231,-1.9264,-1.9252,-1.9091,-1.9502,-1.9722,-2.0128,-2.049,-2.0489,-2.0488,-2.0613,-2.0711,-2.0698,-2.0681,-2.056,-2.0456,-2.0354,-2.0237,-2.0183,-2.0118,-1.9998,-1.9868,-1.9737,-1.9595,-1.9453,-1.9354,-1.9222,-1.91,-1.9464,-1.9933,-2.0128,-2.0291,-2.0258,-2.0226,-2.0031,-1.9868,-1.9933,-2.0031,-2.0226,-2.0258,-2.0096,-2.0096,-2.0161,-2.0161,-2.0161,-2.0096,-2.0009,-2.0128,-2.0226,-2.0063,-2.0031,-2.0484,-2.089,-2.1049,-2.129,-1.6641,-1.6472,-1.6402,-1.6682,-1.6872,-1.657,-1.6643,-1.6934,-1.6916,-1.7152,-1.7492,-1.7564,-1.7544,-1.7668,-1.7842,-1.8109,-1.8279,-1.8512,-1.8439,-1.8182,-1.809,-1.792,-1.7604,-1.7329,-1.726,-1.726,-1.7123,-1.6915,-1.7019,-1.6846,-1.6707,-1.7132,-1.6603,-1.628,-1.6184,-1.5921,-1.585,-1.6061,-1.6508,-1.689,-1.7063,-1.7201,-1.7279,-1.7339,-1.7339,-1.7417,-1.7495,-1.7536,-1.7634,-1.8091,-1.8463,-1.8734,-1.8593,-1.8421,-1.8518,-1.8481,-1.8454,-1.8604,-1.8734,-1.8632,-1.8502,-1.8311,-1.7875,-1.817,-1.8765,-1.91,-1.9484,-1.9857,-1.9844,-1.9947,-2.0073,-2.0119,-2.0153,-2.0081,-1.994,-1.9818,-1.9688,-1.9465,-1.9162,-1.91,-1.9,-1.8877,-1.8844,-1.8667,-1.859,-1.8412,-1.8321,-1.8162,-1.8395,-1.9065,-1.9341,-1.9605,-1.9398,-1.9233,-1.9266,-1.9199,-1.9474,-1.9639,-1.9704,-1.954,-1.9144,-1.9398,-1.9868,-1.9639,-1.9342,-1.9671,-1.9748,-1.9748,-1.9781,-1.9802,-1.9813,-1.9944,-2.0107,-2.0237,-2.0452,-1.6459,-1.6402,-1.6402,-1.6456,-1.6519,-1.6464,-1.6436,-1.651,-1.6152,-1.6262,-1.6646,-1.6717,-1.6853,-1.7042,-1.688,-1.7128,-1.7643,-1.7579,-1.7528,-1.7449,-1.7364,-1.7079,-1.6915,-1.6559,-1.6341,-1.6062,-1.5886,-1.5824,-1.5657,-1.548,-1.5338,-1.5338,-1.5196,-1.5303,-1.5267,-1.4999,-1.5141,-1.5355,-1.563,-1.6053,-1.6202,-1.6281,-1.6316,-1.6612,-1.6777,-1.6994,-1.7216,-1.7624,-1.7781,-1.8102,-1.8434,-1.8615,-1.8599,-1.8478,-1.8343,-1.8221,-1.8151,-1.8251,-1.8302,-1.8286,-1.8196,-1.8354,-1.8305,-1.8354,-1.8488,-1.8492,-1.8693,-1.9007,-1.9262,-1.9414,-1.9498,-1.9568,-1.9551,-1.9417,-1.9356,-1.917,-1.9046,-1.8644,-1.8271,-1.8134,-1.8032,-1.792,-1.7896,-1.7799,-1.7696,-1.7662,-1.7638,-1.7598,-1.7577,-1.7974,-1.8012,-1.8198,-1.809,-1.8003,-1.824,-1.8442,-1.8643,-1.8509,-1.8408,-1.8273,-1.8202,-1.8734,-1.9185,-1.8691,-1.8486,-1.891,-1.922,-1.9152,-1.9218,-1.9304,-1.9395,-1.9449,-1.9512,-1.9654,-1.9856,-1.572,-1.5749,-1.572,-1.572,-1.573,-1.5749,-1.573,-1.5672,-1.5342,-1.5313,-1.5546,-1.5682,-1.586,-1.6079,-1.5836,-1.6038,-1.6625,-1.651,-1.6455,-1.646,-1.6367,-1.6097,-1.5886,-1.5719,-1.548,-1.5161,-1.5081,-1.4947,-1.4561,-1.4641,-1.4705,-1.4569,-1.4569,-1.4569,-1.4569,-1.4605,-1.4669,-1.4919,-1.4955,-1.5106,-1.5371,-1.562,-1.5867,-1.6202,-1.6307,-1.6482,-1.6642,-1.7071,-1.7307,-1.7632,-1.7999,-1.8546,-1.8536,-1.8296,-1.8171,-1.8101,-1.8055,-1.797,-1.8079,-1.8089,-1.8027,-1.8193,-1.7942,-1.7692,-1.7915,-1.8017,-1.8471,-1.8798,-1.9143,-1.9325,-1.9239,-1.9243,-1.899,-1.8788,-1.8765,-1.8704,-1.8579,-1.8395,-1.8158,-1.8017,-1.7761,-1.7362,-1.7211,-1.6786,-1.6726,-1.6719,-1.6754,-1.698,-1.7007,-1.7185,-1.7149,-1.7148,-1.7259,-1.7379,-1.7672,-1.774,-1.774,-1.751,-1.7364,-1.7647,-1.7979,-1.8286,-1.8443,-1.8251,-1.8203,-1.8442,-1.8631,-1.8655,-1.8581,-1.8592,-1.8723,-1.8873,-1.8998,-1.923,-1.9567,-1.4922,-1.4893,-1.4922,-1.4922,-1.4893,-1.4922,-1.4922,-1.4834,-1.4529,-1.438,-1.438,-1.4499,-1.4617,-1.4816,-1.4808,-1.5078,-1.529,-1.5327,-1.5334,-1.5391,-1.5359,-1.5171,-1.4875,-1.4569,-1.4489,-1.4453,-1.4453,-1.4418,-1.4317,-1.4317,-1.4317,-1.4433,-1.4461,-1.4453,-1.4461,-1.4461,-1.4418,-1.4533,-1.4569,-1.4605,-1.4892,-1.5284,-1.5611,-1.5726,-1.577,-1.5805,-1.5908,-1.6208,-1.6576,-1.708,-1.7687,-1.8211,-1.8391,-1.8127,-1.799,-1.7941,-1.7803,-1.793,-1.8099,-1.7912,-1.7825,-1.7681,-1.719,-1.7214,-1.7527,-1.7822,-1.8288,-1.852,-1.8867,-1.8968,-1.89,-1.8807,-1.8456,-1.8244,-1.8266,-1.8197,-1.8109,-1.8062,-1.7932,-1.7811,-1.745,-1.6992,-1.6661,-1.6182,-1.6075,-1.6047,-1.6114,-1.6248,-1.6495,-1.6849,-1.6986,-1.7007,-1.709,-1.7178,-1.723,-1.722,-1.7171,-1.7249,-1.7234,-1.751,-1.7744,-1.7976,-1.8117,-1.8165,-1.8164,-1.8334,-1.8275,-1.8304,-1.8178,-1.8142,-1.8415,-1.8709,-1.8897,-1.9142,-1.952,-1.4893,-1.4893,-1.4893,-1.4863,-1.4863,-1.4863,-1.4804,-1.4499,-1.4013,-1.3752,-1.348,-1.3169,-1.3321,-1.4154,-1.3765,-1.3845,-1.4168,-1.4197,-1.4327,-1.4423,-1.447,-1.4358,-1.4173,-1.4,-1.3775,-1.3775,-1.3811,-1.3739,-1.392,-1.3855,-1.3746,-1.3775,-1.3739,-1.3739,-1.3739,-1.3775,-1.392,-1.4065,-1.4209,-1.4281,-1.4605,-1.4963,-1.5204,-1.5426,-1.562,-1.5735,-1.5968,-1.6473,-1.6718,-1.7077,-1.7547,-1.7969,-1.8118,-1.8032,-1.7925,-1.78,-1.7708,-1.773,-1.7819,-1.7781,-1.7717,-1.7856,-1.7638,-1.768,-1.7843,-1.7892,-1.8162,-1.8122,-1.836,-1.836,-1.8304,-1.8304,-1.8103,-1.8,-1.7957,-1.77,-1.7512,-1.7417,-1.732,-1.7285,-1.7184,-1.6974,-1.6867,-1.6604,-1.6596,-1.6602,-1.6636,-1.6752,-1.6778,-1.6876,-1.6944,-1.6966,-1.7031,-1.6729,-1.6647,-1.6775,-1.6801,-1.6921,-1.7079,-1.7328,-1.7511,-1.7584,-1.7737,-1.7924,-1.8115,-1.8286,-1.8202,-1.7981,-1.8165,-1.8239,-1.8432,-1.8661,-1.8811,-1.9024,-1.9382]},{"header":{"parameterUnit":"m.s-1","parameterCategory":1,"la1":31.0,"la2":29.5877,"lo1":-88.7671,"lo2":-86.6584,"dy":0.0162,"dx":0.0185,"nx":115,"ny":88,"refTime":"2024-08-14T06:00:00:Z","depth":0,"parameterNumber":3,"parameterNumberName":"V-component_of_WINDS"},"data":[0.0,0.0,0.0,0.0,0.0,0.0,0.0,0.0,0.0,0.0,0.0,0.0,0.0,0.0,0.0,0.0,0.0,0.0,0.0,0.0,0.0,0.0,0.0,0.0,0.0,0.0,0.0,0.0,0.0,0.0,0.0,0.0,0.0,0.0,0.0,0.0,0.0,0.0,0.0,0.0,0.0,0.0,0.0,0.0,0.0,0.0,0.0,0.0,0.0,0.0,0.0,0.0,0.0,0.0,0.0,0.0,0.0,0.0,0.0,0.0,0.0,0.0,0.0,0.0,0.0,0.0,0.0,0.0,0.0,0.0,0.0,0.0,0.0,0.0,0.0,0.0,0.0,0.0,0.0,0.0,0.0,0.0,0.0,0.0,0.0,0.0,0.0,0.0,0.0,0.0,0.0,0.0,0.0,0.0,0.0,0.0,0.0,0.0,0.0,0.0,0.0,0.0,0.0,0.0,0.0,0.0,0.0,0.0,0.0,0.0,0.0,0.0,0.0,0.0,0.0,0.0,0.0,0.0,0.0,0.0,0.0,0.0,0.0,0.0,0.0,0.0,0.0,0.0,0.0,0.0,0.0,0.0,0.0,0.0,0.0,0.0,0.0,0.0,0.0,0.0,0.0,0.0,0.0,0.0,0.0,0.0,0.0,0.0,0.0,0.0,0.0,0.0,0.0,0.0,0.0,0.0,0.0,0.0,0.0,0.0,0.0,0.0,0.0,0.0,0.0,0.0,0.0,0.0,0.0,0.0,0.0,0.0,0.0,0.0,0.0,0.0,0.0,0.0,0.0,0.0,0.0,0.0,0.0,0.0,0.0,0.0,0.0,0.0,0.0,0.0,0.0,0.0,0.0,0.0,0.0,0.0,0.0,0.0,0.0,0.0,0.0,0.0,0.0,0.0,0.0,0.0,0.0,0.0,0.0,0.0,0.0,0.0,0.0,0.0,0.0,0.0,0.0,0.0,0.0,0.0,0.0,0.0,0.0,0.0,0.0,0.0,0.0,0.0,0.0,0.0,0.0,0.0,0.0,0.0,0.0,0.0,0.0,0.0,0.0,0.0,0.0,0.0,0.0,0.0,0.0,0.0,0.0,0.0,0.0,0.0,0.0,0.0,0.0,0.0,0.0,0.0,0.0,0.0,0.0,0.0,0.0,0.0,0.0,0.0,0.0,0.0,0.0,0.0,0.0,0.0,0.0,0.0,0.0,0.0,0.0,0.0,0.0,0.0,0.0,0.0,0.0,0.0,0.0,0.0,0.0,0.0,0.0,0.0,0.0,0.0,0.0,0.0,0.0,0.0,0.0,0.0,0.0,0.0,0.0,0.0,0.0,0.0,0.0,0.0,0.0,0.0,0.0,0.0,0.0,0.0,0.0,0.0,0.0,0.0,0.0,0.0,0.0,0.0,0.0,0.0,0.0,0.0,0.0,0.0,0.0,0.0,0.0,0.0,0.0,0.0,0.0,0.0,0.0,0.0,0.0,0.0,0.0,0.0,0.0,0.0,0.0,0.0,0.0,0.0,0.0,0.0,0.0,0.0,0.0,0.0,0.0,0.0,0.0,0.0,0.0,0.0,0.0,0.0,0.0,0.0,0.0,0.0,0.0,0.0,0.0,0.0,0.0,0.0,0.0,0.0,0.0,0.0,0.0,0.0,0.0,0.0,0.0,0.0,0.0,0.0,0.0,0.0,0.0,0.0,0.0,0.0,0.0,0.0,0.0,0.0,0.0,0.0,0.0,0.0,0.0,0.0,0.0,0.0,0.0,0.0,0.0,0.0,0.0,0.0,0.0,0.0,0.0,0.0,0.0,0.0,0.0,0.0,0.0,0.0,0.0,0.0,0.0,0.0,0.0,0.0,0.0,0.0,0.0,0.0,0.0,0.0,0.0,0.0,0.0,0.0,0.0,0.0,0.0,0.0,0.0,0.0,0.0,0.0,0.0,0.0,0.0,0.0,0.0,0.0,0.0,0.0,0.0,0.0,0.0,0.0,0.0,0.0,0.0,0.0,0.0,0.0,0.0,0.0,0.0,0.0,0.0,0.0,0.0,0.0,0.0,0.0,0.0,0.0,0.0,0.0,0.0,0.0,0.0,0.0,0.0,0.0,0.0,0.0,0.0,0.0,0.0,0.0,0.0,0.0,0.0,0.0,0.0,0.0,0.0,0.0,0.0,0.0,0.0,0.0,0.0,0.0,0.0,0.0,0.0,0.0,0.0,0.0,0.0,0.0,0.0,0.0,0.0,0.0,0.0,0.0,0.0,0.0,0.0,0.0,0.0,0.0,0.0,0.0,0.0,0.0,0.0,0.0,0.0,0.0,0.0,0.0,0.0,0.0,0.0,0.0,0.0,0.0,0.0,0.0,0.0,0.0,0.0,0.0,0.0,0.0,0.0,0.0,0.0,0.0,0.0,0.0,0.0,0.0,0.0,0.0,0.0,0.0,0.0,0.0,0.0,0.0,0.0,0.0,0.0,0.0,0.0,0.0,0.0,0.0,0.0,0.0,0.0,0.0,0.0,0.0,0.0,0.0,0.0,0.0,0.0,0.0,0.0,0.0,0.0,0.0,0.0,0.0,0.0,0.0,0.0,0.0,0.0,0.0,0.0,0.0,0.0,0.0,0.0,0.0,0.0,0.0,0.0,0.0,0.0,0.0,0.0,0.0,0.0,0.0,0.0,0.0,0.0,0.0,0.0,0.0,0.0,0.0,0.0,0.0,0.0,0.0,0.0,0.0,0.0,0.0,0.0,0.0,0.0,0.0,0.0,0.0,0.0,0.0,0.0,0.0,0.0,0.0,0.0,0.0,0.0,0.0,0.0,0.0,0.0,0.0,0.0,0.0,0.0,0.0,0.0,0.0,0.0,0.0,0.0,0.0,0.0,0.0,0.0,0.0,0.0,0.0,0.0,0.0,0.0,0.0,0.0,0.0,0.0,0.0,0.0,0.0,0.0,0.0,0.0,0.0,0.0,0.0,0.0,0.0,0.0,0.0,0.0,0.0,0.0,0.0,0.0,0.0,0.0,0.0,0.0,0.0,0.0,0.0,0.0,0.0,0.0,0.0,0.0,0.0,0.0,0.0,0.0,0.0,0.0,0.0,0.0,0.0,0.0,0.0,0.0,0.0,0.0,0.0,0.0,0.0,0.0,0.0,0.0,0.0,0.0,0.0,0.0,0.0,0.0,0.0,0.0,0.0,0.0,0.0,0.0,0.0,0.0,0.0,0.0,0.0,0.0,0.0,0.0,0.0,0.0,0.0,0.0,0.0,0.0,0.0,0.0,0.0,0.0,0.0,0.0,0.0,0.0,0.0,0.0,0.0,0.0,0.0,0.0,0.0,0.0,0.0,0.0,0.0,0.0,0.0,0.0,0.0,0.0,0.0,0.0,0.0,0.0,0.0,0.0,0.0,0.0,0.0,0.0,0.0,0.0,0.0,0.0,0.0,0.0,0.0,0.0,0.0,0.0,0.0,0.0,0.0,0.0,0.0,0.0,0.0,0.0,0.0,0.0,0.0,0.0,0.0,0.0,0.0,0.0,0.0,0.0,0.0,0.0,0.0,0.0,0.0,0.0,0.0,0.0,0.0,0.0,0.0,0.0,0.0,0.0,0.0,0.0,0.0,0.0,0.0,0.0,0.0,0.0,0.0,0.0,0.0,0.0,0.0,0.0,0.0,0.0,0.0,0.0,0.0,0.0,0.0,0.0,0.0,0.0,0.0,0.0,0.0,0.0,0.0,0.0,0.0,0.0,0.0,0.0,0.0,0.0,0.0,0.0,0.0,0.0,0.0,0.0,0.0,0.0,0.0,0.0,0.0,0.0,0.0,0.0,0.0,0.0,0.0,0.0,0.0,0.0,0.0,0.0,0.0,0.0,0.0,0.0,0.0,0.0,0.0,0.0,0.0,0.0,0.0,0.0,0.0,0.0,0.0,0.0,0.0,0.0,0.0,0.0,0.0,0.0,0.0,0.0,0.0,0.0,0.0,0.0,0.0,0.0,0.0,0.0,0.0,0.0,0.0,0.0,0.0,0.0,0.0,0.0,0.0,0.0,0.0,0.0,0.0,0.0,0.0,0.0,0.0,0.0,0.0,0.0,0.0,0.0,0.0,0.0,0.0,0.0,0.0,0.0,0.0,0.0,0.0,0.0,0.0,0.0,0.0,0.0,0.0,0.0,0.0,0.0,0.0,0.0,0.0,0.0,0.0,0.0,0.0,0.0,0.0,0.0,0.0,0.0,0.0,0.0,0.0,0.0,0.0,0.0,0.0,0.0,0.0,0.0,0.0,0.0,0.0,0.0,0.0,0.0,0.0,0.0,0.0,0.0,0.0,0.0,0.0,0.0,0.0,0.0,0.0,0.0,0.0,0.0,0.0,0.0,0.0,0.0,0.0,0.0,0.0,0.0,0.0,0.0,0.0,0.0,0.0,0.0,0.0,0.0,0.0,0.0,0.0,0.0,0.0,0.0,0.0,0.0,0.0,0.0,0.0,0.0,0.0,0.0,0.0,0.0,0.0,0.0,0.0,0.0,0.0,0.0,0.0,0.0,0.0,0.0,0.0,0.0,0.0,0.0,0.0,0.0,0.0,0.0,0.0,0.0,0.0,0.0,0.0,0.0,0.0,0.0,0.0,0.0,0.0,0.0,0.0,0.0,0.0,0.0,0.0,0.0,0.0,0.0,0.0,0.0,0.0,0.0,0.0,0.0,0.0,0.0,0.0,0.0,0.0,0.0,0.0,0.0,0.0,0.0,0.0,0.0,0.0,0.0,0.0,0.0,0.0,0.0,0.0,0.0,0.0,0.0,0.0,0.0,0.0,0.0,0.0,0.0,0.0,0.0,0.0,0.0,0.0,0.0,0.0,0.0,0.0,0.0,0.0,0.0,0.0,0.0,0.0,0.0,0.0,0.0,0.0,0.0,0.0,0.0,0.0,0.0,0.0,0.0,0.0,0.0,0.0,0.0,0.0,0.0,0.0,0.0,0.0,0.0,0.0,0.0,0.0,0.0,0.0,0.0,0.0,0.0,0.0,0.0,0.0,0.0,0.0,0.0,0.0,0.0,0.0,0.0,0.0,0.0,0.0,0.0,0.0,0.0,0.0,0.0,0.0,0.0,0.0,0.0,0.0,0.0,0.0,0.0,0.0,0.0,0.0,0.0,0.0,0.0,0.0,0.0,0.0,0.0,0.0,0.0,0.0,0.0,0.0,0.0,0.0,0.0,0.0,0.0,0.0,0.0,0.0,0.0,0.0,0.0,0.0,0.0,0.0,0.0,0.0,0.0,0.0,0.0,0.0,0.0,0.0,0.0,0.0,0.0,0.0,0.0,0.0,0.0,0.0,0.0,0.0,0.0,0.0,0.0,0.0,0.0,0.0,0.0,0.0,0.0,0.0,0.0,0.0,0.0,0.0,0.0,0.0,0.0,0.0,0.0,0.0,0.0,0.0,0.0,0.0,0.0,0.0,0.0,0.0,0.0,0.0,0.0,0.0,0.0,0.0,0.0,0.0,0.0,0.0,0.0,0.0,0.0,0.0,0.0,0.0,0.0,0.0,0.0,0.0,0.0,0.0,0.0,0.0,0.0,0.0,0.0,0.0,0.0,0.0,0.0,0.0,0.0,0.0,0.0,0.0,0.0,0.0,0.0,0.0,0.0,0.0,0.0,0.0,0.0,0.0,0.0,0.0,0.0,0.0,0.0,0.0,0.0,0.0,0.0,0.0,0.0,0.0,0.0,0.0,0.0,0.0,0.0,0.0,0.0,0.0,0.0,0.0,0.0,0.0,0.0,0.0,0.0,0.0,0.0,0.0,0.0,0.0,0.0,0.0,0.0,0.0,0.0,0.0,0.0,0.0,0.0,0.0,0.0,0.0,0.0,0.0,0.0,0.0,0.0,0.0,0.0,0.0,0.0,0.0,0.0,0.0,0.0,0.0,0.0,0.0,0.0,0.0,0.0,0.0,0.0,0.0,0.0,0.0,0.0,0.0,0.0,0.0,0.0,0.0,0.0,0.0,0.0,0.0,0.0,0.0,0.0,0.0,0.0,0.0,0.0,0.0,0.0,0.0,0.0,0.0,0.0,0.0,0.0,0.0,0.0,0.0,0.0,0.0,0.0,0.0,0.0,0.0,0.0,0.0,0.0,0.0,0.0,0.0,0.0,0.0,0.0,0.0,0.0,0.0,0.0,0.0,0.0,0.0,0.0,0.0,0.0,0.0,0.0,0.0,0.0,0.0,0.0,0.0,0.0,0.0,0.0,0.0,0.0,0.0,0.0,0.0,0.0,0.0,0.0,0.0,0.0,0.0,0.0,0.0,0.0,0.0,0.0,0.0,0.0,0.0,0.0,0.0,0.0,0.0,0.0,0.0,0.0,0.0,0.0,0.0,0.0,0.0,0.0,0.0,0.0,0.0,0.0,0.0,0.0,0.0,0.0,0.0,0.0,0.0,0.0,0.0,0.0,0.0,0.0,0.0,0.0,0.0,0.0,0.0,0.0,0.0,0.0,0.0,0.0,0.0,0.0,0.0,0.0,0.0,0.0,0.0,0.0,0.0,0.0,0.0,0.0,0.0,0.0,0.0,0.0,0.0,0.0,0.0,0.0,0.0,0.0,0.0,0.0,0.0,0.0,0.0,0.0,0.0,0.0,0.0,0.0,0.0,0.0,0.0,0.0,0.0,0.0,0.0,0.0,0.0,0.0,0.0,0.0,0.0,0.0,0.0,0.0,0.0,0.0,0.0,0.0,0.0,0.0,0.0,0.0,0.0,0.0,0.0,0.0,0.0,0.0,0.0,0.0,0.0,0.0,0.0,0.0,0.0,0.0,0.0,0.0,0.0,0.0,0.0,0.0,0.0,0.0,0.0,0.0,0.0,0.0,0.0,0.0,0.0,0.0,0.0,0.0,0.0,0.0,0.0,0.0,0.0,0.0,0.0,0.0,0.0,0.0,0.0,0.0,0.0,0.0,0.0,0.0,0.0,0.0,0.0,0.0,0.0,0.0,0.0,0.0,0.0,0.0,0.0,0.0,0.0,0.0,0.0,0.0,0.0,0.0,0.0,0.0,0.0,0.0,0.0,0.0,0.0,0.0,0.0,0.0,0.0,0.0,0.0,0.0,0.0,0.0,0.0,0.0,0.0,0.0,0.0,0.0,0.0,0.0,0.0,0.0,0.0,0.0,0.0,0.0,0.0,0.0,0.0,0.0,0.0,0.0,0.0,0.0,0.0,0.0,0.0,0.0,0.0,0.0,0.0,0.0,0.0,0.0,0.0,0.0,0.0,0.0,0.0,0.0,0.0,0.0,0.0,0.0,0.0,0.0,0.0,0.0,0.0,0.0,0.0,0.0,0.0,0.0,0.0,0.0,0.0,0.0,0.0,0.0,0.0,0.0,0.0,0.0,0.0,0.0,0.0,0.0,0.0,0.0,0.0,0.0,0.0,0.0,0.0,0.0,0.0,0.0,0.0,0.0,0.0,0.0,0.0,0.0,0.0,0.0,0.0,0.0,0.0,0.0,0.0,0.0,0.0,0.0,0.0,0.0,0.0,0.0,0.0,0.0,0.0,0.0,0.0,0.0,0.0,0.0,0.0,0.0,0.0,0.0,0.0,0.0,0.0,0.0,0.0,0.0,0.0,0.0,0.0,0.0,0.0,0.0,0.0,0.0,0.0,0.0,0.0,0.0,0.0,0.0,0.0,0.0,0.0,0.0,0.0,0.0,0.0,0.0,0.0,0.0,0.0,0.0,0.0,0.0,0.0,0.0,0.0,0.0,0.0,0.0,0.0,0.0,0.0,0.0,0.0,0.0,0.0,0.0,0.0,0.0,0.0,0.0,0.0,0.0,0.0,0.0,0.0,0.0,0.0,0.0,0.0,0.0,0.0,0.0,0.0,0.0,0.0,0.0,0.0,0.0,0.0,0.0,0.0,0.0,0.0,0.0,0.0,0.0,0.0,0.0,0.0,0.0,0.0,0.0,0.0,0.0,0.0,0.0,0.0,0.0,0.0,0.0,0.0,0.0,0.0,0.0,0.0,0.0,0.0,0.0,0.0,0.0,0.0,0.0,0.0,0.0,0.0,0.0,0.0,0.0,0.0,0.0,0.0,0.0,0.0,0.0,0.0,0.0,0.0,0.0,0.0,0.0,0.0,0.0,0.0,0.0,0.0,0.0,0.0,0.0,0.0,0.0,0.0,0.0,0.0,0.0,0.0,0.0,0.0,0.0,0.0,0.0,0.0,0.0,0.0,0.0,0.0,0.0,0.0,0.0,0.0,0.0,0.0,0.0,0.0,0.0,0.0,0.0,0.0,0.0,0.0,0.0,0.0,0.0741,0.0,0.0782,0.0,0.0445,0.0296,0.0,0.0,0.0,0.0,0.0,0.0,0.0,0.0,0.0,0.0,0.0,0.0,0.0,0.0,0.0,0.0,0.0,0.0,0.0,0.0,0.0,0.0,0.0,0.0,0.0,0.0,0.0,0.0,0.0,0.0,0.0,0.0,0.0,0.0,0.0,0.0,0.0,0.0,0.0,0.0,0.0,0.0,0.0,0.0,0.0,0.0,0.0,0.0,0.0,0.0,0.0,0.0,0.0,0.0,0.0,0.0,0.0,0.0,0.0,0.0,0.0,0.0,0.0,0.0,0.0,0.0,0.0,0.0,0.0,0.0,0.0,0.0,0.0,0.0,0.0,0.0,0.0,0.0,0.0,0.0,0.0,0.0,0.0,0.0,0.0,0.0,0.0,0.0,0.0,0.0,0.0,0.0,0.0,0.0,0.0,0.0,0.0,0.0,0.0,0.0,0.0,0.0,0.0,0.0,0.0,0.0,0.0,0.0,0.1969,0.2248,0.2638,0.2328,0.1426,0.1388,0.0939,0.0,0.0,0.0,0.0,0.0,0.0,0.0,0.0,0.0,0.0,0.0,0.0,0.0,0.0,0.0,0.0,0.0,0.0,0.0,0.0,0.0,0.0,0.0,0.0,0.0,0.0,0.0,0.0,0.0,0.0,0.0,0.0,0.0,0.0,0.0,0.0,0.0,0.0,0.0,0.0,0.0,0.0,0.0,0.0,0.0,0.0,0.0,0.0,0.0,0.0,0.0,0.0,0.0,0.0,0.0,0.0,0.0,0.0,0.0,0.0,0.0,0.0,0.0,0.0,0.0,0.0,0.0,0.0,0.0,0.0,0.0,0.0,0.0,0.0,0.0,0.0,0.0,0.0,0.0,0.0,0.0,0.0,0.0,0.0,0.0,0.0,0.0,0.0,0.0,0.0,0.0,0.0,0.0,0.0,0.0,0.0,0.0,0.0,0.0,0.0,0.0,0.0,0.0,0.0,0.0,0.0,0.0,0.0,0.0,0.2501,0.2744,0.2775,0.2503,0.1785,0.1295,0.0,0.0,0.0,0.0,0.0,0.0,0.0,0.0,0.0,0.0,0.0,0.0,0.0,0.0,0.0,0.0,0.0,0.0,0.0,0.0,0.0,0.0,0.0,0.0,0.0,0.0,0.0,0.0,0.0,0.0,0.0,0.0,0.0,0.0,0.0,0.0,0.0,0.0,0.0,0.0,0.0,0.0,0.0,0.0,0.0,0.0,0.0,0.0,0.0,0.0,0.0,0.0,0.0,0.0,0.0,0.0,0.0,0.0,0.0,0.0,0.0,0.0,0.0,0.0,0.0,0.0,0.0,0.0,0.0,0.0,0.0,0.0,0.0,0.0,0.0,0.0,0.0,0.0,0.0,0.0,0.0,0.0,0.0,0.0,0.0,0.0,0.0,0.0,0.0,0.0,0.0,0.0,0.0,0.0,0.0,0.0,0.0,0.0,0.0,0.0,0.0,0.0,0.0,0.0,0.0,0.0,0.0,0.0,0.0,0.3617,0.3857,0.3867,0.3576,0.2873,0.2202,0.154,0.0,0.0,0.0,0.0,0.0,0.0,0.0,0.0,0.0,0.0,0.0,0.0,0.0,0.0,0.0,0.0,0.0,0.0,0.0,0.0,0.0,0.0,0.0,0.0,0.0,0.0,0.0,0.0,0.0,0.0,0.0,0.0,0.0,0.0,0.0,0.0,0.0,0.0,0.0,0.0,0.0,0.0,0.0,0.0,0.0,0.0,0.0,0.0,0.0,0.0,0.0,0.0,0.0,0.0,0.0,0.0,0.0,0.0,0.0,0.0,0.0,0.0,0.0,0.0,0.0,0.0,0.0,0.0,0.0,0.0,0.0,0.0,0.0,0.0,0.0,0.0,0.0,0.0,0.0,0.0,0.0,0.0,0.0,0.0,0.0,0.0,0.0,0.0,0.0,0.0,0.0,0.0,0.0,0.0,0.0,0.0,0.0,0.0,0.0,0.0,0.0,0.0,0.0,0.0,0.0,0.0,0.0,0.0,0.5407,0.5733,0.5445,0.4622,0.4369,0.3419,0.0,0.0,0.0,0.0,0.0,0.0,0.0,0.0,0.0,0.0,0.0,0.0,0.0,0.0,0.0,0.0,0.0,0.0,0.0,0.0,0.0,0.0,0.0,0.0,0.0,0.0,0.0,0.0,0.0,0.0,0.0,0.0,0.0,0.0,0.0,0.0,0.0,0.0,0.0,0.0,0.0,0.0,0.0,0.0,0.0,0.0,0.0,0.0,0.0,0.0,0.0,0.0,0.0,0.0,0.0,0.0,0.0,0.0,0.0,0.0,0.0,0.0,0.0,0.0,0.0,0.0,0.0,0.0,0.0,0.0,0.0,0.0,0.0,0.0,0.0,0.0,0.0,0.0,0.0,0.0,0.0,0.0,0.0,0.0,0.0,0.0,0.0,0.0,0.0,0.0,0.0,0.0,0.0,0.0,0.0,0.0,0.0,0.0,0.0,0.0,0.0,0.0,0.0,0.0,0.0,0.0,0.0,0.0,0.0,0.5374,0.5939,0.6009,0.5541,0.4716,0.393,0.0,0.0,0.0,0.0,0.0,0.0,0.0,0.0,0.0,0.0,0.0,0.0,0.0,0.0,0.0,0.0,0.0,0.0,0.0,0.0,0.0,0.0,0.0,0.0,0.0,0.0,0.0,0.0,0.0,0.0,0.0,0.0,0.0,0.0,0.0,0.0,0.0,0.0,0.0,0.0,0.0,0.0,0.0,0.0,0.0,0.0,0.0,0.0,0.0,0.0,0.0,0.0,0.0,0.0,0.0,0.0,0.0,0.0,0.0,0.0,0.0,0.0,0.0,0.0,0.0,0.0,0.0,0.0,0.0,0.0,0.0,0.0,0.0,0.0,0.0,0.0,0.0,0.0,0.0,0.0,0.0,0.0,0.0,0.0,0.0,0.0,0.0,0.0,0.0,0.0,0.0,0.0,0.0,0.0,0.0,0.0,0.0,0.0,0.0,0.0,0.0,0.0,0.0,0.0,0.0,0.0,0.0,0.0,0.523,0.5521,0.6057,0.6151,0.5909,0.5285,0.4622,0.0,0.0,0.0,0.0,0.0,0.0,0.0,0.0,0.0,0.0,0.0,0.0,0.0,0.0,0.0,0.0,0.0,0.0,0.0,0.0,0.0,0.0,0.0,0.0,0.0,0.0,0.0,0.0,0.0,0.0,0.0,0.0,0.0,0.0,0.0,0.0,0.0,0.0,0.0,0.0,0.0,0.0,0.0,0.0,0.0,0.0,0.0,0.0,0.0,0.0,0.0,0.0,0.0,0.0,0.0,0.0,0.0,0.0,0.0,0.0,0.0,0.0,0.0,0.0,0.0,0.0,0.0,0.0,0.0,0.0,0.0,0.0,0.0,0.0,0.0,0.0,0.0,0.0,0.0,0.0,0.0,0.0,0.0,0.0,0.0,0.0,0.0,0.0,0.0,0.0,0.0,0.0,0.0,0.0,0.0,0.0,0.0,0.0,0.0,0.0,0.0,0.0,0.0,0.0,0.0,0.0,0.0,0.0,0.541,0.5667,0.6064,0.6138,0.5915,0.589,0.5246,0.0,0.0,0.0,0.0,0.0,0.0,0.0,0.0,0.0,0.0,0.0,0.0,0.0,0.0,0.0,0.0,0.0,0.0,0.0,0.0,0.0,0.0,0.0,0.0,0.0,0.0,0.0,0.0,0.0,0.0,0.0,0.0,0.0,0.0,0.0,0.0,0.0,0.0,0.0,0.0,0.0,0.0,0.0,0.0,0.0,0.0,0.0,0.0,0.0,0.0,0.0,0.0,0.0,0.0,0.0,0.0,0.0,0.0,0.0,0.0,0.0,0.0,0.0,0.0,0.0,0.0,0.0,0.0,0.0,0.0,0.0,0.0,0.0,0.0,0.0,0.0,0.0,0.0,0.0,0.0,0.0,0.0,0.0,0.0,0.0,0.0,0.0,0.0,0.0,0.0,0.0,0.0,0.0,0.0,0.0,0.0,0.0,0.0,0.0,0.0,0.0,0.0,0.0,0.0,0.0,0.0,0.0,0.0,0.5583,0.5545,0.5939,0.6053,0.5907,0.5817,0.5347,0.0,0.0,0.0,0.0,0.0,0.0,0.0,0.0,0.0,0.0,0.0,0.0,0.0,0.0,0.0,0.0,0.0,0.0,0.0,0.0,0.0,0.0,0.0,0.0,0.0,0.0,0.0,0.0,0.0,0.0,0.0,0.0,0.0,0.0,0.0,0.0,0.0,0.0,0.0,0.0,0.0,0.0,0.0,0.0,0.0,0.0,0.0,0.0,0.1675,0.0,0.0,0.0,0.0,0.0,0.0,0.0,0.0,0.0,0.0,0.0,0.0,0.0,0.0,0.0,0.0,0.0,0.0,0.0,0.0,0.0,0.0,0.0,0.0,0.0,0.0,0.0,0.0,0.0,0.0,0.0,0.0,0.0,0.0,0.0,0.0,0.0,0.0,0.0,0.0,0.0,0.0,0.0,0.0,0.0,0.0,0.0,0.0,0.0,0.0,0.0,0.0,0.0,0.0,0.0,0.0,0.0,0.0,0.0,0.5836,0.5763,0.6059,0.6111,0.5901,0.5735,0.5321,0.0,0.0,0.0,0.0,0.0,0.0,0.0,0.0,0.0,0.0,0.0,0.0,0.0,0.0,0.0,0.0,0.0,0.0,0.0,0.0,0.0,0.0,0.0,0.0,0.0,0.0,0.0,0.0,0.0,0.0,0.0,0.0,0.0,0.0,0.0,0.0,0.0,0.0,0.0,0.0,0.0,0.0,0.0,0.0,0.0,0.0,0.0,0.0,0.0,0.0,0.0,0.0,0.0,0.0,0.0,0.0,0.0,0.0,0.0,0.0,0.0,0.0,0.0,0.0,0.0,0.0,0.0,0.0,0.0,0.0,0.0,0.0,0.0,0.0,0.0,0.0,0.0,0.0,0.0,0.0,0.0,0.0,0.0,0.0,0.0,0.0,0.0,0.0,0.0,0.0,0.0,0.0,0.0,0.0,0.0,0.0,0.0,0.0,0.0,0.0,0.0,0.0,0.0,0.0,0.0,0.0,0.0,0.5722,0.6039,0.616,0.6235,0.6199,0.5917,0.5709,0.5322,0.4817,0.0,0.0,0.0,0.0,0.0,0.0,0.0,0.0,0.0,0.0,0.0,0.0,0.0,0.0,0.0,0.0,0.0,0.0,0.0,0.0,0.0,0.0,0.0,0.0,0.0,0.0,0.0,0.0,0.0,0.0,0.0,0.0,0.0,0.0,0.0,0.0,0.0,0.0,0.624,0.59,0.0,0.0,0.0,0.0,0.0,0.0,0.0,0.0,0.1861,0.0,0.0,0.0,0.0,0.0,0.0,0.0,0.0,0.0,0.0,0.0,0.0,0.0,0.0,0.0,0.0,0.0,0.0,0.0,0.0,0.0,0.0,0.0,0.0,0.0,0.0,0.0,0.0,0.0,0.0,0.0,0.0,0.0,0.0,0.0,0.0,0.0,0.0,0.0,0.0,0.0,0.0,0.0,0.0,0.0,0.0,0.0,0.0,0.0,0.0,0.0,0.0,0.0,0.0,0.0,0.0,0.5787,0.5873,0.6059,0.6328,0.6364,0.6287,0.6067,0.5924,0.5526,0.482,0.0,0.0,0.0,0.0,0.0,0.0,0.0,0.0,0.0,0.0,0.0,0.0,0.0,0.0,0.0,0.0,0.0,0.0,0.0,0.0,0.0,0.0,0.0,0.0,0.0,0.0,0.0,0.0,0.0,0.0,0.0,0.0,0.0,0.0,0.0,0.0,0.0,0.0,0.0,0.7117,0.7026,0.0,0.0,0.0,0.0,0.0,0.0,0.0,0.0,0.139,0.0,0.0,0.0,0.0,0.0,0.0,0.0,0.0,0.0,0.0,0.0,0.0,0.0,0.0,0.0,0.0,0.0,0.0,0.0,0.0,0.0,0.0,0.0,0.0,0.0,0.0,0.0,0.0,0.0,0.0,0.0,0.0,0.0,0.0,0.0,0.0,0.0,0.0,0.0,0.0,0.0,0.0,0.0,0.0,0.0,0.0,0.0,0.0,0.0,0.0,0.0,0.0,0.0,0.0,0.0,0.5749,0.6053,0.6291,0.6483,0.6393,0.6273,0.6049,0.58,0.5366,0.0,0.0,0.0,0.0,0.0,0.0,0.0,0.0,0.0,0.0,0.0,0.0,0.0,0.0,0.0,0.0,0.0,0.0,0.0,0.0,0.0,0.0,0.0,0.0,0.0,0.0,0.0,0.0,0.0,0.0,0.0,0.0,0.0,0.0,0.0,0.0,0.0,0.0,0.0,0.0,0.7679,0.747,0.6588,0.0,0.0,0.0,0.0,0.0,0.0,0.2191,0.1986,0.0,0.0,0.0,0.0,0.0,0.0,0.0,0.0,0.0,0.0,0.0,0.0,0.0,0.0,0.0,0.0,0.0,0.0,0.0,0.0,0.0,0.0,0.0,0.0,0.0,0.0,0.0,0.0,0.0,0.0,0.0,0.0,0.0,0.0,0.0,0.0,0.0,0.0,0.0,0.0,0.0,0.0,0.0,0.0,0.0,0.0,0.0,0.0,0.0,0.0,0.0,0.0,0.0,0.0,0.0,0.5599,0.6115,0.6461,0.66,0.6444,0.6242,0.6027,0.5694,0.527,0.0,0.0,0.0,0.0,0.0,0.0,0.0,0.0,0.0,0.0,0.0,0.0,0.0,0.0,0.0,0.0,0.0,0.0,0.0,0.0,0.0,0.0,0.0,0.0,0.0,0.0,0.0,0.0,0.0,0.0,0.0,0.0,0.0,0.0,0.0,0.0,0.0,0.0,0.0,0.0,0.0,0.7942,0.7299,0.6856,0.0,0.0,0.0,0.0,0.2691,0.2525,0.0,0.0,0.0,0.0,0.0,0.0,0.0,0.0,0.0,0.0,0.0,0.0,0.0,0.0,0.0,0.0,0.0,0.0,0.0,0.0,0.0,0.0,0.0,0.0,0.0,0.0,0.0,0.0,0.0,0.0,0.0,0.0,0.0,0.0,0.0,0.0,0.0,0.0,0.0,0.0,0.0,0.0,0.0,0.0,0.0,0.0,0.0,0.0,0.0,0.0,0.0,0.0,0.0,0.0,0.0,0.0,0.5583,0.5915,0.6252,0.6654,0.658,0.6341,0.6099,0.593,0.551,0.0,0.0,0.0,0.0,0.0,0.0,0.0,0.0,0.0,0.0,0.0,0.0,0.0,0.0,0.0,0.0,0.0,0.0,0.0,0.0,0.0,0.0,0.0,0.0,0.0,0.0,0.0,0.0,0.0,0.0,0.0,0.0,0.0,0.0,0.0,0.0,0.0,0.0,0.0,0.0,0.0,0.9037,0.8028,0.7639,0.7032,0.0,0.0,0.3591,0.325,0.2817,0.0,0.0,0.0,0.0,0.0,0.0,0.0,0.0,0.0,0.0,0.0,0.0,0.0,0.0,0.0,0.0,0.0,0.0,0.0,0.0,0.0,0.0,0.0,0.0,0.0,0.0,0.0,0.0,0.0,0.0,0.0,0.0,0.0,0.0,0.0,0.0,0.0,0.0,0.0,0.0,0.0,0.0,0.0,0.0,0.0,0.0,0.0,0.0,0.0,0.0,0.0,0.0,0.0,0.0,0.0,0.51,0.5302,0.5669,0.6,0.6302,0.6169,0.6057,0.5944,0.5722,0.5374,0.0,0.0,0.0,0.0,0.0,0.0,0.0,0.0,0.0,0.0,0.0,0.0,0.0,0.0,0.0,0.0,0.0,0.0,0.0,0.0,0.0,0.0,0.0,0.0,0.0,0.0,0.0,0.0,0.0,0.0,0.0,0.0,0.0,0.0,0.0,0.0,0.0,0.0,0.0,0.0,0.0,0.0,0.8416,0.8034,0.0,0.0,0.0,0.4092,0.3376,0.0,0.0,0.0,0.0,0.0,0.0,0.0,0.0,0.0,0.0,0.0,0.0,0.0,0.0,0.0,0.0,0.0,0.0,0.0,0.0,0.0,0.0,0.0,0.0,0.0,0.0,0.0,0.0,0.0,0.0,0.0,0.0,0.0,0.0,0.0,0.0,0.0,0.0,0.0,0.0,0.0,0.0,0.0,0.0,0.0,0.0,0.0,0.0,0.0,0.0,0.0,0.0,0.0,0.0,0.0,0.0,0.0,0.5614,0.6085,0.6393,0.6471,0.6359,0.6203,0.5987,0.5932,0.0,0.0,0.0,0.0,0.0,0.0,0.0,0.0,0.0,0.0,0.0,0.0,0.0,0.0,0.0,0.0,0.0,0.0,0.0,0.0,0.0,0.0,0.0,0.0,0.0,0.0,0.0,0.5744,0.0,0.0,0.0,0.0,0.0,0.0,0.0,0.0,0.0,0.0,0.0,0.0,0.0,0.0,0.9068,0.8816,0.8488,0.784,0.0,0.0,0.4721,0.3784,0.3544,0.3213,0.0,0.0,0.0,0.0,0.0,0.0,0.0,0.0,0.0,0.0,0.0,0.0,0.0,0.0,0.0,0.0,0.0,0.0,0.0,0.0,0.0,0.0,0.0,0.0,0.0,0.0,0.0,0.0,0.0,0.0,0.0,0.0,0.0,0.0,0.0,0.0,0.0,0.0,0.0,0.0,0.0,0.0,0.0,0.0,0.0,0.0,0.0,0.0,0.0,0.0,0.0,0.0,0.0,0.0,0.0,0.6984,0.7482,0.7752,0.7761,0.764,0.7227,0.6585,0.6934,0.6461,0.0,0.0,0.0,0.0,0.0,0.0,0.0,0.0,0.0,0.0,0.0,0.0,0.0,0.0,0.0,0.0,0.0,0.0,0.0,0.0,0.0,0.0,0.0,0.0,0.0,0.0,0.0,0.0,0.0,0.0,0.0,0.0,0.0,0.0,0.0,0.0,0.0,0.0,0.0,0.0,0.0,0.9498,0.9288,0.9049,0.8623,0.0,0.0,0.541,0.4736,0.4199,0.3647,0.3062,0.0,0.0,0.0,0.0,0.0,0.0,0.0,0.0,0.0,0.0,0.0,0.0,0.0,0.0,0.0,0.0,0.0,0.0,0.0,0.0,0.0,0.0,0.0,0.0,0.0,0.0,0.0,0.0,0.0,0.0,0.0,0.0,0.0,0.0,0.0,0.0,0.0,0.0,0.0,0.0,0.0,0.0,0.0,0.0,0.0,0.0,0.0,0.0,0.0,0.0,0.0,0.0,0.0,0.692,0.693,0.734,0.7591,0.7582,0.7541,0.7404,0.7105,0.726,0.6935,0.0,0.0,0.0,0.0,0.0,0.0,0.0,0.0,0.0,0.0,0.0,0.0,0.0,0.0,0.0,0.0,0.0,0.0,0.0,0.0,0.0,0.0,0.0,0.0,0.0,0.0,0.0,0.0,0.6243,0.6247,0.621,0.0,0.0,0.0,0.0,0.0,0.0,0.0,0.0,0.0,0.0,0.9511,0.9682,0.9179,0.0,0.0,0.7561,0.646,0.5544,0.5119,0.4533,0.3601,0.3306,0.0,0.0,0.0,0.0,0.0,0.0,0.0,0.0,0.0,0.0,0.0,0.0,0.0,0.0,0.0,0.0,0.0,0.0,0.0,0.0,0.0,0.0,0.0,0.0,0.0,0.0,0.0,0.0,0.0,0.0,0.0,0.0,0.0,0.0,0.0,0.0,0.0,0.0,0.0,0.0,0.0,0.0,0.0,0.0,0.0,0.0,0.0,0.0,0.0,0.0,0.0,0.0,0.7364,0.7364,0.7807,0.8037,0.8042,0.8042,0.7939,0.7744,0.7842,0.7598,0.0,0.0,0.0,0.0,0.0,0.0,0.0,0.0,0.0,0.0,0.0,0.0,0.0,0.0,0.0,0.0,0.0,0.0,0.0,0.0,0.0,0.0,0.0,0.0,0.0,0.0,0.0,0.0,0.6365,0.644,0.6548,0.0,0.0,0.0,0.0,0.0,0.0,0.0,0.0,0.0,0.0,0.9484,0.9819,0.9307,0.8862,0.876,0.8147,0.7326,0.6312,0.6085,0.558,0.4362,0.0,0.0,0.0,0.0,0.0,0.0,0.0,0.0,0.0,0.0,0.0,0.0,0.0,0.0,0.0,0.0,0.0,0.0,0.0,0.0,0.0,0.0,0.0,0.0,0.0,0.0,0.0,0.0,0.0,0.0,0.0,0.0,0.0,0.0,0.0,0.0,0.0,0.0,0.0,0.0,0.0,0.0,0.0,0.0,0.0,0.0,0.0,0.0,0.0,0.0,0.0,0.0,0.0,0.8645,0.8657,0.9146,0.9414,0.9414,0.9446,0.9113,0.8517,0.8834,0.8474,0.7245,0.0,0.0,0.0,0.0,0.0,0.0,0.0,0.0,0.0,0.0,0.0,0.0,0.0,0.0,0.0,0.0,0.0,0.0,0.0,0.0,0.0,0.0,0.0,0.0,0.0,0.0,0.6549,0.6323,0.6533,0.0,0.0,0.0,0.0,0.0,0.0,0.0,0.0,0.0,0.0,0.946,0.9597,0.9611,0.9564,0.9275,0.8474,0.8218,0.7852,0.7093,0.7067,0.6713,0.0,0.0,0.0,0.0,0.0,0.0,0.0,0.0,0.0,0.0,0.0,0.0,0.0,0.0,0.0,0.0,0.0,0.0,0.0,0.0,0.0,0.0,0.0,0.0,0.0,0.0,0.0,0.8608,0.8451,0.0,0.0,0.0,0.0,0.0,0.0,0.0,0.0,0.0,0.0,0.0,0.9603,1.0118,0.0,0.0,0.0,0.0,0.0,0.0,0.0,0.0,0.0,0.0,0.0,0.0,0.8704,0.8728,0.9239,0.9478,0.9478,0.9478,0.9382,0.9177,0.9293,0.9062,0.8474,0.0,0.0,0.0,0.0,0.0,0.0,0.0,0.0,0.0,0.0,0.0,0.0,0.0,0.0,0.0,0.0,0.0,0.0,0.0,0.0,0.0,0.0,0.0,0.0,0.0,0.7043,0.0,0.0,0.0,0.0,0.0,0.0,0.0,0.0,0.0,0.0,0.0,1.0081,1.0191,0.9881,0.9606,0.9606,0.9479,0.9377,0.0,0.0,0.0,0.0,0.0,0.0,0.0,0.0,0.0,0.0,0.0,0.0,0.0,0.0,0.4392,0.3644,0.3353,0.321,0.3267,0.0,0.0,0.0,0.0,0.0,0.0,0.0,0.0,0.0,0.0,0.0,0.0,0.0,0.0,0.0,0.0,0.9004,0.0,0.0,0.0,0.0,0.0,0.0,0.0,0.0,1.0613,1.0894,1.0971,1.1421,1.1443,0.0,1.0774,1.0332,0.0,0.0,0.0,0.0,0.0,0.0,0.0,0.0,0.8923,0.9075,0.9444,0.967,0.967,0.9612,0.9644,0.967,0.9612,0.9447,0.9101,0.8933,0.8722,0.0,0.0,0.0,0.0,0.0,0.0,0.0,0.0,0.0,0.0,0.0,0.0,0.0,0.0,0.0,0.0,0.0,0.0,0.0,0.0,0.0,0.0,0.0,0.7932,0.0,0.0,0.0,0.0,0.0,0.0,0.0,0.0,0.0,1.1144,1.1204,1.1217,1.0936,1.0501,1.0059,0.9653,0.0,0.0,0.0,0.0,0.0,0.0,0.0,0.8476,0.7918,0.7712,0.7331,0.6544,0.5987,0.5699,0.574,0.0,0.0,0.4291,0.3905,0.375,0.381,0.3728,0.3659,0.3659,0.3707,0.3724,0.0,0.0,0.0,0.0,0.0,0.0,0.0,0.0,0.9654,0.9875,0.0,0.9618,0.0,0.0,0.0,0.0,0.0,0.0,0.0,0.0,1.2112,1.2535,1.2859,1.2899,1.2806,1.2522,1.2163,1.1731,1.1106,0.9987,0.0,0.0,0.0,0.0,0.0,0.0,0.9383,0.9701,0.9876,1.0021,0.9989,0.9862,0.9862,0.9983,0.9862,0.9579,0.9162,0.9144,0.9017,0.8757,0.8539,0.0,0.0,0.0,0.0,0.0,0.0,0.0,0.0,0.0,0.0,0.0,0.0,0.0,0.0,0.0,0.0,0.0,0.0,0.0,0.0,0.9143,0.0,0.0,0.0,0.0,0.0,0.0,0.0,0.0,0.0,0.0,1.1952,1.2181,1.2183,1.1482,0.0,0.0,0.0,0.0,0.9573,0.9425,0.9351,0.931,0.9315,0.9475,0.9321,0.8598,0.0,0.0,0.7688,0.7492,0.7247,0.6574,0.6339,0.603,0.5333,0.4744,0.4407,0.4409,0.4135,0.3878,0.3839,0.3904,0.3885,1.0728,0.0,0.0,0.0,0.0,0.9986,1.0159,1.0335,1.0542,1.0576,1.0463,1.0254,0.0,0.0,0.0,0.0,0.0,0.0,1.2548,1.3087,1.3323,1.3447,1.3408,1.3579,1.3508,1.3129,1.285,1.2623,1.2453,1.1874,1.0748,0.9113,0.0,0.0,0.0,0.0,0.9624,0.9714,0.9907,1.0021,1.0021,0.9958,0.9958,1.0021,0.9951,0.9888,0.9769,0.9951,0.9978,0.973,1.01,0.0,0.0,0.0,0.0,0.0,0.0,0.0,0.0,0.0,0.0,0.0,0.0,0.0,0.0,0.0,0.0,0.0,0.0,0.0,0.9568,0.9572,0.9915,0.0,0.0,0.0,0.0,0.0,0.0,0.0,0.0,0.0,1.427,1.3858,1.3464,0.0,0.0,1.1962,1.1643,1.1044,1.0627,1.0725,0.0,0.0,0.0,0.97,0.9592,0.9544,0.9173,0.8754,0.8527,0.8084,0.7615,0.725,0.7103,0.6797,0.6006,0.5292,0.4862,0.482,0.4742,0.4665,0.4665,0.4665,0.4654,1.2447,1.215,1.1192,1.0758,1.0742,1.0918,1.1028,1.1078,1.1257,1.1504,1.1715,1.1491,1.1462,1.1593,1.1277,0.0,0.0,0.0,1.3768,1.4321,1.4539,1.4668,1.4656,1.4664,1.4471,1.4061,1.3481,1.3183,1.3174,1.2739,1.1765,1.04,0.0,0.0,1.0251,1.049,1.0714,1.0803,1.0916,1.0975,1.1007,1.1007,1.0944,1.078,1.0881,1.0881,1.0787,1.1007,1.1016,1.0864,1.1136,1.1032,0.0,0.0,0.0,0.0,0.0,0.0,0.0,0.0,0.0,0.0,0.0,0.976,0.9901,0.0,0.0,0.0,1.0422,1.0864,1.1083,1.1316,0.0,0.0,0.0,0.0,0.0,0.0,0.0,1.521,1.5504,1.5625,1.5589,1.5202,1.4615,1.3939,1.3415,1.2952,1.257,0.0,1.1742,1.1852,1.1106,1.0506,1.0511,1.0062,0.9814,0.9971,0.9641,0.93,0.9186,0.8784,0.8398,0.8029,0.7786,0.7448,0.6769,0.6159,0.5556,0.5093,0.5018,0.5018,0.5018,0.5018,0.5018,1.4397,1.4996,1.2767,1.1765,1.1683,1.2101,1.2078,1.1797,1.2004,1.2613,1.3506,1.304,1.3307,1.4124,1.3903,0.0,0.0,1.4239,1.4787,1.5428,1.5748,1.6025,1.6279,1.589,1.5487,1.5053,1.4066,1.3571,1.3549,1.2948,1.2534,1.2316,1.2308,1.2233,1.2113,1.2108,1.2254,1.2465,1.2481,1.2512,1.2512,1.2512,1.2351,1.2035,1.2197,1.2228,1.2043,1.2074,1.2074,1.2066,1.1902,1.1598,1.122,0.0,0.0,0.0,0.0,0.0,0.0,0.0,0.0,0.0,0.0,0.0,0.0,0.0,0.0,0.0,1.1919,0.0,1.3179,1.3759,0.0,0.0,0.0,1.4151,1.4551,1.5092,1.5521,1.5663,0.0,0.0,0.0,0.0,1.5665,1.4433,1.4265,1.3922,1.3057,1.2917,1.2802,1.2802,1.2046,1.1456,1.1365,1.0712,1.0111,1.0033,0.9994,0.988,0.962,0.9573,0.931,0.8687,0.838,0.7988,0.7531,0.7126,0.6591,0.544,0.5132,0.5054,0.5018,0.5018,0.5018,1.5349,1.5365,1.4637,1.4125,1.3837,1.3623,1.3505,1.3475,1.3654,1.3871,1.4104,1.3921,1.3831,1.3863,1.4597,1.4917,1.4943,1.5842,1.6373,1.652,1.6611,1.6517,1.627,1.5881,1.5478,1.5093,1.4538,1.4258,1.4258,1.4109,1.3995,1.3936,1.3927,1.3325,1.2166,1.228,1.2432,1.2512,1.2512,1.2512,1.2512,1.2512,1.2443,1.2381,1.242,1.242,1.2381,1.2642,1.2757,1.2787,1.3176,1.3232,1.2872,1.2605,0.0,0.0,0.0,0.0,0.0,0.0,0.0,0.0,0.0,1.1324,1.1034,0.0,1.1661,0.0,1.2885,1.3579,1.4185,1.418,0.0,0.0,1.5049,1.5239,1.6055,1.6071,1.6102,1.6409,1.656,1.6566,1.636,1.6319,1.6154,1.5699,1.5616,1.5484,1.5054,1.4384,1.3964,1.3753,1.2978,1.2382,1.2285,1.1617,1.0755,1.012,1.0033,0.9923,0.9682,0.9606,0.9424,0.9004,0.8861,0.8514,0.7869,0.764,0.733,0.6591,0.6054,0.5556,0.5093,0.5018,0.5018,1.6226,1.6615,1.6154,1.595,1.581,1.4911,1.4411,1.4271,1.4378,1.4637,1.4985,1.5279,1.53,1.518,1.5762,1.6014,1.6057,1.6626,1.6908,1.6908,1.6908,1.6789,1.656,1.6166,1.5753,1.5359,1.4955,1.4689,1.4506,1.4323,1.424,1.4231,1.4231,1.3783,1.2963,1.3216,1.3381,1.3381,1.3381,1.339,1.3381,1.3381,1.339,1.339,1.3381,1.3381,1.3381,1.358,1.3584,1.344,1.3764,1.3778,1.3363,1.3203,1.2914,0.0,0.0,0.0,0.0,0.0,0.0,0.0,0.0,0.0,0.0,0.0,1.271,0.0,1.4021,0.0,1.507,1.5176,1.5477,1.6087,1.5991,1.6103,1.6642,1.6515,1.6475,1.6673,1.6689,1.6648,1.6558,1.6566,1.6484,1.6368,1.6376,1.6245,1.5914,1.545,1.5117,1.4977,1.4203,1.3345,1.2853,1.2189,1.15,1.08,1.0637,1.0476,0.9978,0.9846,0.9807,0.9577,0.9447,0.9305,0.8947,0.8789,0.8508,0.774,0.728,0.663,0.5631,0.5401,0.5323,1.7005,1.7871,1.7202,1.711,1.7305,1.5906,1.5178,1.4895,1.4887,1.5294,1.5974,1.6612,1.6908,1.6908,1.6908,1.6908,1.6908,1.6908,1.6908,1.6908,1.6908,1.6908,1.689,1.645,1.6046,1.5712,1.523,1.4854,1.4515,1.4139,1.3966,1.392,1.3966,1.3937,1.3929,1.4304,1.4485,1.4485,1.4485,1.4485,1.4485,1.4485,1.4485,1.4485,1.4485,1.4485,1.4485,1.4485,1.4341,1.3992,1.3965,1.3837,1.347,1.3396,1.3259,0.0,1.3039,0.0,0.0,0.0,0.0,0.0,0.0,0.0,0.0,1.3348,1.3691,1.4252,1.5221,1.5847,1.5817,1.6373,1.6689,1.6689,1.6689,1.6689,1.6689,1.6689,1.6689,1.6689,1.6689,1.6689,1.6689,1.6689,1.6689,1.6648,1.6648,1.6533,1.6252,1.6128,1.6038,1.6128,1.5399,1.4352,1.3254,1.2686,1.2267,1.1714,1.1496,1.1249,1.0443,1.0322,1.0295,1.0163,0.998,0.9916,1.0147,0.9969,0.9582,0.8727,0.8571,0.8003,0.6472,0.5899,0.5709,1.7206,1.7119,1.6972,1.6954,1.6983,1.6694,1.6544,1.6473,1.6473,1.6551,1.6691,1.6839,1.6908,1.6908,1.6908,1.6908,1.6908,1.6908,1.6908,1.6908,1.6908,1.6908,1.6862,1.6147,1.5771,1.5643,1.4964,1.4588,1.4485,1.4433,1.4212,1.3929,1.4222,1.4222,0.0,0.0,0.0,0.0,1.4485,1.4485,1.4485,1.4485,1.4485,1.4485,1.4485,0.0,1.4485,1.4485,1.4478,1.4405,1.4396,0.0,0.0,0.0,0.0,0.0,0.0,0.0,0.0,0.0,0.0,0.0,1.4294,1.4128,1.4032,1.4762,1.5272,1.5393,1.6079,1.654,1.6499,1.661,1.6689,1.6689,1.6689,1.6689,1.6689,1.6689,1.6689,1.6689,1.6689,1.6689,1.6689,1.6689,1.6689,1.6689,1.6689,1.6656,1.6607,1.6427,1.627,1.6113,1.5657,1.4929,1.3738,1.3456,1.31,1.2395,1.2117,1.1848,1.1152,1.0944,1.0677,1.0188,0.9911,0.9965,0.9981,0.9911,0.9863,0.9647,0.9604,0.9036,0.713,0.6282,0.586,1.7092,0.0,1.6908,1.6908,0.0,1.6908,1.6908,1.6908,1.6908,1.6908,1.6908,1.6908,1.6908,1.6908,1.6908,1.6908,1.6908,1.6908,1.6908,1.6899,1.6697,1.664,1.668,1.6006,1.562,1.5481,1.5023,1.4698,1.4506,1.4304,1.4093,1.3911,1.4093,1.4093,1.3929,1.4295,1.4485,1.4485,1.4485,1.4485,1.4485,1.4485,1.4485,1.4485,0.0,0.0,0.0,0.0,0.0,0.0,0.0,0.0,0.0,0.0,0.0,1.4185,1.4378,1.4419,1.4336,1.5011,1.5456,1.5488,1.5684,1.5647,1.5333,1.5935,1.6434,1.682,1.7137,1.727,1.7066,1.7229,1.718,1.6771,1.6894,1.6984,1.6738,1.6689,1.6689,1.6689,1.6689,1.6689,1.6689,1.6689,1.6689,1.6681,1.6579,1.6476,1.6436,1.6387,1.6219,1.5959,1.5623,1.5188,1.4614,1.423,1.3922,1.3251,1.3061,1.2741,1.2086,1.1979,1.1746,1.1098,1.0925,1.0887,1.0539,1.0384,1.0219,1.0024,0.9873,0.9463,0.8203,0.7575,0.7112,1.6908,1.6908,1.6908,1.6908,1.6908,1.6908,1.6908,1.6908,0.0,0.0,0.0,1.6908,1.6908,1.6908,1.6908,1.6908,1.6908,1.6943,1.6943,1.6881,1.6529,1.6437,1.6457,1.5896,1.5549,1.5359,1.509,1.4827,1.4526,1.4177,1.3984,1.392,1.4004,1.4136,1.4183,1.4508,1.4654,1.4625,1.4536,1.4485,1.4485,1.4485,1.4485,1.4485,1.4485,1.4485,1.4485,1.4485,1.4379,1.4145,1.4126,1.4164,1.4241,1.4241,1.4428,1.4857,1.5249,1.5511,1.5595,1.6286,1.6648,1.6548,1.6955,1.7031,1.6633,1.6851,1.7265,1.794,1.7991,1.7919,1.7708,1.7991,1.7951,1.7335,1.7627,1.77,1.7335,1.7212,1.7286,1.7212,1.7294,1.7172,1.7245,1.7245,1.705,1.6847,1.6669,1.6245,1.6094,1.6063,1.5991,1.5635,1.539,1.516,1.5025,1.477,1.4433,1.3994,1.3906,1.3724,1.3258,1.3076,1.282,1.2201,1.2117,1.1771,1.1316,1.0931,1.0623,1.0217,0.996,0.9684,0.9337,0.9039,0.8563,1.6908,1.6908,1.6908,1.6908,1.6908,1.6908,1.6908,1.6908,1.6908,1.6908,1.6908,1.6908,1.6908,1.6908,1.6908,1.6908,1.6908,1.7107,1.7072,0.0,1.6756,1.667,1.6472,1.5724,1.5427,1.5506,1.4884,1.4621,1.4656,1.4591,1.4367,1.4051,1.4531,1.4954,1.5187,1.5245,1.5206,1.5089,1.4714,1.4485,1.4485,1.4485,1.4485,1.4485,1.4515,1.4485,1.4485,1.4515,1.4677,1.5003,1.4993,1.5197,1.5582,1.5601,1.5839,1.6287,1.6675,1.7073,1.7451,1.7949,1.7982,1.7586,1.7973,1.7998,1.7399,1.7373,1.7572,1.7977,1.8112,1.8224,1.8687,1.8847,1.9036,1.9304,1.9462,1.9502,1.9344,1.9195,1.9076,1.9036,1.9027,1.8859,1.8793,1.8802,1.8391,1.7625,1.7264,1.6854,1.5797,1.5616,1.5632,1.534,1.5221,1.5054,1.4787,1.466,1.4502,1.4497,1.4422,1.4196,1.3685,1.357,1.336,1.2872,1.2511,1.2158,1.1631,1.1269,1.0865,1.0416,1.0211,1.0081,0.9755,0.9632,0.9337,1.6908,1.6943,1.7003,1.7003,1.6908,1.7003,1.7072,1.7072,1.7185,1.7081,1.6908,1.6908,1.6978,1.7072,1.7072,1.7141,1.722,1.7314,1.7201,1.6831,1.6586,1.6372,1.6075,1.5447,1.5194,1.5365,1.4985,1.4803,1.4902,1.5177,1.5226,1.5061,1.5591,1.5968,1.6102,1.6102,1.6073,1.6016,1.5264,1.4754,1.4506,1.4764,1.4872,1.4872,1.5098,1.5254,1.5245,1.5274,1.5362,1.5546,1.5575,1.5671,1.5902,1.6134,1.6386,1.6608,1.7212,1.7676,1.7878,1.8268,1.8408,1.8172,1.8365,1.8572,1.8753,1.8746,1.9014,1.9662,1.9726,1.9756,1.9846,2.0051,2.0138,1.9894,2.009,2.0119,1.9933,1.9825,1.9747,1.9747,1.9698,1.9536,1.9263,1.9245,1.8971,1.8129,1.7782,1.7054,1.5761,1.5665,1.5548,1.4992,1.4887,1.4795,1.4629,1.4431,1.4336,1.432,1.4188,1.3981,1.3716,1.3689,1.3446,1.2915,1.2653,1.2366,1.1825,1.1485,1.1088,1.0638,1.0378,1.018,0.9845,0.9664,0.9346,1.7038,1.7047,1.721,1.7176,1.7047,1.721,1.7279,1.7279,1.7426,1.7332,1.7081,1.7012,1.7107,1.7245,1.727,1.7267,1.7372,1.7557,1.7326,1.6871,1.6685,1.646,1.6156,1.5684,1.5517,1.5633,1.5478,1.542,1.5507,1.5931,1.6151,1.6208,1.6585,1.6838,1.6912,1.694,1.6884,1.6817,1.5981,1.5332,1.4931,1.5264,1.5429,1.5381,1.5758,1.596,1.5902,1.596,1.6007,1.6046,1.6046,1.6155,1.6354,1.6722,1.7019,1.7236,1.7862,1.8294,1.8407,1.8682,1.8811,1.871,1.8903,1.9301,1.9931,2.0262,2.0557,2.109,2.1126,2.1029,2.0942,2.1155,2.1155,2.0672,2.0855,2.1009,2.0672,2.0556,2.0518,2.0527,2.0489,2.0323,1.9924,1.976,1.9472,1.8751,1.8071,1.7202,1.6377,1.614,1.5781,1.533,1.4883,1.4613,1.4581,1.4355,1.413,1.4109,1.3831,1.3688,1.3599,1.3608,1.3459,1.3062,1.287,1.2584,1.2037,1.1671,1.1332,1.0875,1.0613,1.0334,0.9861,0.9604,0.9376,1.7426,1.7426,1.747,1.7461,1.7461,1.747,1.7495,1.7505,1.7495,1.7505,1.7529,1.747,1.7505,1.7461,1.7461,1.7286,1.6997,1.7622,1.7642,1.7189,1.7534,1.7616,1.7355,1.6959,1.6888,1.6933,1.6641,1.6567,1.6719,1.687,1.6972,1.7073,1.7028,1.7224,1.7573,1.76,1.7518,1.7341,1.6787,1.6367,1.6167,1.6187,1.6093,1.5845,1.6112,1.614,1.6007,1.6122,1.635,1.6524,1.6552,1.6913,1.7665,1.7832,1.8232,1.9034,1.9207,1.9435,1.9825,1.9955,1.9704,1.9374,2.0078,2.0595,2.0755,2.151,2.1802,2.1435,2.1242,2.1471,2.1863,2.1987,2.2166,2.2419,2.2569,2.2767,2.2569,2.2542,2.2419,2.2467,2.2096,2.1987,2.1366,2.1188,2.0648,1.9279,1.834,1.7621,1.726,1.7085,1.6938,1.6558,1.5658,1.4752,1.4641,1.4304,1.4111,1.4072,1.3791,1.3578,1.3498,1.3522,1.3527,1.3198,1.3135,1.2784,1.2377,1.199,1.1602,1.1189,1.0936,1.0762,1.0301,0.9862,0.9508,1.7495,1.7505,1.7588,1.7623,1.7647,1.8056,1.8283,1.8283,1.8351,1.862,1.9011,1.9054,1.8519,1.7628,1.7758,1.7741,1.7735,1.8123,1.8058,1.7615,1.7805,1.7712,1.7355,1.721,1.7146,1.7174,1.7052,1.7024,1.7157,1.7462,1.7847,1.824,1.8224,1.8278,1.8467,1.8467,1.8402,1.8336,1.7821,1.7424,1.7169,1.6732,1.6599,1.6789,1.7157,1.7307,1.7234,1.7318,1.7318,1.7256,1.7256,1.7486,1.7988,1.8261,1.8709,1.9333,1.966,1.99,2.0107,2.0118,2.0009,1.9791,2.0477,2.1,2.1269,2.1897,2.2243,2.2296,2.2279,2.2392,2.258,2.2628,2.274,2.2964,2.3001,2.3001,2.3001,2.2927,2.2889,2.2879,2.2576,2.2168,2.1649,2.112,2.0475,1.9723,1.9104,1.8677,1.8196,1.7983,1.7745,1.7254,1.6412,1.5661,1.5118,1.4671,1.4229,1.3678,1.3243,1.302,1.3068,1.3012,1.3004,1.3036,1.2964,1.2814,1.2555,1.2383,1.212,1.167,1.1139,1.0919,1.0737,1.0333,1.0053,1.8226,1.8226,1.8307,1.8375,1.8408,1.8934,1.9166,1.9166,1.9276,1.9595,2.0096,2.0096,1.939,1.8255,1.8301,1.8373,1.8396,1.8546,1.8353,1.7999,1.8097,1.8019,1.7694,1.7699,1.7699,1.7699,1.7727,1.7699,1.7738,1.812,1.8575,1.8934,1.9013,1.9013,1.9013,1.9013,1.9013,1.8951,1.847,1.8163,1.8062,1.7553,1.7295,1.7427,1.7938,1.8262,1.8318,1.84,1.8398,1.8284,1.8255,1.8367,1.8644,1.8909,1.9184,1.9572,1.9911,2.0118,2.0118,2.0118,2.0118,2.0151,2.0587,2.1102,2.1549,2.204,2.251,2.2888,2.3001,2.2964,2.3001,2.3001,2.3001,2.3001,2.3001,2.3001,2.3001,2.3001,2.3001,2.2957,2.2593,2.2062,2.1439,2.0696,2.0074,1.9943,1.9911,1.9769,1.9131,1.8877,1.8636,1.8004,1.7566,1.6873,1.5835,1.5188,1.4489,1.3851,1.3393,1.3169,1.2889,1.2867,1.2867,1.3217,1.2946,1.2875,1.2954,1.2852,1.2736,1.232,1.188,1.1507,1.1608,1.1076,1.073,1.9998,1.9966,1.9998,1.9901,1.9977,1.9998,2.0042,2.0031,2.0063,2.0096,2.0204,2.0193,1.9824,1.9252,1.9239,1.9031,1.8717,1.8751,1.856,1.8196,1.8646,1.8931,1.8919,1.8907,1.8881,1.8762,1.8762,1.8789,1.8842,1.8907,1.896,1.9013,1.9013,1.9013,1.9013,1.9013,1.9013,1.8965,1.8518,1.8446,1.8852,1.8859,1.8339,1.7614,1.8165,1.8717,1.8906,1.9184,1.9405,1.9609,1.9546,1.9787,2.0144,2.0002,1.9941,2.0063,2.0085,2.0118,2.0118,2.0118,2.0118,2.0172,2.0587,2.1091,2.1518,2.2018,2.2488,2.2936,2.2979,2.3001,2.3001,2.3001,2.3001,2.3001,2.3001,2.3001,2.3001,2.3001,2.3001,2.2936,2.2553,2.1876,2.1047,2.0467,2.0162,2.0085,2.0085,2.0009,1.9911,1.9835,1.9532,1.9116,1.8733,1.8286,1.6914,1.594,1.5265,1.4559,1.4057,1.3944,1.3683,1.345,1.345,1.342,1.3359,1.3359,1.3411,1.342,1.3359,1.3108,1.2834,1.2612,1.2436,1.1927,1.1578,2.0096,2.0161,2.0581,2.0528,2.0161,2.0549,2.0741,2.0752,2.0741,2.1008,2.14,2.1431,2.1132,2.0633,2.0308,1.9631,1.8826,1.886,1.8833,1.8682,1.8907,1.9013,1.9013,1.9013,1.9013,1.9013,1.9013,1.9013,1.9013,1.9013,1.9013,1.9013,1.9013,1.9013,1.9013,1.9013,1.9013,1.9001,1.8794,1.8806,1.9035,1.9324,1.9275,1.897,1.9511,1.992,2.0008,2.0094,2.0132,2.0047,2.0018,2.0122,2.0392,2.0605,2.0635,2.0452,2.0421,2.0335,2.014,2.0118,2.0118,2.0151,2.0587,2.0949,2.1244,2.1832,2.239,2.2575,2.2859,2.299,2.3001,2.3001,2.3001,2.3001,2.3001,2.3001,2.3001,2.3001,2.3001,2.2892,2.2346,2.1472,2.0663,2.0216,2.0118,2.0118,2.0118,2.0118,2.0118,2.0053,1.9814,1.9411,1.8991,1.8493,1.7756,1.6697,1.5876,1.5157,1.4654,1.4608,1.4412,1.4124,1.4073,1.4043,1.3944,1.3743,1.3803,1.3662,1.3631,1.3541,1.3321,1.3321,1.323,1.2696,1.2451,2.0784,2.0848,2.1262,2.1198,2.0848,2.1273,2.1463,2.1463,2.1463,2.1757,2.2142,2.2017,2.1644,2.1103,2.0586,1.9808,1.8927,1.8982,1.9013,1.9013,1.9013,1.9013,1.9013,1.9013,1.9013,1.9013,1.9013,1.9013,1.9013,1.9013,1.9013,1.9013,1.9013,1.9013,1.9037,1.917,1.9266,1.9278,1.9408,1.9516,1.9576,2.0033,2.031,2.0382,2.0839,2.1002,2.0887,2.0846,2.0883,2.0855,2.0849,2.0853,2.0865,2.1171,2.119,2.0871,2.0796,2.0711,2.0496,2.0324,2.027,2.0248,2.0457,2.0708,2.0905,2.1507,2.1931,2.228,2.2564,2.2815,2.2968,2.3001,2.3001,2.3001,2.3001,2.3001,2.3001,2.3001,2.2837,2.2466,2.1822,2.1035,2.0325,2.0162,2.0118,2.0118,2.0118,2.0118,2.0118,1.9954,1.9704,1.9224,1.8722,1.8275,1.7733,1.6992,1.653,1.5878,1.5537,1.5429,1.5206,1.4884,1.4717,1.4658,1.451,1.4273,1.4073,1.3941,1.3851,1.3821,1.3851,1.3881,1.3722,1.3511,1.326,2.2123,2.2092,2.2197,2.2092,2.1999,2.2061,2.2166,2.2092,2.2123,2.2123,2.2137,2.168,2.1187,2.0615,2.0117,1.9528,1.9066,1.9011,1.9013,1.9013,1.9013,1.9013,1.9013,1.9013,1.9013,1.9013,1.9013,1.9013,1.9013,1.9013,1.9013,1.9013,1.9074,1.9095,1.9049,1.9555,1.9808,1.9877,2.0273,2.0562,2.0682,2.1067,2.1332,2.1404,2.1825,2.1849,2.1398,2.1416,2.1608,2.1998,2.2058,2.1994,2.1686,2.1683,2.1557,2.1253,2.119,2.119,2.1138,2.0796,2.0614,2.0593,2.0357,2.0479,2.0875,2.1084,2.1479,2.2204,2.2407,2.2546,2.2977,2.3075,2.3038,2.3001,2.3001,2.3001,2.3001,2.2979,2.263,2.1811,2.1244,2.0697,2.0271,2.0118,2.0118,2.0118,2.0118,2.0118,2.0074,1.978,1.9246,1.8818,1.8414,1.801,1.7617,1.7261,1.697,1.6684,1.6524,1.6361,1.6065,1.5777,1.5633,1.5565,1.5362,1.5128,1.4864,1.4706,1.4488,1.4428,1.4467,1.4348,1.4169,1.398,1.395,2.2197,2.2197,2.2197,2.2197,2.2197,2.2197,2.2197,2.2197,2.2197,2.2197,2.2101,2.1632,2.1091,2.0579,2.0049,1.9519,1.9049,1.9013,1.9013,1.9013,1.9013,1.9013,1.9013,1.9013,1.9013,1.9013,1.9013,1.9013,1.9013,1.9025,1.9013,1.9074,1.9399,1.9555,1.9591,2.0073,2.0362,2.0418,2.0887,2.1151,2.1199,2.168,2.1933,2.1969,2.2113,2.2132,2.1957,2.1945,2.2017,2.2185,2.2197,2.2123,2.2049,2.2018,2.1894,2.16,2.1569,2.1443,2.1221,2.1094,2.1031,2.0999,2.0914,2.0939,2.1131,2.1393,2.1812,2.2455,2.2628,2.2969,2.359,2.3556,2.3335,2.3049,2.3001,2.3027,2.2962,2.2706,2.2106,2.1343,2.0982,2.0653,2.026,2.0118,2.0118,2.0118,2.0118,2.0118,2.0042,1.9693,1.9244,1.8763,1.8294,1.7835,1.7514,1.7306,1.7155,1.7015,1.6959,1.692,1.6694,1.6513,1.6428,1.6304,1.6132,1.5902,1.5633,1.5381,1.5098,1.4843,1.4725,1.4645,1.4545,1.4426,1.4297,2.2197,2.2197,2.2197,2.2197,2.2197,2.2197,2.2197,2.2197,2.2197,2.2197,2.2065,2.1416,2.0923,2.0478,1.9844,1.9351,1.909,1.9025,1.904,1.9131,1.9025,1.9025,1.9078,1.9119,1.9146,1.9158,1.9158,1.9158,1.9158,1.934,1.9449,1.9534,2.0022,2.0249,2.0269,2.086,2.121,2.1267,2.1866,2.2196,2.2288,2.2541,2.2702,2.2714,2.2543,2.2555,2.2684,2.2574,2.2451,2.2463,2.2463,2.2414,2.2216,2.2197,2.2123,2.1987,2.2037,2.2006,2.1643,2.1663,2.1557,2.1443,2.1285,2.1201,2.1259,2.1502,2.1847,2.2296,2.2639,2.3069,2.3702,2.4122,2.3973,2.379,2.3434,2.3184,2.2923,2.2396,2.1872,2.1215,2.0797,2.0489,2.0216,2.0118,2.0118,2.0118,2.0118,2.0118,2.0031,1.9704,1.9244,1.8794,1.8305,1.7846,1.7426,1.7306,1.7306,1.725,1.7222,1.7194,1.7071,1.6959,1.6864,1.6751,1.657,1.6343,1.6085,1.5758,1.5439,1.5245,1.5128,1.4931,1.4813,1.4565,1.4446,2.2197,2.2197,2.2197,2.2197,2.2197,2.2197,2.2197,2.2197,2.2216,2.2192,2.1939,2.1162,2.0627,2.035,1.9573,1.918,1.917,1.9105,1.9184,1.9263,1.9184,1.9105,1.9184,1.9316,1.9342,1.9368,1.9368,1.9393,1.9501,1.9868,2.0229,2.0275,2.0794,2.1104,2.1178,2.1902,2.2322,2.2368,2.3136,2.353,2.3526,2.3551,2.3577,2.3547,2.3155,2.3095,2.3352,2.3185,2.3,2.2939,2.2939,2.2787,2.2402,2.2278,2.2371,2.2371,2.2726,2.2653,2.2408,2.2384,2.231,2.1982,2.1745,2.1348,2.158,2.1733,2.1937,2.2388,2.2688,2.3108,2.377,2.4425,2.4874,2.4898,2.4232,2.3593,2.2936,2.2278,2.1879,2.1474,2.0785,2.0302,2.0485,2.0485,2.0432,2.0367,2.0399,2.0432,2.0214,1.9947,1.9368,1.8885,1.853,1.8094,1.7712,1.7601,1.7601,1.7601,1.7529,1.7445,1.7362,1.725,1.7155,1.7071,1.7015,1.6779,1.6552,1.6247,1.6075,1.5989,1.5729,1.54,1.5147,1.4961,1.4793,2.2197,2.2197,2.2197,2.2197,2.2197,2.2197,2.2197,2.2228,2.2297,2.2098,2.1704,2.1148,2.0653,2.0254,1.9631,1.9316,1.9316,1.9316,1.9316,1.9368,1.933,1.9316,1.9342,1.9394,1.942,1.9447,1.9562,1.9603,1.9971,2.0289,2.056,2.0899,2.1559,2.1952,2.2318,2.2936,2.335,2.3538,2.3961,2.4153,2.3962,2.3946,2.3888,2.3859,2.3607,2.3501,2.3636,2.3826,2.3738,2.3429,2.3424,2.3382,2.3215,2.3173,2.3143,2.3173,2.3292,2.3382,2.3263,2.325,2.319,2.313,2.2889,2.298,2.2967,2.2937,2.3224,2.358,2.3675,2.3997,2.5029,2.5351,2.537,2.5302,2.4879,2.432,2.3774,2.3281,2.2723,2.2351,2.2011,2.1858,2.1772,2.1772,2.1678,2.1451,2.1325,2.1262,2.0948,2.0603,2.0156,1.9485,1.9033,1.8499,1.8124,1.7988,1.7931,1.7931,1.7849,1.7711,1.7557,1.7334,1.7306,1.725,1.7323,1.7172,1.7088,1.6909,1.6797,1.6701,1.6265,1.5882,1.5777,1.5613,1.5391,2.2197,2.2197,2.2278,2.2309,2.2309,2.2371,2.2414,2.2353,2.2195,2.2128,2.1858,2.1035,2.0634,2.0462,1.975,1.9447,1.946,1.942,1.9473,1.9604,1.9811,1.9772,1.9617,1.972,1.9901,1.9977,2.0399,2.0798,2.1197,2.1582,2.2019,2.2448,2.292,2.3366,2.3594,2.4083,2.4397,2.4568,2.4852,2.4979,2.4809,2.4781,2.4823,2.4696,2.4352,2.4018,2.3989,2.4363,2.4379,2.3989,2.3884,2.3813,2.3607,2.3607,2.3607,2.3607,2.3754,2.3813,2.3666,2.3754,2.3783,2.3636,2.3607,2.3607,2.3547,2.3607,2.3782,2.3879,2.4024,2.4506,2.5141,2.5537,2.5794,2.5974,2.5608,2.4976,2.4139,2.3543,2.3176,2.2898,2.2695,2.2634,2.2634,2.2634,2.25,2.2267,2.2113,2.199,2.1799,2.1448,2.0972,2.0305,1.9833,1.9424,1.8846,1.8556,1.8441,1.8441,1.8317,1.8139,1.7893,1.7656,1.7601,1.7601,1.7629,1.7629,1.7562,1.7534,1.7507,1.7262,1.6803,1.6578,1.6482,1.6293,1.6036,2.2228,2.2216,2.2328,2.242,2.2451,2.2629,2.2598,2.2493,2.2211,2.21,2.197,2.0923,2.0594,2.0825,1.9832,1.9565,1.9734,1.9682,1.9811,2.0105,2.0384,2.0409,2.0067,2.0577,2.0818,2.0997,2.1913,2.2299,2.2573,2.346,2.3906,2.3932,2.4459,2.4787,2.4651,2.5079,2.537,2.5398,2.5701,2.5879,2.5783,2.5756,2.5743,2.5674,2.5161,2.4709,2.4609,2.4806,2.4835,2.4379,2.4379,2.4205,2.3842,2.3783,2.3783,2.3872,2.4163,2.4205,2.393,2.4205,2.4234,2.393,2.3842,2.3725,2.3842,2.3914,2.394,2.4005,2.4197,2.4585,2.4892,2.5489,2.6008,2.6287,2.6037,2.5183,2.4246,2.3648,2.3449,2.3326,2.3045,2.2895,2.2864,2.2834,2.2864,2.3075,2.2955,2.2877,2.2639,2.2272,2.1743,2.1104,2.0739,2.0459,1.9822,1.9162,1.9071,1.8965,1.8857,1.8709,1.8452,1.8247,1.8111,1.803,1.7893,1.7947,1.8084,1.8084,1.803,1.7947,1.7529,1.7446,1.739,1.7056,1.6775,2.2278,2.2359,2.2389,2.2482,2.2616,2.2678,2.2432,2.2075,2.2478,2.2089,2.1203,2.1104,2.0811,2.0159,1.9999,1.9965,2.0334,2.0359,2.0597,2.1053,2.114,2.1188,2.1162,2.1682,2.1936,2.2121,2.271,2.3305,2.3742,2.4026,2.4096,2.4177,2.4833,2.4956,2.4994,2.5519,2.5892,2.6082,2.6406,2.6433,2.6258,2.6217,2.6231,2.6163,2.5811,2.5508,2.5313,2.5355,2.5229,2.4948,2.4821,2.4793,2.4637,2.4622,2.4593,2.4622,2.4708,2.4765,2.4708,2.4708,2.4806,2.465,2.4565,2.4708,2.4679,2.465,2.465,2.4692,2.4813,2.4991,2.5354,2.5716,2.5929,2.5939,2.5615,2.5121,2.478,2.4635,2.4511,2.4489,2.4436,2.4465,2.4436,2.4321,2.4192,2.3989,2.3842,2.3754,2.3466,2.311,2.2614,2.2071,2.1572,2.1254,2.0639,1.9964,1.967,1.9515,1.941,1.9317,1.9081,1.8774,1.8614,1.8344,1.8084,1.822,1.8464,1.8329,1.8232,1.822,1.8236,1.8088,1.7925,1.7678,1.7501,2.2494,2.2555,2.2604,2.2696,2.28,2.2848,2.2705,2.2516,2.282,2.2728,2.2191,2.204,2.1668,2.1329,2.0833,2.0733,2.0919,2.0968,2.1115,2.1417,2.165,2.1931,2.2415,2.294,2.3283,2.2998,2.3949,2.4589,2.4884,2.5124,2.5274,2.4915,2.5488,2.5634,2.5462,2.5959,2.6377,2.6513,2.6686,2.6686,2.6566,2.6525,2.6431,2.6324,2.6136,2.5975,2.573,2.5661,2.5578,2.5453,2.5425,2.5286,2.5033,2.5005,2.5005,2.5005,2.5005,2.5005,2.4977,2.5005,2.4977,2.5005,2.5005,2.5005,2.5005,2.5005,2.5005,2.5005,2.5004,2.5139,2.5439,2.548,2.548,2.5426,2.5208,2.5018,2.5005,2.5005,2.5005,2.5005,2.492,2.492,2.4977,2.5005,2.492,2.4465,2.4465,2.4408,2.4436,2.4081,2.3683,2.3157,2.2524,2.197,2.1392,2.0846,2.0296,2.0105,1.9901,1.9862,1.9734,1.9396,1.9081,1.8815,1.856,1.8598,1.8732,1.8572,1.8518,1.8625,1.864,1.856,1.8452,1.8251,1.8143,2.2951,2.2878,2.309,2.3185,2.3215,2.3365,2.3365,2.3271,2.3441,2.3508,2.3632,2.2841,2.2651,2.2551,2.1889,2.1529,2.1551,2.1657,2.1789,2.1837,2.2353,2.2739,2.333,2.4093,2.4457,2.3745,2.5056,2.5835,2.6009,2.6329,2.5975,2.5886,2.626,2.6099,2.5973,2.6416,2.6727,2.6753,2.6779,2.6779,2.6753,2.6753,2.6618,2.6472,2.6392,2.6231,2.6029,2.5975,2.5934,2.5921,2.5893,2.5563,2.5162,2.5048,2.4829,2.4801,2.4787,2.4882,2.48,2.4882,2.5005,2.5005,2.5005,2.5005,2.5005,2.5005,2.5005,2.5005,2.5018,2.5018,2.5018,2.5086,2.5073,2.5046,2.5032,2.5005,2.5005,2.5005,2.5005,2.5005,2.5005,2.5005,2.5005,2.5005,2.5005,2.5005,2.5005,2.5005,2.5005,2.48,2.4255,2.3662,2.2911,2.2122,2.1509,2.1297,2.0823,2.0635,2.0447,2.0372,2.0346,2.0093,1.9747,1.937,1.9186,1.9146,1.9052,1.8907,1.8907,1.9013,1.896,1.8801,1.8774,1.8774,1.8667,2.3962,2.3653,2.4195,2.4483,2.461,2.4667,2.4356,2.4064,2.4443,2.3865,2.2905,2.3404,2.299,2.2215,2.2151,2.21,2.2133,2.231,2.256,2.2698,2.3189,2.363,2.4057,2.4924,2.5369,2.5629,2.6199,2.6518,2.6428,2.6224,2.6079,2.589,2.6006,2.5963,2.6039,2.6442,2.6794,2.6794,2.6794,2.6794,2.6794,2.6779,2.6779,2.6659,2.6659,2.6527,2.6312,2.6217,2.6136,2.5921,2.5921,2.553,2.5144,2.5204,2.4778,2.4177,2.4531,2.4831,2.4503,2.4761,2.4951,2.5005,2.5005,2.5005,2.5005,2.5005,2.5005,2.5033,2.5033,2.5005,2.5005,2.509,2.5033,2.5005,2.5061,2.5061,2.5061,2.5061,2.509,2.5146,2.509,2.5005,2.5005,2.5005,2.5005,2.5005,2.5005,2.5005,2.5005,2.4719,2.4285,2.3663,2.3026,2.2243,2.1488,2.1421,2.1215,2.1142,2.1019,2.0896,2.0822,2.0734,2.0459,2.0105,1.9734,1.9539,1.9408,1.9239,1.9146,1.9146,1.9093,1.9013,1.8934,1.8881,1.8907,2.4625,2.4467,2.4739,2.4909,2.4979,2.5007,2.4829,2.4668,2.5191,2.4996,2.4411,2.4385,2.4075,2.3231,2.2658,2.2602,2.2669,2.2752,2.3084,2.3418,2.376,2.4326,2.4733,2.556,2.5977,2.6271,2.6634,2.6794,2.6765,2.653,2.6137,2.5948,2.6108,2.6166,2.5995,2.6471,2.6762,2.6806,2.6806,2.6806,2.6806,2.6806,2.682,2.682,2.682,2.6727,2.6618,2.6551,2.6513,2.6322,2.6038,2.546,2.5131,2.5031,2.4904,2.4055,2.4473,2.4792,2.4491,2.486,2.516,2.5005,2.5005,2.5005,2.5005,2.5005,2.509,2.5216,2.5272,2.5328,2.5453,2.5453,2.5481,2.5481,2.5481,2.5467,2.5439,2.5453,2.5481,2.5411,2.5258,2.5146,2.5005,2.5005,2.5005,2.5005,2.5005,2.5033,2.5061,2.4858,2.4559,2.4069,2.3509,2.2583,2.1847,2.1588,2.1544,2.1506,2.1482,2.1361,2.1313,2.1226,2.1118,2.0896,2.0523,2.0118,1.9785,1.9656,1.9474,1.9277,1.9198,1.9146,1.904,1.9013,1.904,2.53,2.5189,2.5328,2.5356,2.5356,2.5356,2.5384,2.5481,2.5865,2.597,2.5811,2.5322,2.4901,2.438,2.3661,2.3178,2.3287,2.3337,2.3664,2.4036,2.435,2.4931,2.5542,2.6021,2.6297,2.662,2.675,2.6794,2.6762,2.6544,2.6326,2.6224,2.653,2.6552,2.6367,2.6769,2.6893,2.7026,2.7026,2.7026,2.7026,2.7026,2.6989,2.691,2.6925,2.691,2.6779,2.6753,2.6832,2.6742,2.6433,2.5814,2.516,2.5329,2.5134,2.447,2.4765,2.485,2.4842,2.5204,2.5467,2.5314,2.5202,2.5202,2.5202,2.5314,2.5328,2.5508,2.5564,2.5633,2.5784,2.5948,2.5948,2.5921,2.5988,2.6096,2.5961,2.5961,2.6082,2.592,2.5564,2.5467,2.5439,2.5188,2.5244,2.5328,2.5328,2.5328,2.5355,2.5342,2.5081,2.4668,2.401,2.3022,2.2333,2.1835,2.1801,2.1783,2.1759,2.1712,2.1698,2.1722,2.1602,2.1482,2.1251,2.087,2.0485,2.0093,1.9914,1.9708,1.9448,1.937,1.9474,1.9356,1.9251,2.6272,2.5825,2.6367,2.658,2.6553,2.6527,2.6553,2.6527,2.658,2.6353,2.5899,2.5626,2.4994,2.4196,2.3949,2.4094,2.4413,2.4447,2.4491,2.4737,2.5154,2.5513,2.5905,2.6471,2.6703,2.6974,2.6922,2.6794,2.6849,2.6451,2.6323,2.6552,2.6382,2.629,2.7073,2.7221,2.7499,2.7705,2.774,2.7715,2.769,2.7705,2.756,2.7397,2.731,2.7207,2.6974,2.6948,2.7041,2.7269,2.7221,2.6821,2.6322,2.6189,2.5702,2.5261,2.5239,2.5542,2.5217,2.5569,2.5948,2.5825,2.577,2.5811,2.5825,2.5825,2.5852,2.5811,2.5893,2.6015,2.6163,2.6312,2.6217,2.6363,2.6613,2.6469,2.6324,2.664,2.6745,2.6718,2.6493,2.6229,2.6109,2.5757,2.5508,2.5578,2.5661,2.5674,2.5702,2.5743,2.5505,2.5086,2.4371,2.3389,2.2682,2.2207,2.2019,2.201,2.1996,2.1996,2.1996,2.2006,2.2077,2.1935,2.1756,2.1589,2.1237,2.087,2.0459,2.0245,2.0131,2.008,2.0067,1.9862,1.9656,2.6647,2.642,2.6686,2.6794,2.6794,2.6794,2.6794,2.6794,2.6779,2.6634,2.6239,2.5556,2.4772,2.4123,2.4225,2.4549,2.4795,2.4921,2.5081,2.5367,2.5741,2.6072,2.6535,2.7015,2.7327,2.7469,2.7705,2.7978,2.7634,2.7149,2.6894,2.7063,2.7064,2.7205,2.7705,2.7695,2.7755,2.7824,2.7889,2.7889,2.7889,2.7874,2.7839,2.7695,2.767,2.757,2.7444,2.7418,2.7494,2.7595,2.7425,2.7063,2.6817,2.6702,2.6456,2.6245,2.6677,2.6564,2.5853,2.6208,2.6409,2.6496,2.6416,2.6351,2.6496,2.6561,2.664,2.6797,2.6797,2.6823,2.6953,2.717,2.7159,2.7221,2.7323,2.7221,2.7093,2.7282,2.7485,2.7449,2.7399,2.7185,2.6953,2.6745,2.6496,2.6416,2.6455,2.6481,2.6402,2.631,2.5967,2.5429,2.4614,2.3711,2.3042,2.2506,2.2301,2.2226,2.2184,2.2184,2.2208,2.2231,2.2324,2.2347,2.2194,2.2053,2.1898,2.1565,2.1118,2.0981,2.0883,2.0809,2.0709,2.061,2.0396,2.6794,2.6794,2.6794,2.6794,2.6794,2.6794,2.6794,2.6794,2.6794,2.6779,2.6504,2.5687,2.4888,2.4544,2.4892,2.5212,2.5396,2.5407,2.5719,2.6035,2.6323,2.671,2.7214,2.7675,2.7997,2.811,2.8352,2.8519,2.8424,2.8167,2.7834,2.775,2.7893,2.8112,2.8176,2.8192,2.8231,2.8295,2.8295,2.828,2.8255,2.8255,2.8183,2.807,2.8021,2.7997,2.7913,2.7864,2.7849,2.7969,2.7725,2.7535,2.7459,2.7459,2.7348,2.7261,2.7633,2.7584,2.7036,2.7034,2.7176,2.717,2.7119,2.703,2.7221,2.7308,2.7333,2.7475,2.7515,2.764,2.7864,2.7898,2.7849,2.7874,2.8021,2.7997,2.7997,2.807,2.807,2.8021,2.8061,2.8207,2.8012,2.7799,2.7575,2.7333,2.7268,2.7242,2.7129,2.699,2.6759,2.6318,2.572,2.4984,2.4501,2.3769,2.3258,2.2694,2.2651,2.252,2.2655,2.2612,2.2592,2.2592,2.2644,2.2509,2.2394,2.2067,2.1759,2.1698,2.1612,2.1431,2.131,2.1277,2.1227,2.6794,2.6794,2.6806,2.682,2.6794,2.6794,2.6794,2.6794,2.6794,2.6777,2.6591,2.6068,2.5716,2.5643,2.5712,2.6127,2.6784,2.6846,2.6949,2.7179,2.7535,2.7674,2.8012,2.8312,2.8622,2.867,2.8927,2.8904,2.8826,2.9088,2.8826,2.8685,2.8709,2.8873,2.8943,2.8873,2.8865,2.8928,2.8904,2.892,2.892,2.8897,2.8764,2.8527,2.8439,2.8295,2.7938,2.8012,2.8158,2.8424,2.8324,2.8262,2.8216,2.8231,2.8136,2.8062,2.8205,2.8235,2.81,2.7841,2.7794,2.7824,2.7824,2.7799,2.7913,2.7874,2.7874,2.7963,2.8052,2.7987,2.811,2.8198,2.828,2.8328,2.8439,2.8439,2.8487,2.8669,2.8669,2.8598,2.8622,2.8693,2.8716,2.8463,2.8255,2.8021,2.7898,2.7874,2.7874,2.775,2.775,2.7438,2.7001,2.6591,2.6503,2.5745,2.4548,2.4019,2.39,2.3528,2.3248,2.3167,2.3264,2.3139,2.3214,2.3051,2.2938,2.2801,2.2667,2.2511,2.2381,2.2352,2.2349,2.2387,2.2243,2.6794,2.682,2.7067,2.7015,2.6794,2.6794,2.6794,2.6794,2.6779,2.6559,2.625,2.6312,2.6195,2.6032,2.64,2.685,2.7388,2.7504,2.7755,2.8076,2.8328,2.8439,2.8654,2.895,2.9271,2.94,2.9601,2.9799,2.9881,2.9859,2.9924,2.9772,2.9467,2.9445,2.9506,2.9483,2.9461,2.9432,2.9403,2.935,2.9312,2.9167,2.9029,2.8912,2.8889,2.8826,2.8669,2.8646,2.874,2.8803,2.8834,2.885,2.8826,2.885,2.8756,2.8598,2.8764,2.8803,2.8779,2.8487,2.8295,2.8343,2.8463,2.8606,2.855,2.8622,2.863,2.8646,2.8598,2.855,2.8685,2.8779,2.8826,2.8764,2.874,2.8779,2.885,2.9006,2.9006,2.8826,2.8912,2.8982,2.9045,2.9045,2.8889,2.8693,2.8598,2.8463,2.8439,2.8391,2.8319,2.817,2.7716,2.7361,2.7223,2.6466,2.5614,2.5357,2.5115,2.4695,2.429,2.4291,2.4335,2.4089,2.3918,2.3926,2.3874,2.3722,2.3591,2.3453,2.3461,2.3487,2.3507,2.3449,2.3375,2.7141,2.7167,2.7423,2.7258,2.6832,2.6937,2.7,2.7049,2.7074,2.6982,2.6698,2.7159,2.7129,2.6932,2.72,2.769,2.8036,2.8183,2.8448,2.8709,2.8958,2.9074,2.9303,2.9595,2.9924,3.0075,3.0262,3.0426,3.0363,3.0468,3.0405,3.03,3.0215,3.0049,2.9984,2.9941,2.9881,2.9788,2.9677,2.9605,2.9544,2.9432,2.9335,2.9305,2.9259,2.9213,2.9106,2.9036,2.9006,2.9068,2.9068,2.9091,2.9091,2.9114,2.9114,2.9114,2.9114,2.9114,2.9006,2.8873,2.8669,2.8732,2.8889,2.9029,2.9114,2.9114,2.8982,2.9029,2.9068,2.9114,2.9114,2.9068,2.9029,2.8959,2.8959,2.8982,2.8982,2.9091,2.9091,2.9045,2.9114,2.9114,2.9114,2.9114,2.9068,2.8936,2.8889,2.8803,2.8826,2.8779,2.8708,2.8529,2.8248,2.7945,2.7626,2.718,2.6746,2.6389,2.613,2.5871,2.5568,2.5506,2.5339,2.5085,2.4957,2.4923,2.4888,2.4837,2.4629,2.4397,2.4411,2.4389,2.4235,2.4215,2.4542,2.7839,2.7889,2.7889,2.7519,2.6974,2.7222,2.7509,2.7675,2.7725,2.7966,2.8285,2.8456,2.848,2.8403,2.8345,2.8567,2.8772,2.8842,2.9028,2.928,2.9572,2.9728,2.9881,3.0135,3.0305,3.0447,3.0489,3.0489,3.0489,3.0489,3.0489,3.0489,3.0405,3.0384,3.0443,3.0274,3.0065,2.9853,2.9832,2.981,2.9788,2.9728,2.9677,2.9633,2.9538,2.947,2.9425,2.9312,2.9259,2.9243,2.9236,2.9236,2.9236,2.9213,2.919,2.919,2.9167,2.9144,2.9098,2.9075,2.9052,2.9006,2.9091,2.9091,2.9114,2.9114,2.9114,2.9114,2.9114,2.9114,2.9114,2.9114,2.9114,2.9114,2.9114,2.9114,2.9114,2.9114,2.9114,2.9114,2.9114,2.9114,2.9114,2.9114,2.9114,2.9091,2.9091,2.9114,2.9098,2.9052,2.8959,2.8865,2.8638,2.8584,2.8327,2.8198,2.789,2.7515,2.7232,2.7033,2.6695,2.6441,2.6259,2.6085,2.5938,2.5879,2.593,2.5994,2.5892,2.5759,2.5301,2.5165,2.4989,2.5027,2.5379,2.7889,2.7923,2.8391,2.8271,2.7854,2.7929,2.8134,2.8336,2.8384,2.8504,2.8646,2.8685,2.8685,2.8709,2.8889,2.9074,2.9355,2.9506,2.9617,3.0006,3.0156,3.022,3.0305,3.0347,3.0489,3.0489,3.0489,3.0489,3.0489,3.0489,3.0489,3.0489,3.0526,3.0489,3.0485,3.0422,3.0321,3.0258,3.0172,3.0081,3.0044,2.9919,2.9815,2.9815,2.9744,2.97,2.97,2.9582,2.9499,2.9499,2.9493,2.9499,2.9499,2.9499,2.9522,2.9544,2.9544,2.9493,2.9403,2.9335,2.9282,2.9206,2.9114,2.9114,2.9114,2.9114,2.9114,2.9114,2.9114,2.9114,2.9114,2.9114,2.9114,2.9114,2.9114,2.9114,2.9114,2.9114,2.9114,2.9114,2.9114,2.9114,2.9114,2.9114,2.9114,2.9137,2.9144,2.9137,2.9098,2.9114,2.9045,2.9068,2.8982,2.9036,2.8972,2.8688,2.8593,2.8339,2.834,2.8442,2.8052,2.744,2.7377,2.7292,2.7041,2.6836,2.7045,2.7226,2.7338,2.7179,2.6637,2.6337,2.6307,2.6224,2.6271,2.7775,2.7891,2.8288,2.8363,2.8252,2.8475,2.8764,2.8972,2.8964,2.9054,2.9307,2.9355,2.9355,2.9377,2.9438,2.955,2.9908,2.9989,3.0092,3.0489,3.0468,3.0447,3.0468,3.0489,3.0489,3.0489,3.0489,3.0489,3.0489,3.0489,3.0489,3.051,3.063,3.0712,3.0671,3.0593,3.0468,3.0405,3.0321,3.0295,3.0236,3.0156,3.007,3.0049,3.0006,2.9957,2.9919,2.9875,2.9793,2.9793,2.9793,2.9793,2.9793,2.9793,2.9793,2.9793,2.9772,2.9722,2.9611,2.9589,2.9499,2.9387,2.9213,2.9114,2.9114,2.9114,2.9114,2.9114,2.9137,2.9169,2.9169,2.9169,2.9239,2.9239,2.9239,2.9239,2.9208,2.9208,2.916,2.916,2.916,2.916,2.9137,2.9114,2.9114,2.9144,2.9175,2.9167,2.9167,2.9167,2.9183,2.9183,2.916,2.916,2.9137,2.9035,2.9004,2.9098,2.9137,2.9167,2.8942,2.8332,2.8399,2.8442,2.8147,2.8023,2.8282,2.8443,2.8311,2.8167,2.7862,2.7663,2.7625,2.7372,2.7089,2.7527,2.7692,2.7708,2.7863,2.8111,2.8682,2.9144,2.9528,2.9379,2.9683,3.0278,3.0079,2.9999,3.0269,3.0344,3.0356,3.0384,3.0426,3.0447,3.0485,3.0489,3.0489,3.0489,3.0489,3.0531,3.0547,3.0589,3.0654,3.0551,3.0695,3.0675,3.0675,3.0915,3.0995,3.0935,3.0818,3.0695,3.0716,3.0695,3.0675,3.0638,3.0593,3.0531,3.0489,3.0363,3.0274,3.0172,3.0065,2.9941,2.9897,2.9859,2.9859,2.9837,2.9815,2.9815,2.9815,2.9859,2.9875,2.9832,2.9832,2.9766,2.9633,2.9364,2.9213,2.9206,2.9259,2.9282,2.9282,2.9282,2.93,2.9301,2.9388,2.9474,2.9474,2.9458,2.9427,2.9372,2.9309,2.9245,2.9213,2.9236,2.9259,2.9282,2.9259,2.9357,2.935,2.9403,2.9364,2.9357,2.9312,2.9312,2.9289,2.9266,2.9213,2.919,2.9282,2.9305,2.9357,2.9305,2.9289,2.9166,2.9127,2.9066,2.9025,2.9087,2.9111,2.906,2.9076,2.9073,2.8904,2.8701,2.8343,2.8116,2.783,2.7605,2.7651,2.7712,2.7863,2.7947,2.7974,2.7876,2.844,2.9313,2.8946,2.8853,2.9006,2.9003,2.935,2.9678,2.9728,3.0059,3.0307,3.0489,3.0489,3.0489,3.0551,3.051,3.051,3.0572,3.0654,3.0794,3.0895,3.0938,3.1157,3.1176,3.1176,3.1274,3.1274,3.1349,3.1329,3.1271,3.1235,3.1176,3.1159,3.11,3.112,3.1117,3.1018,3.0875,3.0794,3.0671,3.0506,3.0384,3.0321,3.0371,3.0316,3.03,3.03,3.03,3.03,3.0284,3.03,3.0258,3.0146,3.0103,3.0065,2.9962,2.9728,2.9639,2.9611,2.9643,2.9637,2.9627,2.9691,2.9804,3.0177,3.0383,3.0557,3.0716,3.0548,3.0167,3.0048,2.9691,2.9611,2.9477,2.9477,2.9566,2.9582,2.9655,2.9728,2.9677,2.9655,2.9683,2.9595,2.9566,2.9477,2.9454,2.9454,2.9432,2.9522,2.9589,2.9611,2.9633,2.9522,2.9499,2.9506,2.9528,2.955,2.9544,2.9454,2.9522,2.9617,2.9566,2.9432,2.9544,2.9377,2.8966,2.8591,2.836,2.8167,2.7049,2.7111,2.723,2.7454,2.7608,2.7127,2.7528,2.8357,2.8144,2.8094,2.8392,2.8442,2.8622,2.9003,2.9317,2.9661,3.0009,3.0373,3.0551,3.0716,3.0712,3.0855,3.0838,3.0882,3.1038,3.1157,3.1215,3.1291,3.1504,3.1504,3.1466,3.1483,3.1578,3.1654,3.1673,3.1783,3.1856,3.1764,3.1635,3.1542,3.1504,3.1523,3.1368,3.1252,3.1196,3.1058,3.0935,3.0858,3.1012,3.121,3.1236,3.1416,3.1511,3.1607,3.1266,3.1211,3.0808,3.0597,3.0401,3.0468,3.0405,3.0384,3.0438,3.0701,3.0465,3.0369,3.0266,3.0164,3.0305,3.0518,3.1069,3.1589,3.1948,3.2307,3.1735,3.1126,3.0678,3.0216,2.9994,2.9826,2.9859,2.9946,3.0032,3.0102,3.0171,3.0234,3.0318,3.0418,3.0187,2.9903,2.9772,2.9661,2.9683,2.9705,2.9837,2.9946,2.9903,2.9837,2.9705,2.9683,2.9793,2.9793,2.975,2.975,2.975,2.9793,2.9875,2.9772,2.9705,2.9815,2.9837,2.9528,2.9219,2.9104,2.8904,2.6058,2.6234,2.6185,2.6632,2.7066,2.6518,2.6634,2.7166,2.7269,2.7582,2.8061,2.8177,2.8144,2.8343,2.8763,2.9264,2.9756,3.0209,3.0687,3.1021,3.1098,3.1196,3.1353,3.1506,3.1543,3.1543,3.1618,3.173,3.1674,3.1766,3.184,3.1635,3.1894,3.2038,3.2109,3.2284,3.2318,3.2214,3.1966,3.1765,3.1673,3.1598,3.1578,3.1523,3.1523,3.1502,3.1481,3.1637,3.1895,3.2222,3.255,3.2778,3.2948,3.2977,3.2564,3.209,3.1564,3.1271,3.1102,3.1163,3.1332,3.1398,3.1514,3.1953,3.1857,3.1245,3.1031,3.1396,3.1681,3.2077,3.2596,3.2912,3.3211,3.3255,3.2861,3.234,3.1893,3.1227,3.0518,3.0418,3.0481,3.058,3.0601,3.0686,3.071,3.0794,3.0871,3.0988,3.0918,3.051,3.0359,3.0189,3.023,3.0335,3.0314,3.0356,3.0204,3.0097,3.0054,3.0161,3.0414,3.023,2.9946,3.0097,3.0288,3.0075,3.0049,3.0049,3.0027,2.9989,3.0006,2.9919,2.981,2.9792,2.955,2.615,2.6185,2.6185,2.6336,2.6435,2.6285,2.6303,2.6486,2.6683,2.6799,2.677,2.6818,2.7101,2.7674,2.8092,2.8718,2.9729,3.022,3.0745,3.1238,3.1487,3.162,3.173,3.1895,3.1985,3.2127,3.2214,3.2266,3.2369,3.2454,3.2521,3.2521,3.2588,3.2538,3.2555,3.2722,3.2657,3.2557,3.2404,3.2197,3.2144,3.2126,3.2108,3.1912,3.1803,3.171,3.179,3.2124,3.2327,3.2573,3.3171,3.3495,3.3727,3.3593,3.3177,3.2619,3.2412,3.2176,3.2103,3.2156,3.2409,3.2858,3.3109,3.3282,3.3097,3.2354,3.2215,3.2756,3.3195,3.3626,3.4028,3.4236,3.4381,3.4232,3.3952,3.3541,3.3072,3.2131,3.1173,3.1095,3.1154,3.1196,3.1232,3.122,3.1278,3.1298,3.1334,3.1423,3.1547,3.1368,3.1436,3.1283,3.1098,3.1103,3.0965,3.0845,3.0723,3.0804,3.0865,3.0945,3.1055,3.1102,3.1079,3.0877,3.0841,3.0858,3.0758,3.0501,3.0459,3.0521,3.0371,3.0382,3.0481,3.0483,3.0141,2.6555,2.6538,2.6555,2.6555,2.6572,2.6538,2.6572,2.6606,2.6775,2.6792,2.6657,2.6623,2.679,2.7296,2.7708,2.8492,2.9685,3.0329,3.1112,3.1704,3.195,3.2109,3.2214,3.2318,3.2454,3.2605,3.262,3.2703,3.2898,3.2884,3.2834,3.2916,3.2916,3.2916,3.2916,3.29,3.285,3.2737,3.2721,3.2673,3.2592,3.2474,3.2354,3.2144,3.209,3.2001,3.2226,3.2619,3.3157,3.3781,3.4668,3.5065,3.5137,3.4866,3.4446,3.3953,3.3601,3.3269,3.321,3.3316,3.3549,3.3948,3.4192,3.4168,3.469,3.4064,3.3842,3.4264,3.4095,3.4419,3.5158,3.5534,3.5714,3.5711,3.5015,3.436,3.3604,3.2678,3.2094,3.1927,3.1959,3.1977,3.1948,3.182,3.1874,3.2032,3.2014,3.2359,3.241,3.2405,3.2424,3.2336,3.2121,3.1679,3.1315,3.1276,3.1276,3.1428,3.1732,3.1754,3.1859,3.2156,3.2269,3.2176,3.2091,3.2022,3.1867,3.1513,3.1466,3.1641,3.1314,3.0949,3.1079,3.1304,3.1163,2.6989,2.7006,2.6989,2.6989,2.7006,2.6989,2.6989,2.7038,2.7181,2.726,2.726,2.7197,2.7133,2.7359,2.7851,2.8658,2.9451,3.0244,3.1266,3.1999,3.2382,3.2535,3.2736,3.2916,3.293,3.2945,3.2945,3.2961,3.3026,3.3026,3.3026,3.2997,3.2963,3.2945,3.2963,3.2963,3.2961,3.2932,3.2916,3.29,3.2771,3.259,3.2456,3.2422,3.2423,3.2406,3.2616,3.3231,3.3986,3.4826,3.5768,3.6227,3.6289,3.5963,3.5595,3.5116,3.466,3.4352,3.4219,3.4317,3.4517,3.47,3.4859,3.5196,3.5738,3.5745,3.5509,3.5388,3.5205,3.5394,3.6115,3.6516,3.6716,3.6691,3.5849,3.505,3.4148,3.3353,3.3112,3.2889,3.2905,3.2903,3.2787,3.2634,3.2687,3.2809,3.3038,3.3406,3.3634,3.3611,3.3608,3.3378,3.3094,3.2563,3.1982,3.1965,3.2125,3.2526,3.2843,3.2674,3.2681,3.3022,3.3368,3.363,3.3542,3.316,3.2969,3.2684,3.271,3.273,3.2465,3.2161,3.2323,3.2496,3.2407,2.7006,2.7006,2.7006,2.7022,2.7022,2.7022,2.7054,2.7197,2.7428,2.7582,2.7716,2.7844,2.7771,2.7334,2.7685,2.8386,2.9292,3.0187,3.0989,3.174,3.2596,3.2923,3.3088,3.3183,3.3256,3.3256,3.3241,3.3271,3.3196,3.3244,3.3289,3.3256,3.3271,3.3271,3.3271,3.3256,3.3196,3.3135,3.3073,3.3042,3.29,3.2739,3.2606,3.2523,3.2474,3.244,3.2739,3.3775,3.4372,3.511,3.6076,3.674,3.6841,3.6665,3.6348,3.5996,3.5518,3.5463,3.5353,3.5372,3.5535,3.6011,3.6162,3.625,3.6584,3.6582,3.6427,3.6446,3.6327,3.6327,3.6814,3.6814,3.6913,3.6702,3.6114,3.55,3.4742,3.4462,3.427,3.42,3.4186,3.4138,3.4016,3.395,3.3932,3.4038,3.4108,3.4443,3.4495,3.46,3.474,3.4403,3.4066,3.3736,3.3297,3.3101,3.3242,3.3662,3.3976,3.3916,3.3909,3.396,3.4254,3.4708,3.4431,3.3942,3.3788,3.3818,3.3719,3.3679,3.3596,3.3492,3.3676,3.3624,3.3487]}]]